[[{"header":{"parameterUnit":"m.s-1","parameterCategory":1,"la1":31.0,"la2":29.5877,"lo1":-88.7671,"lo2":-86.6584,"dx":0.0162,"dy":0.0185,"nx":115,"ny":88,"refTime":"2022-11-11T18:00:00:Z","depth":0,"parameterNumber":2,"parameterNumberName":"U-component_of_WINDS"},"data":[0.0,0.0,0.0,0.0,0.0,0.0,0.0,0.0,0.0,0.0,0.0,0.0,0.0,0.0,0.0,0.0,0.0,0.0,0.0,0.0,0.0,0.0,0.0,0.0,0.0,0.0,0.0,0.0,0.0,0.0,0.0,0.0,0.0,0.0,0.0,0.0,0.0,0.0,0.0,0.0,0.0,0.0,0.0,0.0,0.0,0.0,0.0,0.0,0.0,0.0,0.0,0.0,0.0,0.0,0.0,0.0,0.0,0.0,0.0,0.0,0.0,0.0,0.0,0.0,0.0,0.0,0.0,0.0,0.0,0.0,0.0,0.0,0.0,0.0,0.0,0.0,0.0,0.0,0.0,0.0,0.0,0.0,0.0,0.0,0.0,0.0,0.0,0.0,0.0,0.0,0.0,0.0,0.0,0.0,0.0,0.0,0.0,0.0,0.0,0.0,0.0,0.0,0.0,0.0,0.0,0.0,0.0,0.0,0.0,0.0,0.0,0.0,0.0,0.0,0.0,0.0,0.0,0.0,0.0,0.0,0.0,0.0,0.0,0.0,0.0,0.0,0.0,0.0,0.0,0.0,0.0,0.0,0.0,0.0,0.0,0.0,0.0,0.0,0.0,0.0,0.0,0.0,0.0,0.0,0.0,0.0,0.0,0.0,0.0,0.0,0.0,0.0,0.0,0.0,0.0,0.0,0.0,0.0,0.0,0.0,0.0,0.0,0.0,0.0,0.0,0.0,0.0,0.0,0.0,0.0,0.0,0.0,0.0,0.0,0.0,0.0,0.0,0.0,0.0,0.0,0.0,0.0,0.0,0.0,0.0,0.0,0.0,0.0,0.0,0.0,0.0,0.0,0.0,0.0,0.0,0.0,0.0,0.0,0.0,0.0,0.0,0.0,0.0,0.0,0.0,0.0,0.0,0.0,0.0,0.0,0.0,0.0,0.0,0.0,0.0,0.0,0.0,0.0,0.0,0.0,0.0,0.0,0.0,0.0,0.0,0.0,0.0,0.0,0.0,0.0,0.0,0.0,0.0,0.0,0.0,0.0,0.0,0.0,0.0,0.0,0.0,0.0,0.0,0.0,0.0,0.0,0.0,0.0,0.0,0.0,0.0,0.0,0.0,0.0,0.0,0.0,0.0,0.0,0.0,0.0,0.0,0.0,0.0,0.0,0.0,0.0,0.0,0.0,0.0,0.0,0.0,0.0,0.0,0.0,0.0,0.0,0.0,0.0,0.0,0.0,0.0,0.0,0.0,0.0,0.0,0.0,0.0,0.0,0.0,0.0,0.0,0.0,0.0,0.0,0.0,0.0,0.0,0.0,0.0,0.0,0.0,0.0,0.0,0.0,0.0,0.0,0.0,0.0,0.0,0.0,0.0,0.0,0.0,0.0,0.0,0.0,0.0,0.0,0.0,0.0,0.0,0.0,0.0,0.0,0.0,0.0,0.0,0.0,0.0,0.0,0.0,0.0,0.0,0.0,0.0,0.0,0.0,0.0,0.0,0.0,0.0,0.0,0.0,0.0,0.0,0.0,0.0,0.0,0.0,0.0,0.0,0.0,0.0,0.0,0.0,0.0,0.0,0.0,0.0,0.0,0.0,0.0,0.0,0.0,0.0,0.0,0.0,0.0,0.0,0.0,0.0,0.0,0.0,0.0,0.0,0.0,0.0,0.0,0.0,0.0,0.0,0.0,0.0,0.0,0.0,0.0,0.0,0.0,0.0,0.0,0.0,0.0,0.0,0.0,0.0,0.0,0.0,0.0,0.0,0.0,0.0,0.0,0.0,0.0,0.0,0.0,0.0,0.0,0.0,0.0,0.0,0.0,0.0,0.0,0.0,0.0,0.0,0.0,0.0,0.0,0.0,0.0,0.0,0.0,0.0,0.0,0.0,0.0,0.0,0.0,0.0,0.0,0.0,0.0,0.0,0.0,0.0,0.0,0.0,0.0,0.0,0.0,0.0,0.0,0.0,0.0,0.0,0.0,0.0,0.0,0.0,0.0,0.0,0.0,0.0,0.0,0.0,0.0,0.0,0.0,0.0,0.0,0.0,0.0,0.0,0.0,0.0,0.0,0.0,0.0,0.0,0.0,0.0,0.0,0.0,0.0,0.0,0.0,0.0,0.0,0.0,0.0,0.0,0.0,0.0,0.0,0.0,0.0,0.0,0.0,0.0,0.0,0.0,0.0,0.0,0.0,0.0,0.0,0.0,0.0,0.0,0.0,0.0,0.0,0.0,0.0,0.0,0.0,0.0,0.0,0.0,0.0,0.0,0.0,0.0,0.0,0.0,0.0,0.0,0.0,0.0,0.0,0.0,0.0,0.0,0.0,0.0,0.0,0.0,0.0,0.0,0.0,0.0,0.0,0.0,0.0,0.0,0.0,0.0,0.0,0.0,0.0,0.0,0.0,0.0,0.0,0.0,0.0,0.0,0.0,0.0,0.0,0.0,0.0,0.0,0.0,0.0,0.0,0.0,0.0,0.0,0.0,0.0,0.0,0.0,0.0,0.0,0.0,0.0,0.0,0.0,0.0,0.0,0.0,0.0,0.0,0.0,0.0,0.0,0.0,0.0,0.0,0.0,0.0,0.0,0.0,0.0,0.0,0.0,0.0,0.0,0.0,0.0,0.0,0.0,0.0,0.0,0.0,0.0,0.0,0.0,0.0,0.0,0.0,0.0,0.0,0.0,0.0,0.0,0.0,0.0,0.0,0.0,0.0,0.0,0.0,0.0,0.0,0.0,0.0,0.0,0.0,0.0,0.0,0.0,0.0,0.0,0.0,0.0,0.0,0.0,0.0,0.0,0.0,0.0,0.0,0.0,0.0,0.0,0.0,0.0,0.0,0.0,0.0,0.0,0.0,0.0,0.0,0.0,0.0,0.0,0.0,0.0,0.0,0.0,0.0,0.0,0.0,0.0,0.0,0.0,0.0,0.0,0.0,0.0,0.0,0.0,0.0,0.0,0.0,0.0,0.0,0.0,0.0,0.0,0.0,0.0,0.0,0.0,0.0,0.0,0.0,0.0,0.0,0.0,0.0,0.0,0.0,0.0,0.0,0.0,0.0,0.0,0.0,0.0,0.0,0.0,0.0,0.0,0.0,0.0,0.0,0.0,0.0,0.0,0.0,0.0,0.0,0.0,0.0,0.0,0.0,0.0,0.0,0.0,0.0,0.0,0.0,0.0,0.0,0.0,0.0,0.0,0.0,0.0,0.0,0.0,0.0,0.0,0.0,0.0,0.0,0.0,0.0,0.0,0.0,0.0,0.0,0.0,0.0,0.0,0.0,0.0,0.0,0.0,0.0,0.0,0.0,0.0,0.0,0.0,0.0,0.0,0.0,0.0,0.0,0.0,0.0,0.0,0.0,0.0,0.0,0.0,0.0,0.0,0.0,0.0,0.0,0.0,0.0,0.0,0.0,0.0,0.0,0.0,0.0,0.0,0.0,0.0,0.0,0.0,0.0,0.0,0.0,0.0,0.0,0.0,0.0,0.0,0.0,0.0,0.0,0.0,0.0,0.0,0.0,0.0,0.0,0.0,0.0,0.0,0.0,0.0,0.0,0.0,0.0,0.0,0.0,0.0,0.0,0.0,0.0,0.0,0.0,0.0,0.0,0.0,0.0,0.0,0.0,0.0,0.0,0.0,0.0,0.0,0.0,0.0,0.0,0.0,0.0,0.0,0.0,0.0,0.0,0.0,0.0,0.0,0.0,0.0,0.0,0.0,0.0,0.0,0.0,0.0,0.0,0.0,0.0,0.0,0.0,0.0,0.0,0.0,0.0,0.0,0.0,0.0,0.0,0.0,0.0,0.0,0.0,0.0,0.0,0.0,0.0,0.0,0.0,0.0,0.0,0.0,0.0,0.0,0.0,0.0,0.0,0.0,0.0,0.0,0.0,0.0,0.0,0.0,0.0,0.0,0.0,0.0,0.0,0.0,0.0,0.0,0.0,0.0,0.0,0.0,0.0,0.0,0.0,0.0,0.0,0.0,0.0,0.0,0.0,0.0,0.0,0.0,0.0,0.0,0.0,0.0,0.0,0.0,0.0,0.0,0.0,0.0,0.0,0.0,0.0,0.0,0.0,0.0,0.0,0.0,0.0,0.0,0.0,0.0,0.0,0.0,0.0,0.0,0.0,0.0,0.0,0.0,0.0,0.0,0.0,0.0,0.0,0.0,0.0,0.0,0.0,0.0,0.0,0.0,0.0,0.0,0.0,0.0,0.0,0.0,0.0,0.0,0.0,0.0,0.0,0.0,0.0,-3.554,0.0,0.0,0.0,-4.5465,0.0,0.0,0.0,0.0,0.0,0.0,0.0,0.0,0.0,0.0,0.0,0.0,0.0,0.0,0.0,0.0,0.0,0.0,0.0,0.0,0.0,0.0,0.0,0.0,0.0,0.0,0.0,0.0,0.0,0.0,0.0,0.0,0.0,0.0,0.0,0.0,0.0,0.0,0.0,0.0,0.0,0.0,0.0,0.0,0.0,0.0,0.0,0.0,0.0,0.0,0.0,0.0,0.0,0.0,0.0,0.0,0.0,0.0,0.0,0.0,0.0,0.0,0.0,0.0,0.0,0.0,0.0,0.0,0.0,0.0,0.0,0.0,0.0,0.0,0.0,0.0,0.0,0.0,0.0,0.0,0.0,0.0,0.0,0.0,0.0,0.0,0.0,0.0,0.0,0.0,0.0,0.0,0.0,0.0,0.0,0.0,0.0,0.0,0.0,0.0,0.0,0.0,0.0,0.0,0.0,0.0,0.0,0.0,0.0,0.0,-3.4477,-3.7696,-3.8882,-4.1644,-4.6196,0.0,0.0,0.0,0.0,0.0,0.0,0.0,0.0,0.0,0.0,0.0,0.0,0.0,0.0,0.0,0.0,0.0,0.0,0.0,0.0,0.0,0.0,0.0,0.0,0.0,0.0,0.0,0.0,0.0,0.0,0.0,0.0,0.0,0.0,0.0,0.0,0.0,0.0,0.0,0.0,0.0,0.0,0.0,0.0,0.0,0.0,0.0,0.0,0.0,0.0,0.0,0.0,0.0,0.0,0.0,0.0,0.0,0.0,0.0,0.0,0.0,0.0,0.0,0.0,0.0,0.0,0.0,0.0,0.0,0.0,0.0,0.0,0.0,0.0,0.0,0.0,0.0,0.0,0.0,0.0,0.0,0.0,0.0,0.0,0.0,0.0,0.0,0.0,0.0,0.0,0.0,0.0,0.0,0.0,0.0,0.0,0.0,0.0,0.0,0.0,0.0,0.0,0.0,0.0,0.0,0.0,0.0,0.0,0.0,0.0,0.0,0.0,-3.882,-4.2107,-4.6621,0.0,0.0,0.0,0.0,0.0,0.0,0.0,0.0,0.0,0.0,0.0,0.0,0.0,0.0,0.0,0.0,0.0,0.0,0.0,0.0,0.0,0.0,0.0,0.0,0.0,0.0,0.0,0.0,0.0,0.0,0.0,0.0,0.0,0.0,0.0,0.0,0.0,0.0,0.0,0.0,0.0,0.0,0.0,0.0,0.0,0.0,0.0,0.0,0.0,0.0,0.0,0.0,0.0,0.0,0.0,0.0,0.0,0.0,0.0,0.0,0.0,0.0,0.0,0.0,0.0,0.0,0.0,0.0,0.0,0.0,0.0,0.0,0.0,0.0,0.0,0.0,0.0,0.0,0.0,0.0,0.0,0.0,0.0,0.0,0.0,0.0,0.0,0.0,0.0,0.0,0.0,0.0,0.0,0.0,0.0,0.0,0.0,0.0,0.0,0.0,0.0,0.0,0.0,0.0,0.0,0.0,0.0,0.0,0.0,0.0,-3.54,-3.7307,-3.9508,0.0,-4.6796,0.0,0.0,0.0,0.0,0.0,0.0,0.0,0.0,0.0,0.0,0.0,0.0,0.0,0.0,0.0,0.0,0.0,0.0,0.0,0.0,0.0,0.0,0.0,0.0,0.0,0.0,0.0,0.0,0.0,0.0,0.0,0.0,0.0,0.0,0.0,0.0,0.0,0.0,0.0,0.0,0.0,0.0,0.0,0.0,0.0,0.0,0.0,0.0,0.0,0.0,0.0,0.0,0.0,0.0,0.0,0.0,0.0,0.0,0.0,0.0,0.0,0.0,0.0,0.0,0.0,0.0,0.0,0.0,0.0,0.0,0.0,0.0,0.0,0.0,0.0,0.0,0.0,0.0,0.0,0.0,0.0,0.0,0.0,0.0,0.0,0.0,0.0,0.0,0.0,0.0,0.0,0.0,0.0,0.0,0.0,0.0,0.0,0.0,0.0,0.0,0.0,0.0,0.0,0.0,0.0,0.0,0.0,0.0,0.0,0.0,-3.3994,-3.6908,-4.123,-4.4979,0.0,0.0,0.0,0.0,0.0,0.0,0.0,0.0,0.0,0.0,0.0,0.0,0.0,0.0,0.0,0.0,0.0,0.0,0.0,0.0,0.0,0.0,0.0,0.0,0.0,0.0,0.0,0.0,0.0,0.0,0.0,0.0,0.0,0.0,0.0,0.0,0.0,0.0,0.0,0.0,0.0,0.0,0.0,0.0,0.0,0.0,0.0,0.0,0.0,0.0,0.0,0.0,0.0,0.0,0.0,0.0,0.0,0.0,0.0,0.0,0.0,0.0,0.0,0.0,0.0,0.0,0.0,0.0,0.0,0.0,0.0,0.0,0.0,0.0,0.0,0.0,0.0,0.0,0.0,0.0,0.0,0.0,0.0,0.0,0.0,0.0,0.0,0.0,0.0,0.0,0.0,0.0,0.0,0.0,0.0,0.0,0.0,0.0,0.0,0.0,0.0,0.0,0.0,0.0,0.0,0.0,0.0,0.0,0.0,0.0,-2.9713,-3.3423,-3.7678,-4.2539,-4.6283,-4.881,0.0,0.0,0.0,0.0,0.0,0.0,0.0,0.0,0.0,0.0,0.0,0.0,0.0,0.0,0.0,0.0,0.0,0.0,0.0,0.0,0.0,0.0,0.0,0.0,0.0,0.0,0.0,0.0,0.0,0.0,0.0,0.0,0.0,0.0,0.0,0.0,0.0,0.0,0.0,0.0,0.0,0.0,0.0,0.0,0.0,0.0,0.0,0.0,0.0,0.0,0.0,0.0,0.0,0.0,0.0,0.0,0.0,0.0,0.0,0.0,0.0,0.0,0.0,0.0,0.0,0.0,0.0,0.0,0.0,0.0,0.0,0.0,0.0,0.0,0.0,0.0,0.0,0.0,0.0,0.0,0.0,0.0,0.0,0.0,0.0,0.0,0.0,0.0,0.0,0.0,0.0,0.0,0.0,0.0,0.0,0.0,0.0,0.0,0.0,0.0,0.0,0.0,0.0,0.0,0.0,0.0,0.0,0.0,-2.6542,-3.0442,-3.4981,-4.0263,-4.3014,-4.5784,0.0,0.0,0.0,0.0,0.0,0.0,0.0,0.0,0.0,0.0,0.0,0.0,0.0,0.0,0.0,0.0,0.0,0.0,0.0,0.0,0.0,0.0,0.0,0.0,0.0,0.0,0.0,0.0,0.0,0.0,0.0,0.0,0.0,0.0,0.0,0.0,0.0,0.0,0.0,0.0,0.0,0.0,0.0,0.0,0.0,0.0,0.0,0.0,0.0,0.0,0.0,0.0,0.0,0.0,0.0,0.0,0.0,0.0,0.0,0.0,0.0,0.0,0.0,0.0,0.0,0.0,0.0,0.0,0.0,0.0,0.0,0.0,0.0,0.0,0.0,0.0,0.0,0.0,0.0,0.0,0.0,0.0,0.0,0.0,0.0,0.0,0.0,0.0,0.0,0.0,0.0,0.0,0.0,0.0,0.0,0.0,0.0,0.0,0.0,0.0,0.0,0.0,0.0,0.0,0.0,0.0,0.0,0.0,0.0,-2.8739,-3.2881,-3.6634,-3.9687,-4.1829,-4.4597,0.0,0.0,0.0,0.0,0.0,0.0,0.0,0.0,0.0,0.0,0.0,0.0,0.0,0.0,0.0,0.0,0.0,0.0,0.0,0.0,0.0,0.0,0.0,0.0,0.0,0.0,0.0,0.0,0.0,0.0,0.0,0.0,0.0,0.0,0.0,0.0,0.0,0.0,0.0,0.0,0.0,0.0,0.0,0.0,0.0,0.0,0.0,0.0,0.0,0.0,0.0,0.0,0.0,0.0,0.0,0.0,0.0,0.0,0.0,0.0,0.0,0.0,0.0,0.0,0.0,0.0,0.0,0.0,0.0,0.0,0.0,0.0,0.0,0.0,0.0,0.0,0.0,0.0,0.0,0.0,0.0,0.0,0.0,0.0,0.0,0.0,0.0,0.0,0.0,0.0,0.0,0.0,0.0,0.0,0.0,0.0,0.0,0.0,0.0,0.0,0.0,0.0,0.0,0.0,0.0,0.0,0.0,0.0,0.0,-3.065,-3.4966,-3.8016,-3.9761,-4.2136,-4.488,0.0,0.0,0.0,0.0,0.0,0.0,0.0,0.0,0.0,0.0,0.0,0.0,0.0,0.0,0.0,0.0,0.0,0.0,0.0,0.0,0.0,0.0,0.0,0.0,0.0,0.0,0.0,0.0,0.0,0.0,0.0,0.0,0.0,0.0,0.0,0.0,0.0,0.0,0.0,0.0,0.0,0.0,0.0,0.0,0.0,0.0,0.0,0.0,0.0,0.0,0.0,0.0,0.0,0.0,0.0,0.0,0.0,0.0,0.0,0.0,0.0,0.0,0.0,0.0,0.0,0.0,0.0,0.0,0.0,0.0,0.0,0.0,0.0,0.0,0.0,0.0,0.0,0.0,0.0,0.0,0.0,0.0,0.0,0.0,0.0,0.0,0.0,0.0,0.0,0.0,0.0,0.0,0.0,0.0,0.0,0.0,0.0,0.0,0.0,0.0,0.0,0.0,0.0,0.0,0.0,0.0,0.0,0.0,-2.783,-3.1803,-3.6109,-3.902,-4.065,-4.3808,-4.691,0.0,0.0,0.0,0.0,0.0,0.0,0.0,0.0,0.0,0.0,0.0,0.0,0.0,0.0,0.0,0.0,0.0,0.0,0.0,0.0,0.0,0.0,0.0,0.0,0.0,0.0,0.0,0.0,0.0,0.0,0.0,0.0,0.0,0.0,0.0,0.0,0.0,0.0,0.0,0.0,0.0,0.0,0.0,0.0,0.0,0.0,0.0,0.0,0.0,0.0,0.0,0.0,0.0,0.0,0.0,0.0,0.0,0.0,0.0,0.0,0.0,0.0,0.0,0.0,0.0,0.0,0.0,0.0,0.0,0.0,0.0,0.0,0.0,0.0,0.0,0.0,0.0,0.0,0.0,0.0,0.0,0.0,0.0,0.0,0.0,0.0,0.0,0.0,0.0,0.0,0.0,0.0,0.0,0.0,0.0,0.0,0.0,0.0,0.0,0.0,0.0,0.0,0.0,0.0,0.0,0.0,0.0,0.0,0.0,-3.2714,-3.5412,-3.7565,-3.9111,-4.1798,-4.4032,0.0,0.0,0.0,0.0,0.0,0.0,0.0,0.0,0.0,0.0,0.0,0.0,0.0,0.0,0.0,0.0,0.0,0.0,0.0,0.0,0.0,0.0,0.0,0.0,0.0,0.0,0.0,0.0,0.0,0.0,0.0,0.0,0.0,0.0,0.0,0.0,0.0,0.0,0.0,0.0,0.0,0.0,0.0,0.0,0.0,0.0,0.0,0.0,0.0,0.0,0.0,0.0,0.0,0.0,0.0,0.0,0.0,0.0,0.0,0.0,0.0,0.0,0.0,0.0,0.0,0.0,0.0,0.0,0.0,0.0,0.0,0.0,0.0,0.0,0.0,0.0,0.0,0.0,0.0,0.0,0.0,0.0,0.0,0.0,0.0,0.0,0.0,0.0,0.0,0.0,0.0,0.0,0.0,0.0,0.0,0.0,0.0,0.0,0.0,0.0,0.0,0.0,0.0,0.0,0.0,0.0,0.0,0.0,0.0,-3.1755,-3.4082,-3.5979,-3.7544,-4.0625,-4.3017,-4.4557,0.0,0.0,0.0,0.0,0.0,0.0,0.0,0.0,0.0,0.0,0.0,0.0,0.0,0.0,0.0,0.0,0.0,0.0,0.0,0.0,0.0,0.0,0.0,0.0,0.0,0.0,0.0,0.0,0.0,0.0,0.0,0.0,0.0,0.0,0.0,0.0,0.0,0.0,0.0,0.0,0.0,0.0,0.0,0.0,0.0,0.0,0.0,0.0,0.0,0.0,0.0,0.0,0.0,0.0,0.0,0.0,0.0,0.0,0.0,0.0,0.0,0.0,0.0,0.0,0.0,0.0,0.0,0.0,0.0,0.0,0.0,0.0,0.0,0.0,0.0,0.0,0.0,0.0,0.0,0.0,0.0,0.0,0.0,0.0,0.0,0.0,0.0,0.0,0.0,0.0,0.0,0.0,0.0,0.0,0.0,0.0,0.0,0.0,0.0,0.0,0.0,0.0,0.0,0.0,0.0,0.0,0.0,0.0,-2.9353,-3.213,-3.4336,-3.5815,-4.0247,-4.3418,0.0,0.0,0.0,0.0,0.0,0.0,0.0,0.0,0.0,0.0,0.0,0.0,0.0,0.0,0.0,0.0,0.0,0.0,0.0,0.0,0.0,0.0,0.0,0.0,0.0,0.0,0.0,0.0,0.0,0.0,0.0,0.0,0.0,0.0,0.0,0.0,0.0,0.0,0.0,0.0,0.0,0.0,0.0,0.0,0.0,0.0,0.0,0.0,0.0,0.0,0.0,0.0,0.0,0.0,0.0,0.0,0.0,0.0,0.0,0.0,0.0,0.0,0.0,0.0,0.0,0.0,0.0,0.0,0.0,0.0,0.0,0.0,0.0,0.0,0.0,0.0,0.0,0.0,0.0,0.0,0.0,0.0,0.0,0.0,0.0,0.0,0.0,0.0,0.0,0.0,0.0,0.0,0.0,0.0,0.0,0.0,0.0,0.0,0.0,0.0,0.0,0.0,0.0,0.0,0.0,0.0,0.0,0.0,0.0,-2.8417,-3.0393,-3.2291,-3.4319,-3.774,-4.0506,0.0,0.0,0.0,0.0,0.0,0.0,0.0,0.0,0.0,0.0,0.0,0.0,0.0,0.0,0.0,0.0,0.0,0.0,0.0,0.0,0.0,0.0,0.0,0.0,0.0,0.0,0.0,0.0,0.0,0.0,0.0,0.0,0.0,0.0,0.0,0.0,0.0,0.0,0.0,0.0,0.0,0.0,0.0,0.0,0.0,0.0,0.0,0.0,0.0,0.0,0.0,0.0,0.0,0.0,0.0,0.0,0.0,0.0,0.0,0.0,0.0,0.0,0.0,0.0,0.0,0.0,0.0,0.0,0.0,0.0,0.0,0.0,0.0,0.0,0.0,0.0,0.0,0.0,0.0,0.0,0.0,0.0,0.0,0.0,0.0,0.0,0.0,0.0,0.0,0.0,0.0,0.0,0.0,0.0,0.0,0.0,0.0,0.0,0.0,0.0,0.0,0.0,0.0,0.0,0.0,0.0,0.0,0.0,-2.7464,-2.8081,-2.9529,-3.0867,-3.2155,-3.5042,-3.7991,0.0,0.0,0.0,0.0,0.0,0.0,0.0,0.0,0.0,0.0,0.0,0.0,0.0,0.0,0.0,0.0,0.0,0.0,0.0,0.0,0.0,0.0,0.0,0.0,0.0,0.0,0.0,0.0,0.0,0.0,0.0,0.0,0.0,0.0,0.0,0.0,0.0,0.0,0.0,0.0,0.0,0.0,0.0,0.0,0.0,0.0,0.0,0.0,0.0,0.0,0.0,0.0,0.0,0.0,0.0,0.0,0.0,0.0,0.0,0.0,0.0,0.0,0.0,0.0,0.0,0.0,0.0,0.0,0.0,0.0,0.0,0.0,0.0,0.0,0.0,0.0,0.0,0.0,0.0,0.0,0.0,0.0,0.0,0.0,0.0,0.0,0.0,0.0,0.0,0.0,0.0,0.0,0.0,0.0,0.0,0.0,0.0,0.0,0.0,0.0,0.0,0.0,0.0,0.0,0.0,0.0,0.0,0.0,-2.6653,-2.7942,-2.9167,-2.963,-2.9804,-3.2642,-3.5736,0.0,0.0,0.0,0.0,0.0,0.0,0.0,0.0,0.0,0.0,0.0,0.0,0.0,0.0,0.0,0.0,0.0,0.0,0.0,0.0,0.0,0.0,0.0,0.0,0.0,0.0,0.0,0.0,0.0,0.0,0.0,0.0,0.0,0.0,0.0,0.0,0.0,0.0,0.0,0.0,0.0,0.0,0.0,0.0,0.0,0.0,0.0,0.0,0.0,0.0,0.0,0.0,0.0,0.0,0.0,0.0,0.0,0.0,0.0,0.0,0.0,0.0,0.0,0.0,0.0,0.0,0.0,0.0,0.0,0.0,0.0,0.0,0.0,0.0,0.0,0.0,0.0,0.0,0.0,0.0,0.0,0.0,0.0,0.0,0.0,0.0,0.0,0.0,0.0,0.0,0.0,0.0,0.0,0.0,0.0,0.0,0.0,0.0,0.0,0.0,0.0,0.0,0.0,0.0,0.0,0.0,0.0,0.0,-2.7158,-2.7812,-2.7722,-2.7767,-2.7982,-3.0836,-3.4504,0.0,0.0,0.0,0.0,0.0,0.0,0.0,0.0,0.0,0.0,0.0,0.0,0.0,0.0,0.0,0.0,0.0,0.0,0.0,0.0,0.0,0.0,0.0,0.0,0.0,0.0,0.0,0.0,0.0,0.0,0.0,0.0,0.0,0.0,0.0,0.0,0.0,0.0,0.0,0.0,0.0,0.0,0.0,0.0,0.0,0.0,0.0,0.0,-6.787,0.0,0.0,0.0,0.0,0.0,0.0,0.0,0.0,0.0,0.0,0.0,0.0,0.0,0.0,0.0,0.0,0.0,0.0,0.0,0.0,0.0,0.0,0.0,0.0,0.0,0.0,0.0,0.0,0.0,0.0,0.0,0.0,0.0,0.0,0.0,0.0,0.0,0.0,0.0,0.0,0.0,0.0,0.0,0.0,0.0,0.0,0.0,0.0,0.0,0.0,0.0,0.0,0.0,0.0,0.0,0.0,0.0,0.0,0.0,-2.8163,-2.8034,-2.8832,-2.8669,-2.7604,-2.9052,-3.2259,0.0,0.0,0.0,0.0,0.0,0.0,0.0,0.0,0.0,0.0,0.0,0.0,0.0,0.0,0.0,0.0,0.0,0.0,0.0,0.0,0.0,0.0,0.0,0.0,0.0,0.0,0.0,0.0,0.0,0.0,0.0,0.0,0.0,0.0,0.0,0.0,0.0,0.0,0.0,0.0,0.0,0.0,0.0,0.0,0.0,0.0,0.0,0.0,0.0,0.0,0.0,0.0,0.0,0.0,0.0,0.0,0.0,0.0,0.0,0.0,0.0,0.0,0.0,0.0,0.0,0.0,0.0,0.0,0.0,0.0,0.0,0.0,0.0,0.0,0.0,0.0,0.0,0.0,0.0,0.0,0.0,0.0,0.0,0.0,0.0,0.0,0.0,0.0,0.0,0.0,0.0,0.0,0.0,0.0,0.0,0.0,0.0,0.0,0.0,0.0,0.0,0.0,0.0,0.0,0.0,0.0,0.0,-2.6136,-2.8695,-2.8114,-3.0079,-2.9912,-2.7727,-2.7474,-2.9836,-3.5192,0.0,0.0,0.0,0.0,0.0,0.0,0.0,0.0,0.0,0.0,0.0,0.0,0.0,0.0,0.0,0.0,0.0,0.0,0.0,0.0,0.0,0.0,0.0,0.0,0.0,0.0,0.0,0.0,0.0,0.0,0.0,0.0,0.0,0.0,0.0,0.0,0.0,0.0,-6.6619,-6.6218,0.0,0.0,0.0,0.0,0.0,0.0,0.0,0.0,-7.0254,0.0,0.0,0.0,0.0,0.0,0.0,0.0,0.0,0.0,0.0,0.0,0.0,0.0,0.0,0.0,0.0,0.0,0.0,0.0,0.0,0.0,0.0,0.0,0.0,0.0,0.0,0.0,0.0,0.0,0.0,0.0,0.0,0.0,0.0,0.0,0.0,0.0,0.0,0.0,0.0,0.0,0.0,0.0,0.0,0.0,0.0,0.0,0.0,0.0,0.0,0.0,0.0,0.0,0.0,0.0,0.0,-2.4485,-2.5799,-2.6758,-2.7549,-2.7467,-2.7318,-2.7157,-2.6448,-2.8868,-3.4531,0.0,0.0,0.0,0.0,0.0,0.0,0.0,0.0,0.0,0.0,0.0,0.0,0.0,0.0,0.0,0.0,0.0,0.0,0.0,0.0,0.0,0.0,0.0,0.0,0.0,0.0,0.0,0.0,0.0,0.0,0.0,0.0,0.0,0.0,0.0,0.0,0.0,0.0,0.0,-6.77,-6.7704,0.0,0.0,0.0,0.0,0.0,0.0,0.0,0.0,-7.0988,0.0,0.0,0.0,0.0,0.0,0.0,0.0,0.0,0.0,0.0,0.0,0.0,0.0,0.0,0.0,0.0,0.0,0.0,0.0,0.0,0.0,0.0,0.0,0.0,0.0,0.0,0.0,0.0,0.0,0.0,0.0,0.0,0.0,0.0,0.0,0.0,0.0,0.0,0.0,0.0,0.0,0.0,0.0,0.0,0.0,0.0,0.0,0.0,0.0,0.0,0.0,0.0,0.0,0.0,0.0,-2.2826,-2.597,-2.7541,-2.7582,-2.8282,-2.8402,-2.7793,-2.7683,-3.0167,0.0,0.0,0.0,0.0,0.0,0.0,0.0,0.0,0.0,0.0,0.0,0.0,0.0,0.0,0.0,0.0,0.0,0.0,0.0,0.0,0.0,0.0,0.0,0.0,0.0,0.0,0.0,0.0,0.0,0.0,0.0,0.0,0.0,0.0,0.0,0.0,0.0,0.0,0.0,0.0,-6.7744,-6.7122,-6.8349,0.0,0.0,0.0,0.0,0.0,0.0,-7.1557,-7.2148,0.0,0.0,0.0,0.0,0.0,0.0,0.0,0.0,0.0,0.0,0.0,0.0,0.0,0.0,0.0,0.0,0.0,0.0,0.0,0.0,0.0,0.0,0.0,0.0,0.0,0.0,0.0,0.0,0.0,0.0,0.0,0.0,0.0,0.0,0.0,0.0,0.0,0.0,0.0,0.0,0.0,0.0,0.0,0.0,0.0,0.0,0.0,0.0,0.0,0.0,0.0,0.0,0.0,0.0,0.0,-2.1666,-2.6306,-2.866,-2.8132,-2.9505,-2.9891,-2.8918,-2.8983,-3.1345,0.0,0.0,0.0,0.0,0.0,0.0,0.0,0.0,0.0,0.0,0.0,0.0,0.0,0.0,0.0,0.0,0.0,0.0,0.0,0.0,0.0,0.0,0.0,0.0,0.0,0.0,0.0,0.0,0.0,0.0,0.0,0.0,0.0,0.0,0.0,0.0,0.0,0.0,0.0,0.0,0.0,-6.6743,-6.7619,-6.8528,0.0,0.0,0.0,0.0,-7.2294,-7.2256,0.0,0.0,0.0,0.0,0.0,0.0,0.0,0.0,0.0,0.0,0.0,0.0,0.0,0.0,0.0,0.0,0.0,0.0,0.0,0.0,0.0,0.0,0.0,0.0,0.0,0.0,0.0,0.0,0.0,0.0,0.0,0.0,0.0,0.0,0.0,0.0,0.0,0.0,0.0,0.0,0.0,0.0,0.0,0.0,0.0,0.0,0.0,0.0,0.0,0.0,0.0,0.0,0.0,0.0,0.0,0.0,-2.5466,-2.6966,-2.8111,-2.9251,-2.9127,-2.9524,-3.0051,-2.8979,-3.0999,0.0,0.0,0.0,0.0,0.0,0.0,0.0,0.0,0.0,0.0,0.0,0.0,0.0,0.0,0.0,0.0,0.0,0.0,0.0,0.0,0.0,0.0,0.0,0.0,0.0,0.0,0.0,0.0,0.0,0.0,0.0,0.0,0.0,0.0,0.0,0.0,0.0,0.0,0.0,0.0,0.0,-6.8048,-6.7703,-6.9003,-6.9871,0.0,0.0,-7.1283,-7.0275,-7.0647,0.0,0.0,0.0,0.0,0.0,0.0,0.0,0.0,0.0,0.0,0.0,0.0,0.0,0.0,0.0,0.0,0.0,0.0,0.0,0.0,0.0,0.0,0.0,0.0,0.0,0.0,0.0,0.0,0.0,0.0,0.0,0.0,0.0,0.0,0.0,0.0,0.0,0.0,0.0,0.0,0.0,0.0,0.0,0.0,0.0,0.0,0.0,0.0,0.0,0.0,0.0,0.0,0.0,0.0,0.0,-2.1965,-2.519,-2.7522,-2.9016,-2.9758,-3.0379,-3.0662,-3.0767,-3.0483,-3.2831,0.0,0.0,0.0,0.0,0.0,0.0,0.0,0.0,0.0,0.0,0.0,0.0,0.0,0.0,0.0,0.0,0.0,0.0,0.0,0.0,0.0,0.0,0.0,0.0,0.0,0.0,0.0,0.0,0.0,0.0,0.0,0.0,0.0,0.0,0.0,0.0,0.0,0.0,0.0,0.0,0.0,0.0,-6.8463,-7.0227,0.0,0.0,0.0,-7.4238,-7.3377,0.0,0.0,0.0,0.0,0.0,0.0,0.0,0.0,0.0,0.0,0.0,0.0,0.0,0.0,0.0,0.0,0.0,0.0,0.0,0.0,0.0,0.0,0.0,0.0,0.0,0.0,0.0,0.0,0.0,0.0,0.0,0.0,0.0,0.0,0.0,0.0,0.0,0.0,0.0,0.0,0.0,0.0,0.0,0.0,0.0,0.0,0.0,0.0,0.0,0.0,0.0,0.0,0.0,0.0,0.0,0.0,0.0,-2.4618,-2.7864,-2.9742,-3.0458,-3.1256,-3.1777,-3.1749,-3.1587,0.0,0.0,0.0,0.0,0.0,0.0,0.0,0.0,0.0,0.0,0.0,0.0,0.0,0.0,0.0,0.0,0.0,0.0,0.0,0.0,0.0,0.0,0.0,0.0,0.0,0.0,0.0,-6.0516,0.0,0.0,0.0,0.0,0.0,0.0,0.0,0.0,0.0,0.0,0.0,0.0,0.0,0.0,-6.9848,-6.9346,-7.1242,-7.2767,0.0,0.0,-7.6313,-7.5807,-7.6228,-7.7036,0.0,0.0,0.0,0.0,0.0,0.0,0.0,0.0,0.0,0.0,0.0,0.0,0.0,0.0,0.0,0.0,0.0,0.0,0.0,0.0,0.0,0.0,0.0,0.0,0.0,0.0,0.0,0.0,0.0,0.0,0.0,0.0,0.0,0.0,0.0,0.0,0.0,0.0,0.0,0.0,0.0,0.0,0.0,0.0,0.0,0.0,0.0,0.0,0.0,0.0,0.0,0.0,0.0,0.0,-2.2472,-2.4573,-2.8033,-3.0203,-3.1285,-3.1349,-3.1957,-3.2919,-3.1412,-3.3756,0.0,0.0,0.0,0.0,0.0,0.0,0.0,0.0,0.0,0.0,0.0,0.0,0.0,0.0,0.0,0.0,0.0,0.0,0.0,0.0,0.0,0.0,0.0,0.0,0.0,0.0,0.0,0.0,0.0,0.0,0.0,0.0,0.0,0.0,0.0,0.0,0.0,0.0,0.0,0.0,0.0,-7.0637,-7.006,-7.1516,-7.2727,0.0,-7.4403,-7.5582,-7.5227,-7.6538,-7.7924,-7.9037,0.0,0.0,0.0,0.0,0.0,0.0,0.0,0.0,0.0,0.0,0.0,0.0,0.0,0.0,0.0,0.0,0.0,0.0,0.0,0.0,0.0,0.0,0.0,0.0,0.0,0.0,0.0,0.0,0.0,0.0,0.0,0.0,0.0,0.0,0.0,0.0,0.0,0.0,0.0,0.0,0.0,0.0,0.0,0.0,0.0,0.0,0.0,0.0,0.0,0.0,0.0,0.0,0.0,-2.3893,-2.7333,-3.0078,-3.1836,-3.2055,-3.2637,-3.296,-3.2986,-3.3725,-3.591,0.0,0.0,0.0,0.0,0.0,0.0,0.0,0.0,0.0,0.0,0.0,0.0,0.0,0.0,0.0,0.0,0.0,0.0,0.0,0.0,0.0,0.0,0.0,0.0,0.0,0.0,0.0,0.0,-6.2765,-6.3616,-6.5017,0.0,0.0,0.0,0.0,0.0,0.0,0.0,0.0,0.0,0.0,-7.4328,-7.3754,-7.5111,0.0,0.0,-7.7944,-7.8783,-7.8492,-8.0135,-8.1608,-8.2251,-8.3763,0.0,0.0,0.0,0.0,0.0,0.0,0.0,0.0,0.0,0.0,0.0,0.0,0.0,0.0,0.0,0.0,0.0,0.0,0.0,0.0,0.0,0.0,0.0,0.0,0.0,0.0,0.0,0.0,0.0,0.0,0.0,0.0,0.0,0.0,0.0,0.0,0.0,0.0,0.0,0.0,0.0,0.0,0.0,0.0,0.0,0.0,0.0,0.0,0.0,0.0,0.0,0.0,-2.4544,-2.8318,-3.1145,-3.2663,-3.2742,-3.3559,-3.3641,-3.3133,-3.438,-3.6817,0.0,0.0,0.0,0.0,0.0,0.0,0.0,0.0,0.0,0.0,0.0,0.0,0.0,0.0,0.0,0.0,0.0,0.0,0.0,0.0,0.0,0.0,0.0,0.0,0.0,0.0,0.0,0.0,-6.3093,-6.3851,-6.6234,0.0,0.0,0.0,0.0,0.0,0.0,0.0,0.0,0.0,0.0,-7.6639,-7.6356,-7.7752,-7.9072,-7.9595,-8.0713,-8.1599,-8.1741,-8.3281,-8.4616,-8.546,0.0,0.0,0.0,0.0,0.0,0.0,0.0,0.0,0.0,0.0,0.0,0.0,0.0,0.0,0.0,0.0,0.0,0.0,0.0,0.0,0.0,0.0,0.0,0.0,0.0,0.0,0.0,3.7822,0.0,0.0,3.5162,0.0,0.0,0.0,0.0,0.0,0.0,0.0,0.0,0.0,0.0,0.0,0.0,0.0,0.0,0.0,0.0,0.0,0.0,0.0,0.0,0.0,0.0,-2.4229,-2.684,-3.0665,-3.2768,-3.3029,-3.3678,-3.3734,-3.3414,-3.3332,-3.5782,-4.1599,0.0,0.0,0.0,0.0,0.0,0.0,0.0,0.0,0.0,0.0,0.0,0.0,0.0,0.0,0.0,0.0,0.0,0.0,0.0,0.0,0.0,0.0,0.0,0.0,0.0,0.0,-6.3372,-6.4162,-6.5301,0.0,0.0,0.0,0.0,0.0,0.0,0.0,0.0,0.0,0.0,-7.625,-7.687,-7.7392,-7.875,-8.0021,-8.0399,-8.189,-8.3371,-8.4573,-8.5292,-8.6361,0.0,0.0,0.0,0.0,0.0,0.0,0.0,0.0,0.0,0.0,0.0,0.0,0.0,0.0,0.0,0.0,0.0,0.0,0.0,0.0,0.0,0.0,0.0,0.0,0.0,0.0,0.0,4.0688,3.99,0.0,0.0,0.0,0.0,0.0,0.0,0.0,0.0,0.0,0.0,0.0,1.27,1.0698,0.0,0.0,0.0,0.0,0.0,0.0,0.0,0.0,0.0,0.0,0.0,0.0,-2.5569,-2.9447,-3.1997,-3.325,-3.3341,-3.3784,-3.3841,-3.3721,-3.6375,-4.0432,-4.614,0.0,0.0,0.0,0.0,0.0,0.0,0.0,0.0,0.0,0.0,0.0,0.0,0.0,0.0,0.0,0.0,0.0,0.0,0.0,0.0,0.0,0.0,0.0,0.0,0.0,-6.4359,0.0,0.0,0.0,0.0,0.0,0.0,0.0,0.0,0.0,0.0,0.0,-7.5814,-7.6327,-7.8392,-7.9843,-7.9768,-8.1067,-8.2275,0.0,0.0,0.0,0.0,0.0,0.0,0.0,0.0,0.0,0.0,0.0,0.0,0.0,0.0,-8.8691,-8.9911,-9.0866,-9.1489,-9.1365,0.0,0.0,0.0,0.0,0.0,0.0,0.0,0.0,0.0,0.0,0.0,0.0,0.0,0.0,4.1283,0.0,3.755,0.0,0.0,0.0,0.0,0.0,0.0,0.0,0.0,1.5313,1.271,1.1392,0.9204,0.8267,0.0,0.5884,0.3878,0.0,0.0,0.0,0.0,0.0,0.0,0.0,0.0,-2.508,-2.9891,-3.1569,-3.2684,-3.3628,-3.3984,-3.4395,-3.5083,-3.921,-4.3061,-4.6403,-4.6966,-4.7049,0.0,0.0,0.0,0.0,0.0,0.0,0.0,0.0,0.0,0.0,0.0,0.0,0.0,0.0,0.0,0.0,0.0,0.0,0.0,0.0,0.0,0.0,0.0,-6.6315,0.0,0.0,0.0,0.0,0.0,0.0,0.0,0.0,0.0,-7.4447,-7.6054,-7.7546,-7.8311,-8.0121,-8.1449,-8.1647,0.0,0.0,0.0,0.0,0.0,0.0,0.0,-8.9935,-8.9387,-9.0901,-9.2388,-9.2985,-9.2518,-9.234,-9.3287,0.0,0.0,-9.0934,-9.1721,-9.2449,-9.2171,-9.1949,-9.1976,-9.2496,-9.2731,-9.2888,0.0,0.0,0.0,0.0,0.0,0.0,0.0,0.0,4.3151,4.1518,0.0,3.8044,0.0,0.0,0.0,0.0,0.0,2.2727,0.0,0.0,1.2337,0.9936,0.9608,0.7566,0.637,0.6425,0.4144,0.1857,-0.0,-0.0395,0.0,0.0,0.0,0.0,0.0,0.0,-2.3081,-2.808,-2.9342,-3.1267,-3.3876,-3.4236,-3.517,-3.7095,-4.1212,-4.3221,-4.3053,-4.6241,-4.8235,-4.8888,-5.0741,0.0,0.0,0.0,0.0,0.0,0.0,0.0,0.0,0.0,0.0,0.0,0.0,0.0,0.0,0.0,0.0,0.0,0.0,0.0,0.0,-6.8548,0.0,0.0,0.0,0.0,0.0,0.0,0.0,0.0,0.0,0.0,-7.6792,-7.7525,-7.889,-8.1109,0.0,0.0,0.0,0.0,-8.4145,-8.4527,-8.5417,-8.6465,-8.7704,-8.8243,-8.9018,-9.034,0.0,0.0,-9.6399,-9.5726,-9.5414,-9.7821,-9.7542,-9.5519,-9.0213,-9.0852,-9.1898,-9.2109,-9.291,-9.3289,-9.2873,-9.3361,-9.3606,5.0681,0.0,0.0,0.0,0.0,4.885,4.8254,4.7028,4.3976,4.2417,4.216,3.8341,0.0,0.0,0.0,0.0,0.0,0.0,2.0508,1.6439,1.4756,1.2695,1.0004,0.7758,0.6736,0.6544,0.2763,0.0639,-0.0212,-0.3596,-0.6621,-0.9555,0.0,0.0,0.0,0.0,-2.3574,-2.8756,-2.9306,-3.0962,-3.4029,-3.4162,-3.597,-3.9923,-4.2741,-4.4685,-4.6179,-4.679,-4.7479,-4.8643,-4.9121,0.0,0.0,0.0,0.0,0.0,0.0,0.0,0.0,0.0,0.0,0.0,0.0,0.0,0.0,0.0,0.0,0.0,0.0,0.0,-7.0594,-7.12,-7.1727,0.0,0.0,0.0,0.0,0.0,0.0,0.0,0.0,0.0,-7.9925,-7.9874,-8.0534,0.0,0.0,-8.338,-8.4516,-8.5128,-8.5706,-8.6132,-8.6792,0.0,-8.7983,-8.9568,-9.052,-9.0225,-9.1338,-9.3248,-9.6003,-9.642,-9.7009,-9.8854,-9.8987,-9.8159,-9.6366,-9.5709,-9.5465,-9.464,-9.4607,-9.4652,-9.4315,-9.439,-9.4705,4.9192,4.8129,4.8866,4.8941,4.8634,4.8911,4.8796,4.8109,4.4304,4.2703,4.2632,3.8505,3.6653,3.6638,3.2871,0.0,0.0,0.0,2.0181,1.5705,1.4892,1.315,1.0183,0.7036,0.5567,0.5373,0.0865,-0.1519,-0.1519,-0.5246,-0.819,-0.9991,0.0,0.0,-1.8993,-2.0269,-2.3063,-2.76,-2.8679,-3.0677,-3.3862,-3.548,-3.7888,-4.0991,-4.3563,-4.5647,-4.7204,-4.658,-4.6611,-4.7535,-4.7943,-4.9379,0.0,0.0,0.0,0.0,0.0,0.0,0.0,0.0,0.0,0.0,0.0,-6.6552,-6.7461,0.0,0.0,0.0,-7.0392,-7.1926,-7.2444,-7.3575,0.0,0.0,0.0,0.0,0.0,0.0,0.0,-7.9245,-7.9862,-8.0675,-8.2211,-8.2163,-8.2423,-8.3702,-8.403,-8.4391,-8.5216,0.0,-8.6553,-8.6929,-8.7393,-8.7913,-8.8149,-8.9629,-9.0917,-9.1541,-9.3302,-9.5268,-9.7304,-9.8423,-9.9516,-10.0595,-10.0971,-10.0908,-10.0624,-10.0248,-9.9288,-9.7273,-9.6783,-9.6682,-9.6404,-9.6561,-9.6992,4.7598,4.7422,4.9028,4.9322,4.8736,4.8605,4.855,4.8273,4.4335,4.243,4.1934,3.8261,3.5817,3.4145,3.1885,0.0,2.4689,2.222,1.9091,1.5301,1.3613,1.1982,1.0144,0.5607,0.3465,0.3495,-0.1313,-0.3506,-0.3947,-0.6174,-0.8581,-1.0686,-1.2966,-1.5189,-1.7623,-1.9869,-2.2302,-2.4816,-2.8037,-3.0692,-3.304,-3.7791,-4.0419,-4.0721,-4.4237,-4.6213,-4.6544,-4.6177,-4.5938,-4.5938,-4.7345,-4.9611,-5.3016,0.0,0.0,0.0,0.0,0.0,0.0,0.0,0.0,0.0,0.0,0.0,0.0,0.0,0.0,-7.1075,-7.2915,0.0,-7.3397,-7.5684,0.0,0.0,0.0,-7.8454,-7.7884,-7.7603,-7.8445,-8.0941,0.0,0.0,-8.3788,-8.4121,-8.435,-8.4864,-8.4924,-8.5077,-8.5575,-8.6541,-8.7108,-8.7179,-8.7852,-8.8444,-8.877,-8.973,-9.1348,-9.378,-9.6214,-9.8166,-9.9843,-10.1237,-10.244,-10.3182,-10.3411,-10.3512,-10.364,-10.3618,-10.298,-10.0264,-9.9513,-9.926,-9.8997,-9.9319,-9.963,4.6925,4.5311,4.5602,4.6636,4.78,4.6638,4.6257,4.6204,4.2563,4.1048,4.0545,3.8369,3.4771,3.0045,2.9291,2.6348,2.1854,1.9969,1.7669,1.557,1.3863,1.2158,1.024,0.5658,0.3497,0.3085,-0.1324,-0.443,-0.6456,-0.8634,-1.0799,-1.3185,-1.5476,-1.6805,-1.7643,-2.01,-2.257,-2.5467,-2.7835,-3.0399,-3.3395,-3.8319,-4.1023,-4.1103,-4.5165,-4.7314,-4.7406,-4.6709,-4.6342,-4.6324,-4.7915,-4.925,-5.0357,-5.5018,0.0,0.0,0.0,0.0,0.0,0.0,0.0,0.0,0.0,-6.8733,-6.9489,0.0,-7.2748,0.0,-7.5645,-7.6618,-7.486,-7.7317,0.0,0.0,-7.7769,-7.8518,-7.9679,-7.9778,-8.0482,-8.241,-8.2781,-8.3392,-8.4712,-8.5111,-8.5513,-8.6455,-8.6038,-8.5959,-8.6896,-8.7975,-8.8642,-8.8728,-8.94,-9.0255,-9.0871,-9.246,-9.4175,-9.6031,-9.761,-9.9486,-10.2106,-10.2848,-10.3542,-10.4785,-10.5074,-10.5218,-10.5365,-10.5454,-10.5311,-10.4677,-10.3137,-10.1693,-10.1332,-10.0918,-10.0845,4.7774,4.5645,4.5645,4.5553,4.5574,4.4311,4.4204,4.4565,4.1686,4.0174,3.9803,3.6608,3.2993,2.925,2.751,2.4846,2.1489,1.9333,1.7358,1.5582,1.3707,1.1542,0.8685,0.5227,0.2845,0.1759,-0.1762,-0.4865,-0.7123,-0.9517,-1.1695,-1.4108,-1.7317,-1.9029,-1.9051,-2.1283,-2.3952,-2.7042,-2.9488,-3.2219,-3.5307,-3.8948,-4.1593,-4.3054,-4.5805,-4.7979,-4.8899,-4.8132,-4.8139,-4.9052,-4.9728,-5.0905,-5.259,-5.5686,-5.8196,0.0,0.0,0.0,0.0,0.0,0.0,0.0,0.0,0.0,0.0,0.0,-7.4263,-7.559,-7.6951,-7.7493,-7.6792,-7.8409,-7.9462,-7.9219,-7.9365,-8.0034,-8.1175,-8.1001,-8.1531,-8.3466,-8.3466,-8.3943,-8.547,-8.5871,-8.6304,-8.7082,-8.7109,-8.7266,-8.762,-8.8542,-8.932,-8.9728,-9.0516,-9.1538,-9.2576,-9.4139,-9.5773,-9.7348,-9.9403,-10.1609,-10.3643,-10.4888,-10.5878,-10.6629,-10.6832,-10.6728,-10.6537,-10.6515,-10.6528,-10.6165,-10.5249,-10.4286,-10.3833,-10.3104,-10.2731,4.8576,4.6598,4.6193,4.4622,4.2335,4.1699,4.1975,4.2741,4.0639,3.9303,3.8324,3.3881,3.0963,2.9306,2.6174,2.3871,2.1771,1.9178,1.6955,1.5129,1.3078,1.0461,0.6932,0.4359,0.1969,-0.0,-0.263,-0.5279,-0.753,-0.9943,-1.2344,-1.496,-1.9066,-2.1144,-2.1635,-2.3713,-2.6143,-2.9157,-3.2131,-3.4898,-3.7563,-3.9672,-4.2146,-4.5048,-4.668,-4.8413,-5.0493,-5.0145,-5.0653,-5.2397,-5.2556,-5.3772,-5.6685,-5.6925,-5.9182,0.0,-6.4424,0.0,0.0,0.0,0.0,0.0,0.0,0.0,0.0,-7.4021,-7.5754,-7.7129,-7.761,-7.803,-7.8486,-7.9212,-7.9964,-8.0616,-8.1302,-8.1913,-8.246,-8.1973,-8.2315,-8.4455,-8.394,-8.4214,-8.5955,-8.6662,-8.7026,-8.7325,-8.8208,-8.8575,-8.8334,-8.9022,-8.9856,-9.0462,-9.1607,-9.3049,-9.4102,-9.5442,-9.6981,-9.8598,-10.1195,-10.3776,-10.4816,-10.6678,-10.8131,-10.8131,-10.8054,-10.7875,-10.7208,-10.7158,-10.7027,-10.6391,-10.6169,-10.6139,-10.594,-10.524,-10.4736,4.6404,4.4246,4.2476,4.0275,3.8022,3.7702,3.8553,4.0,3.7702,3.5716,3.4056,3.2628,2.9921,2.6165,2.5292,2.2779,1.9301,1.7319,1.5545,1.3759,1.0012,0.7795,0.6893,0.2653,0.0443,-0.0223,-0.4427,-0.7754,-1.0039,-1.2392,-1.5579,-1.9363,-2.071,-2.3135,-2.6442,0.0,0.0,0.0,-3.4882,-3.6803,-3.7461,-4.1457,-4.3937,-4.4755,-4.7489,0.0,-5.005,-5.1449,-5.2661,-5.3487,-5.5657,0.0,0.0,0.0,0.0,0.0,0.0,0.0,0.0,0.0,0.0,0.0,-7.2055,-7.2847,-7.2087,-7.4789,-7.5897,-7.4436,-7.7999,-7.9893,-7.8313,-8.0366,-8.1654,-8.1609,-8.1772,-8.2308,-8.3474,-8.3821,-8.4581,-8.5991,-8.5823,-8.5786,-8.6329,-8.7176,-8.7987,-8.8021,-8.9074,-8.9783,-8.9774,-9.0474,-9.1176,-9.1514,-9.3613,-9.5413,-9.5789,-9.7616,-9.9485,-10.1443,-10.2923,-10.459,-10.6144,-10.7342,-10.8207,-10.8246,-10.8207,-10.8028,-10.7246,-10.7197,-10.7135,-10.6348,-10.6322,-10.6526,-10.686,-10.625,-10.5765,4.5048,0.0,4.189,3.9903,0.0,3.6774,3.7069,3.7707,3.6532,3.4716,3.2561,2.9808,2.7319,2.5042,2.2883,2.0701,1.8515,1.5856,1.3601,1.155,0.8674,0.5984,0.3517,0.1099,-0.0658,-0.175,-0.5264,-0.8362,-1.0596,-1.3012,-1.6045,-1.9677,-2.1823,-2.4404,-2.6805,-2.9244,-3.1251,-3.2441,-3.4179,-3.6378,-3.8872,-4.1264,-4.4038,-4.6605,-4.8637,0.0,0.0,0.0,0.0,0.0,0.0,0.0,0.0,0.0,0.0,-6.5349,-6.8146,-6.9862,-6.9643,-7.0734,-7.1244,-7.1193,-7.2686,-7.3539,-7.3367,-7.5429,-7.6577,-7.6274,-7.9088,-8.0776,-8.0618,-8.173,-8.266,-8.3343,-8.3408,-8.3662,-8.391,-8.4967,-8.5486,-8.5289,-8.6096,-8.6846,-8.6846,-8.8004,-8.8752,-8.8822,-8.994,-9.0722,-9.0783,-9.1219,-9.1907,-9.3258,-9.5322,-9.7154,-9.7904,-9.9275,-10.1002,-10.2682,-10.3965,-10.5365,-10.7228,-10.8246,-10.8933,-10.9315,-10.943,-10.9213,-10.846,-10.8327,-10.8239,-10.7564,-10.7466,-10.776,-10.8151,-10.6794,-10.5571,4.4276,4.2166,4.1974,4.0401,3.7823,3.6966,3.6093,3.5609,0.0,0.0,0.0,2.6569,2.4502,2.3771,2.0324,1.8295,1.7626,1.4747,1.1803,0.929,0.7308,0.418,-0.0,-0.0436,-0.1736,-0.4073,-0.6507,-0.894,-1.1334,-1.3638,-1.6319,-1.9102,-2.301,-2.5541,-2.7155,-3.0822,-3.2815,-3.2986,-3.3858,-3.6341,-4.0522,-4.157,-4.4186,-4.8763,-4.9736,-5.0796,-5.1858,-5.4896,-5.7122,-5.821,-5.9815,-6.1219,-6.1911,-6.389,-6.5117,-6.5247,-6.8271,-7.0186,-7.0529,-7.0959,-7.1596,-7.2308,-7.351,-7.4336,-7.5078,-7.6155,-7.7373,-7.8549,-7.9583,-8.083,-8.2461,-8.2771,-8.3309,-8.4753,-8.502,-8.4871,-8.4226,-8.5259,-8.5641,-8.4674,-8.6015,-8.7401,-8.7639,-8.8701,-8.9588,-8.9792,-9.0612,-9.1494,-9.1618,-9.2127,-9.3175,-9.529,-9.713,-9.8639,-9.976,-10.0848,-10.1972,-10.3491,-10.4778,-10.6206,-10.7762,-10.901,-10.985,-11.0423,-11.0691,-11.0271,-10.9583,-10.9377,-10.9371,-10.8746,-10.8645,-10.8875,-10.9248,-10.7377,-10.596,4.298,4.253,4.068,3.9005,3.7392,3.7181,3.5324,3.2324,3.2275,2.9945,2.593,2.5071,2.29,1.964,1.8964,1.6962,1.4081,1.3637,1.1398,0.0,0.5141,0.2679,-0.0,-0.1981,-0.4149,-0.653,-0.8929,-1.1329,-1.3517,-1.6144,-1.8565,-2.1317,-2.399,-2.7742,-3.1845,-3.2775,-3.3789,-3.5514,-3.7976,-3.9976,-4.1256,-4.4453,-4.6893,-4.8286,-5.0261,-5.1317,-5.1142,-5.5875,-5.8448,-5.8235,-6.0898,-6.2346,-6.2521,-6.394,-6.5157,-6.6298,-6.8705,-7.0407,-7.1147,-7.2826,-7.4257,-7.5008,-7.5382,-7.549,-7.5687,-7.6425,-7.6814,-7.7234,-7.843,-7.9697,-8.1165,-8.2771,-8.3779,-8.4211,-8.5122,-8.5327,-8.4203,-8.474,-8.5583,-8.6072,-8.6586,-8.7356,-8.8364,-8.9361,-9.0152,-9.0458,-9.1246,-9.2168,-9.2848,-9.3875,-9.5234,-9.6996,-9.9044,-10.0462,-10.1418,-10.2534,-10.364,-10.4457,-10.5918,-10.713,-10.8157,-10.9392,-11.0347,-11.0653,-11.0691,-11.0385,-10.9621,-10.9492,-10.9409,-10.8891,-10.8875,-10.9069,-10.977,-10.8723,-10.8297,4.0846,4.0484,3.9231,3.8211,3.749,3.5563,3.227,2.808,2.7865,2.6857,2.4777,2.2497,2.0536,1.885,1.6773,1.4969,1.3415,1.253,0.9624,0.5373,0.4012,0.1553,-0.1769,-0.3075,-0.4787,-0.7324,-0.9809,-1.2462,-1.5026,-1.7404,-2.0054,-2.2671,-2.6241,-2.9888,-3.3227,-3.328,-3.4193,-3.6348,-3.7598,-3.9755,-4.2443,-4.4685,-4.6878,-4.9433,-5.0928,-5.1942,-5.2757,-5.6554,-5.8623,-5.8655,-6.1161,-6.26,-6.26,-6.485,-6.6525,-6.7194,-7.0012,-7.1841,-7.2367,-7.3756,-7.4955,-7.6178,-7.6208,-7.6555,-7.7472,-7.7412,-7.7605,-7.8413,-7.9376,-8.0772,-8.2513,-8.3418,-8.414,-8.4588,-8.5115,-8.5074,-8.4381,-8.5188,-8.5965,-8.6353,-8.7532,-8.86,-8.9088,-9.0054,-9.0848,-9.1189,-9.1805,-9.2575,-9.3191,-9.5071,-9.6724,-9.7741,-9.9811,-10.1759,-10.29,-10.4241,-10.5322,-10.6009,-10.677,-10.77,-10.855,-10.9621,-11.0118,-11.0576,-11.0691,-11.0538,-11.0118,-11.0169,-11.0077,-11.0079,-10.9981,-11.0302,-11.0769,-11.0632,-11.0238,3.8937,3.8706,3.8282,3.7659,3.6298,3.3035,2.8941,2.4854,2.4201,2.3846,2.3286,2.0103,1.8579,1.7996,1.4786,1.3192,1.2525,1.0747,0.7613,0.3804,0.3113,0.0442,-0.3294,-0.3725,-0.5419,-0.8552,-1.0645,-1.3331,-1.6328,-1.8423,-2.1067,-2.4186,-2.8409,-3.1363,-3.3414,-3.3414,-3.4585,-3.7145,-3.7401,-3.9567,-4.3477,-4.4719,-4.7004,-5.0202,-5.1158,-5.2539,-5.4259,-5.6817,-5.8449,-5.8935,-6.1097,-6.2456,-6.2775,-6.5564,-6.7506,-6.8228,-7.1295,-7.3518,-7.3999,-7.4687,-7.5685,-7.7033,-7.7238,-7.7796,-7.8943,-7.8789,-7.8708,-7.9589,-8.0034,-8.1138,-8.2591,-8.3412,-8.3833,-8.4219,-8.4474,-8.4249,-8.3767,-8.5056,-8.6164,-8.6192,-8.8048,-8.9601,-9.0054,-9.0676,-9.1334,-9.1743,-9.232,-9.2919,-9.3519,-9.583,-9.7801,-9.8917,-10.0833,-10.3019,-10.4459,-10.5507,-10.6413,-10.7123,-10.7394,-10.8062,-10.8979,-10.9455,-10.9927,-11.0538,-11.0691,-11.0653,-11.0691,-11.0653,-11.0716,-11.0798,-11.0948,-11.1305,-11.1702,-11.1518,-11.1251,3.7969,3.7955,3.7913,3.6234,3.3324,3.0105,2.7228,2.4636,2.269,2.0725,1.9419,1.8964,1.7853,1.6311,1.4309,1.253,1.0974,0.851,0.6046,0.3583,0.1343,-0.1337,-0.4202,-0.4391,-0.6954,-1.0965,-1.2058,-1.4491,-1.8481,-1.9282,-2.1855,-2.6093,-2.8997,-3.1428,-3.3227,-3.3427,-3.538,-3.9283,-3.9779,-4.1293,-4.3854,-4.627,-4.8266,-4.9838,-5.1487,-5.2703,-5.3851,-5.666,-5.8299,-5.8959,-6.0739,-6.2095,-6.2901,-6.5564,-6.7854,-6.8778,-7.1898,-7.4618,-7.5959,-7.6587,-7.7268,-7.833,-7.8686,-7.9366,-8.0464,-8.0524,-7.9956,-7.949,-7.9332,-7.99,-8.0139,-8.1683,-8.2285,-8.1943,-8.2717,-8.295,-8.2458,-8.338,-8.4819,-8.6349,-8.8001,-8.9389,-9.0394,-9.1092,-9.1506,-9.2119,-9.2875,-9.3425,-9.3869,-9.6612,-9.9042,-10.036,-10.2573,-10.4541,-10.5781,-10.616,-10.6725,-10.7044,-10.7767,-10.8517,-10.9198,-10.9924,-11.0653,-11.0576,-11.0691,-11.0691,-11.0691,-11.0691,-11.0742,-11.0951,-11.1209,-11.149,-11.1427,-11.1084,-11.0822,3.7237,3.7237,3.6813,3.4154,3.0366,2.877,2.6136,2.269,2.1814,2.0278,1.8736,1.7626,1.6071,1.4525,1.2752,1.142,1.0528,0.8287,0.5596,0.2909,0.0672,-0.2008,-0.4871,-0.636,-0.8898,-1.2258,-1.3957,-1.655,-1.9851,-2.2761,-2.5279,-2.7183,-3.0636,-3.312,-3.3948,-3.5125,-3.7221,-3.9794,-4.1916,-4.3957,-4.6089,-4.7047,-4.83,-5.0009,-5.1826,-5.3688,-5.5445,-5.7672,-5.928,-6.019,-6.1202,-6.2369,-6.3718,-6.6586,-6.8857,-7.061,-7.3225,-7.5305,-7.6433,-7.6911,-7.7649,-7.9097,-7.9634,-8.008,-8.0764,-8.0823,-8.0701,-8.0368,-8.0062,-7.9928,-7.9668,-8.0618,-8.1293,-8.1186,-8.1597,-8.1922,-8.2282,-8.3351,-8.4819,-8.6762,-8.8182,-8.9347,-9.0566,-9.1265,-9.1885,-9.2538,-9.3261,-9.3776,-9.4438,-9.7551,-10.0075,-10.149,-10.4181,-10.6325,-10.7068,-10.7503,-10.7825,-10.8226,-10.8765,-10.9314,-10.9675,-11.0176,-11.0691,-11.0691,-11.0691,-11.0691,-11.0691,-11.0691,-11.0742,-11.1008,-11.1539,-11.1836,-11.1305,-11.0808,-11.0618,3.6439,3.6229,3.5388,3.1911,2.735,2.734,2.4947,2.1456,2.1238,1.9921,1.7944,1.662,1.4641,1.2675,1.1394,1.0751,1.0528,0.7613,0.4918,0.2453,-0.0446,-0.311,-0.5498,-0.7852,-1.0375,-1.3072,-1.5393,-1.8179,-2.1635,-2.5311,-2.76,-2.8711,-3.2123,-3.4068,-3.4272,-3.6262,-3.8124,-4.0102,-4.295,-4.5434,-4.7147,-4.7338,-4.8481,-5.134,-5.2968,-5.515,-5.7866,-5.9273,-6.0513,-6.1422,-6.1807,-6.2908,-6.5068,-6.748,-6.9985,-7.2534,-7.4583,-7.5969,-7.6583,-7.7207,-7.8241,-7.9601,-8.0347,-8.0765,-8.1063,-8.1063,-8.1031,-8.1051,-8.0834,-8.0283,-7.9547,-8.0017,-8.0433,-8.0494,-8.0463,-8.1061,-8.1783,-8.2907,-8.4388,-8.6445,-8.7554,-8.8981,-9.0433,-9.1332,-9.2123,-9.3125,-9.3711,-9.4298,-9.5582,-9.8456,-10.114,-10.2195,-10.5336,-10.7405,-10.7893,-10.8254,-10.8877,-10.9114,-10.9321,-10.9591,-11.0018,-11.0335,-11.0639,-11.0639,-11.0691,-11.0691,-11.0691,-11.0691,-11.0864,-11.1295,-11.1714,-11.1806,-11.1043,-11.0655,-11.0041,3.5191,3.498,3.281,2.9236,2.4766,2.4776,2.3376,2.0913,2.0897,1.894,1.6137,1.5698,1.3744,1.0741,1.0444,1.0747,1.0074,0.5813,0.334,0.221,-0.1993,-0.4833,-0.6052,-0.8409,-1.0934,-1.383,-1.6131,-1.9338,-2.3471,-2.6005,-2.8275,-3.0322,-3.2428,-3.3494,-3.3748,-3.5749,-3.7598,-4.0027,-4.263,-4.4667,-4.6596,-4.7366,-4.9824,-5.4151,-5.543,-5.7153,-6.0342,-6.1028,-6.1556,-6.248,-6.2456,-6.3717,-6.6152,-6.797,-7.0637,-7.4366,-7.5772,-7.6583,-7.7207,-7.7944,-7.904,-8.0169,-8.1093,-8.1721,-8.1631,-8.1572,-8.1389,-8.0629,-8.0767,-8.0447,-7.9524,-7.9866,-7.9742,-7.8943,-7.9378,-7.9871,-8.0307,-8.1729,-8.3188,-8.4937,-8.6466,-8.8248,-9.0325,-9.1425,-9.253,-9.3501,-9.4268,-9.5206,-9.6621,-9.9127,-10.1442,-10.3388,-10.5398,-10.736,-10.8391,-10.8742,-10.878,-10.8915,-10.9244,-10.9459,-10.9727,-11.0018,-11.0335,-11.0587,-11.0691,-11.0691,-11.0691,-11.0864,-11.1077,-11.1345,-11.1594,-11.143,-11.0615,-11.0525,-10.9785,3.4332,3.2823,3.196,2.9023,2.4756,2.4532,2.3144,2.107,2.0848,1.8467,1.5008,1.4576,1.2201,0.8307,0.8355,0.8818,0.9038,0.4186,0.154,0.0658,-0.3512,-0.6566,-0.8908,-1.1004,-1.3306,-1.5811,-1.8049,-2.0745,-2.3512,-2.612,-2.8264,-3.0576,-3.2916,-3.3988,-3.4585,-3.7554,-3.973,-4.1129,-4.4692,-4.7406,-4.8576,-4.9492,-5.1597,-5.4901,-5.5129,-5.6144,-5.8751,-6.0293,-6.137,-6.1885,-6.2396,-6.3645,-6.5968,-6.8341,-7.0988,-7.3873,-7.4953,-7.6118,-7.8021,-7.9067,-8.0138,-8.1298,-8.1691,-8.1751,-8.1691,-8.1719,-8.1533,-8.1341,-8.1288,-8.0963,-8.0479,-8.0234,-7.9724,-7.9089,-7.9326,-7.9662,-7.9906,-8.0678,-8.1976,-8.411,-8.6399,-8.8812,-9.0152,-9.1391,-9.267,-9.4062,-9.5005,-9.6046,-9.7463,-9.9873,-10.2135,-10.3667,-10.5785,-10.7777,-10.8643,-10.878,-10.878,-10.8915,-10.9076,-10.9397,-10.9667,-10.9961,-11.0243,-11.0639,-11.0691,-11.0691,-11.0691,-11.0754,-11.107,-11.126,-11.1455,-11.1183,-11.0126,-11.007,-10.9065,3.2823,3.0656,2.972,2.7194,2.3591,2.309,2.2113,2.0481,1.9387,1.7029,1.4028,1.2736,1.0375,0.7365,0.6718,0.6502,0.6505,0.2613,0.0218,-0.1087,-0.4352,-0.7602,-1.0371,-1.2661,-1.4756,-1.708,-1.9943,-2.2581,-2.4647,-2.7036,-2.9372,-3.1463,-3.3311,-3.4476,-3.5942,-3.9136,-4.1356,-4.3282,-4.6712,-4.9242,-4.9915,-5.0571,-5.2394,-5.4843,-5.5226,-5.613,-5.8549,-6.0718,-6.2051,-6.2299,-6.2616,-6.3864,-6.6245,-6.9056,-7.1609,-7.334,-7.3813,-7.5144,-7.7674,-7.8762,-7.9749,-8.1241,-8.1482,-8.1392,-8.1331,-8.1175,-8.1136,-8.141,-8.1359,-8.1061,-8.0863,-8.0477,-7.9934,-7.914,-7.8994,-7.9171,-7.9252,-7.9792,-8.1207,-8.3498,-8.6605,-8.8805,-9.014,-9.1206,-9.2665,-9.4514,-9.5352,-9.6387,-9.8078,-10.0267,-10.2442,-10.3843,-10.5938,-10.7554,-10.8466,-10.878,-10.8742,-10.881,-10.8982,-10.927,-10.953,-10.9827,-11.0204,-11.0549,-11.0691,-11.0691,-11.0742,-11.0793,-11.0913,-11.1115,-11.1343,-11.1299,-11.038,-10.9614,-10.849,3.0453,2.8274,2.5703,2.36,2.1292,2.0505,1.9883,1.912,1.6761,1.4663,1.256,1.0416,0.8525,0.6608,0.5343,0.4052,0.2566,0.1081,-0.065,-0.2586,-0.4957,-0.7717,-1.0632,-1.251,-1.5036,-1.7363,-2.1527,-2.4628,-2.667,-2.8744,-3.1012,-3.2825,-3.3266,-3.4834,-3.7805,-3.9818,-4.2519,-4.5204,-4.8132,-4.9492,-4.9435,-5.0219,-5.2323,-5.5517,-5.6094,-5.769,-6.0822,-6.2884,-6.3771,-6.3759,-6.3394,-6.4527,-6.7042,-6.9816,-7.2125,-7.245,-7.2801,-7.398,-7.629,-7.6838,-7.784,-7.9635,-8.0347,-8.0554,-8.0604,-8.0478,-8.0577,-8.0597,-8.0523,-8.0387,-8.0309,-8.0304,-7.9986,-7.8808,-7.8642,-7.8526,-7.869,-7.9006,-8.0149,-8.3108,-8.6233,-8.8509,-8.9703,-9.0878,-9.2477,-9.4397,-9.547,-9.6525,-9.836,-10.047,-10.2406,-10.4146,-10.5822,-10.7402,-10.8144,-10.878,-10.8742,-10.8705,-10.8877,-10.9076,-10.9356,-10.9638,-10.9959,-11.0306,-11.0653,-11.0653,-11.0691,-11.0754,-11.0807,-11.0935,-11.1181,-11.0954,-10.9975,-10.8939,-10.8003,3.0453,2.808,2.5418,2.2613,2.0436,1.9509,1.9122,1.8656,1.6308,1.3985,1.1455,0.913,0.6804,0.4473,0.2982,0.1277,-0.0426,-0.1917,-0.2982,-0.3842,-0.5525,-0.8453,-1.1768,-1.2953,-1.5446,-1.9091,-2.2104,-2.4834,-2.6875,-2.9127,-3.1378,-3.3,-3.3414,-3.4937,-3.7989,-3.9968,-4.2782,-4.634,-4.8818,-5.0166,-5.0803,-5.2319,-5.3817,-5.4925,-5.7519,-5.9794,-6.1067,-6.2313,-6.33,-6.3841,-6.3989,-6.4922,-6.6297,-6.7477,-6.8993,-7.0837,-7.1386,-7.275,-7.5231,-7.5865,-7.6903,-7.8645,-7.8979,-7.9515,-8.0502,-8.0507,-8.0304,-7.9942,-8.0127,-8.0278,-8.0335,-8.0141,-7.9716,-7.9078,-7.9026,-7.9098,-7.9258,-8.0601,-8.2313,-8.3843,-8.6577,-8.8816,-9.0297,-9.1502,-9.2857,-9.4905,-9.5878,-9.7048,-9.8848,-10.0622,-10.2243,-10.3703,-10.5413,-10.683,-10.7441,-10.8017,-10.823,-10.8405,-10.8681,-10.8614,-10.8902,-10.9448,-10.9731,-11.0191,-11.0487,-11.0653,-11.0691,-11.0716,-11.0721,-11.0424,-11.0266,-10.9742,-10.8908,-10.8304,-10.7788,2.9359,2.7628,2.3882,2.1316,1.957,1.9081,1.8477,1.7818,1.4838,1.2299,1.0399,0.7438,0.5109,0.341,0.1704,-0.0,-0.1695,-0.3371,-0.4631,-0.5268,-0.6085,-0.8976,-1.3118,-1.5165,-1.7037,-2.0258,-2.3306,-2.544,-2.7079,-3.0141,-3.2384,-3.3614,-3.4696,-3.6875,-3.973,-4.2064,-4.499,-4.8322,-4.9835,-5.0785,-5.1735,-5.3296,-5.4779,-5.6077,-5.8859,-6.1265,-6.2469,-6.3346,-6.389,-6.4452,-6.4922,-6.5343,-6.5835,-6.6334,-6.7571,-6.9189,-7.0136,-7.1409,-7.3701,-7.4258,-7.5183,-7.6809,-7.7583,-7.8272,-7.9587,-8.0082,-8.0217,-7.9943,-8.0094,-8.0366,-8.0513,-8.0502,-8.0269,-8.0057,-8.0005,-7.9949,-8.0143,-8.1913,-8.3645,-8.4946,-8.6952,-8.904,-9.0745,-9.1923,-9.3271,-9.5171,-9.6419,-9.7455,-9.9201,-10.0685,-10.1951,-10.3144,-10.4604,-10.5743,-10.6549,-10.7173,-10.7717,-10.8067,-10.8371,-10.8226,-10.8173,-10.8974,-10.9557,-11.0191,-11.0576,-11.0653,-11.0691,-11.0691,-11.0651,-11.0096,-10.979,-10.9955,-10.9795,-10.906,-10.831,2.7402,2.6724,2.1607,1.9312,1.8918,1.8359,1.777,1.6761,1.252,1.0196,0.9137,0.5534,0.3624,0.2985,0.1278,-0.0424,-0.1683,-0.3777,-0.5221,-0.6231,-0.7035,-0.949,-1.3587,-1.7588,-1.9545,-2.0652,-2.4684,-2.6842,-2.7476,-3.1756,-3.4214,-3.4482,-3.6875,-4.0158,-4.2657,-4.5593,-4.7895,-5.0493,-5.1192,-5.1406,-5.1794,-5.3678,-5.5889,-5.8079,-6.0317,-6.2517,-6.4503,-6.5124,-6.5322,-6.5397,-6.5839,-6.586,-6.583,-6.6854,-6.7826,-6.8562,-6.8784,-7.0031,-7.1581,-7.1989,-7.281,-7.4536,-7.6312,-7.7652,-7.847,-7.9789,-8.0495,-8.0186,-8.0366,-8.0606,-8.0844,-8.1213,-8.1579,-8.1742,-8.118,-8.0899,-8.1251,-8.2968,-8.4689,-8.6041,-8.7595,-8.9426,-9.1362,-9.2267,-9.3643,-9.5294,-9.6803,-9.8061,-9.935,-10.0598,-10.1531,-10.2694,-10.3985,-10.4942,-10.5839,-10.7251,-10.7717,-10.772,-10.8163,-10.8357,-10.8119,-10.8876,-10.9611,-11.0205,-11.0576,-11.0653,-11.0691,-11.0742,-11.064,-11.0356,-11.044,-11.0922,-11.0369,-10.9291,-10.8404,2.7392,2.6745,2.1303,1.8748,1.851,1.7801,1.635,1.4434,1.1676,0.9345,0.7441,0.4685,0.3411,0.2985,0.0213,-0.1272,-0.2311,-0.4592,-0.6009,-0.6777,-0.8343,-1.1344,-1.5189,-1.856,-2.0351,-2.1281,-2.5306,-2.7919,-2.8483,-3.2572,-3.4923,-3.5347,-3.7805,-4.0499,-4.3387,-4.5949,-4.8396,-5.0959,-5.1445,-5.2181,-5.3658,-5.5534,-5.7753,-6.0135,-6.2184,-6.3826,-6.5248,-6.5767,-6.594,-6.594,-6.6455,-6.6575,-6.6398,-6.7018,-6.7707,-6.8072,-6.841,-6.8747,-6.9504,-7.006,-7.1069,-7.2905,-7.5049,-7.6856,-7.8555,-8.0011,-8.0709,-8.0625,-8.0606,-8.0875,-8.1276,-8.1704,-8.2288,-8.3224,-8.2557,-8.1888,-8.2453,-8.4353,-8.6489,-8.7955,-8.9467,-9.1146,-9.2583,-9.3608,-9.4489,-9.5925,-9.7216,-9.8431,-9.9714,-10.0652,-10.1552,-10.2164,-10.3204,-10.4173,-10.5383,-10.6958,-10.7705,-10.7421,-10.794,-10.8898,-10.88,-10.9078,-10.981,-11.0462,-11.0614,-11.0691,-11.0742,-11.0793,-11.0635,-11.0501,-11.0501,-11.0647,-10.9645,-10.8646,-10.8063,2.6971,2.6107,2.0694,1.817,1.7947,1.7662,1.5986,1.3455,1.1267,0.8921,0.6592,0.4474,0.2985,0.2131,-0.0426,-0.2114,-0.2926,-0.5404,-0.7202,-0.8731,-1.1688,-1.4259,-1.6686,-1.9227,-2.1177,-2.2478,-2.6157,-2.86,-3.0173,-3.3627,-3.5892,-3.7665,-3.9887,-4.2609,-4.5357,-4.7594,-4.956,-5.1387,-5.2181,-5.3487,-5.4758,-5.7546,-5.9772,-6.178,-6.3626,-6.4901,-6.5594,-6.594,-6.6112,-6.6112,-6.6455,-6.6695,-6.6492,-6.7118,-6.748,-6.7841,-6.8008,-6.8419,-6.8961,-6.9485,-7.0445,-7.2007,-7.4281,-7.6259,-7.7769,-7.9698,-8.1182,-8.0699,-8.0875,-8.1276,-8.1736,-8.2288,-8.3158,-8.3898,-8.4022,-8.3789,-8.3507,-8.5484,-8.7525,-8.915,-9.0769,-9.2332,-9.4122,-9.4897,-9.5866,-9.6966,-9.8088,-9.9028,-10.0002,-10.0814,-10.1483,-10.1987,-10.2906,-10.4106,-10.5146,-10.6623,-10.8322,-10.816,-10.8556,-10.9459,-10.936,-10.9466,-10.9862,-11.0423,-11.0576,-11.0742,-11.0793,-11.0843,-11.0826,-11.074,-11.0525,-11.0391,-10.9825,-10.914,-10.8372,2.6107,2.525,2.0035,1.7779,1.7629,1.75,1.5834,1.3322,1.1099,0.8724,0.6169,0.4261,0.2557,0.0852,-0.0852,-0.2532,-0.4358,-0.6016,-0.8593,-1.1517,-1.4837,-1.743,-1.8038,-2.0544,-2.2454,-2.4325,-2.7081,-2.9707,-3.1739,-3.4792,-3.748,-3.9672,-4.2542,-4.541,-4.7362,-4.9831,-5.1387,-5.2161,-5.3296,-5.4968,-5.643,-5.9202,-6.1219,-6.3049,-6.4503,-6.5594,-6.594,-6.6112,-6.6283,-6.6112,-6.6626,-6.6764,-6.6357,-6.7093,-6.7427,-6.7619,-6.8028,-6.8629,-6.9353,-6.998,-7.0308,-7.1392,-7.431,-7.6288,-7.7181,-7.9526,-8.1381,-8.1155,-8.1401,-8.1861,-8.2319,-8.3351,-8.4091,-8.4698,-8.5545,-8.5857,-8.5864,-8.6725,-8.825,-9.0007,-9.1441,-9.3203,-9.497,-9.6286,-9.7099,-9.7565,-9.865,-9.9497,-10.0127,-10.0614,-10.1121,-10.1483,-10.2673,-10.413,-10.5163,-10.6288,-10.8126,-10.9293,-10.9747,-11.0205,-10.9862,-10.9875,-11.0066,-11.0385,-11.0576,-11.0742,-11.0843,-11.0941,-11.0999,-11.1093,-11.0962,-11.1204,-11.1171,-11.0448,-10.9643,2.6107,2.525,2.0035,1.7779,1.7656,1.7609,1.5044,1.1188,1.0734,0.8126,0.4691,0.3625,0.2344,0.0639,-0.1064,-0.2951,-0.5392,-0.7444,-1.0036,-1.4271,-1.6828,-1.9216,-2.0603,-2.2846,-2.4288,-2.5841,-2.964,-3.2025,-3.3453,-3.5892,-3.8334,-4.0991,-4.3522,-4.5783,-4.8263,-5.0336,-5.2374,-5.3487,-5.423,-5.6451,-5.9202,-6.0498,-6.2517,-6.4503,-6.5397,-6.594,-6.6112,-6.6455,-6.6626,-6.6797,-6.7112,-6.74,-6.7531,-6.7671,-6.7976,-6.8324,-6.8306,-6.8688,-6.9492,-7.0144,-7.0635,-7.1096,-7.4,-7.6438,-7.6856,-7.9668,-8.1641,-8.2088,-8.2489,-8.2792,-8.3447,-8.3833,-8.473,-8.5518,-8.6013,-8.6535,-8.6996,-8.821,-8.9633,-9.133,-9.2591,-9.3973,-9.6133,-9.7028,-9.7658,-9.8216,-9.901,-9.9893,-10.0235,-10.0505,-10.0903,-10.141,-10.2314,-10.3824,-10.5355,-10.6549,-10.8333,-10.9693,-11.0259,-11.0653,-11.0309,-11.0232,-11.0385,-11.0538,-11.0653,-11.0793,-11.0892,-11.0989,-11.1132,-11.1262,-11.1314,-11.1242,-11.1137,-11.0871,-11.0338,2.525,2.3302,1.939,1.7819,1.7745,1.7451,1.4919,1.1095,1.0355,0.7732,0.4073,0.3419,0.1918,-0.0426,-0.1914,-0.4003,-0.725,-1.044,-1.3173,-1.6069,-1.8686,-2.1524,-2.371,-2.5723,-2.6996,-2.7455,-3.072,-3.3341,-3.5196,-3.7569,-4.0495,-4.284,-4.5006,-4.7598,-4.9376,-5.0822,-5.2527,-5.4589,-5.5701,-5.8101,-6.1219,-6.2694,-6.3778,-6.5397,-6.594,-6.6112,-6.6455,-6.6626,-6.6967,-6.7333,-6.7671,-6.7712,-6.7737,-6.7602,-6.7932,-6.855,-6.8372,-6.902,-6.9851,-7.0472,-7.0961,-7.1123,-7.4056,-7.5686,-7.7152,-7.9638,-8.1566,-8.241,-8.2811,-8.334,-8.409,-8.4984,-8.5642,-8.6013,-8.6656,-8.6897,-8.7422,-8.8628,-9.0385,-9.2108,-9.3463,-9.547,-9.7003,-9.7849,-9.8554,-9.9281,-9.9406,-10.0127,-10.0308,-10.0614,-10.1012,-10.1483,-10.2225,-10.3496,-10.5244,-10.6919,-10.878,-10.9789,-11.0297,-11.0549,-11.0538,-11.0538,-11.0653,-11.0691,-11.0742,-11.0843,-11.0989,-11.1123,-11.1178,-11.1275,-11.1286,-11.106,-11.0718,-11.0297,-10.9608,2.3955,2.114,1.8736,1.786,1.7846,1.7292,1.4573,1.1001,0.9999,0.7359,0.4107,0.3435,0.1716,-0.1284,-0.2567,-0.5076,-0.9346,-1.3655,-1.6364,-1.757,-2.0682,-2.3314,-2.5719,-2.7581,-2.9224,-2.9884,-3.2443,-3.4675,-3.6802,-3.9659,-4.189,-4.4539,-4.6825,-4.8965,-5.0822,-5.162,-5.3104,-5.5701,-5.7361,-5.9749,-6.2671,-6.4328,-6.5397,-6.594,-6.6283,-6.6455,-6.6797,-6.6967,-6.7333,-6.8203,-6.8203,-6.7918,-6.7645,-6.7316,-6.7678,-6.872,-6.8513,-6.905,-7.0258,-7.0798,-7.1123,-7.1635,-7.3773,-7.5686,-7.7299,-7.9496,-8.1399,-8.2544,-8.3208,-8.3733,-8.4475,-8.536,-8.6136,-8.6535,-8.7017,-8.7289,-8.7554,-8.8515,-9.0422,-9.2142,-9.3916,-9.5926,-9.7696,-9.8799,-9.9533,-10.0038,-10.0127,-10.0252,-10.0433,-10.065,-10.094,-10.1391,-10.2024,-10.3522,-10.5294,-10.6286,-10.8267,-10.9477,-11.0017,-11.0351,-11.0601,-11.0742,-11.0742,-11.0793,-11.0843,-11.0941,-11.1037,-11.1178,-11.1269,-11.1325,-11.1214,-11.1021,-11.0448,-10.9761,-10.9032,2.3955,2.114,1.8957,1.786,1.7632,1.5826,1.3313,1.06,0.8575,0.6143,0.3709,0.3271,0.1521,-0.1087,-0.1958,-0.5592,-1.1578,-1.5705,-1.8217,-1.963,-2.2123,-2.4147,-2.6739,-2.8404,-3.044,-3.2563,-3.4535,-3.6042,-3.7546,-3.9613,-4.2757,-4.4996,-4.7365,-4.961,-5.1406,-5.2374,-5.406,-5.7383,-5.8675,-6.0678,-6.3954,-6.5223,-6.5594,-6.6112,-6.6455,-6.6626,-6.6967,-6.7502,-6.8035,-6.8203,-6.8513,-6.8602,-6.8393,-6.8115,-6.8471,-6.901,-6.902,-6.9507,-7.0664,-7.115,-7.1769,-7.2699,-7.4056,-7.6138,-7.8031,-7.995,-8.1535,-8.2944,-8.3733,-8.4507,-8.5766,-8.6267,-8.6568,-8.693,-8.7302,-8.7455,-8.7806,-8.8908,-9.0352,-9.1953,-9.4034,-9.6204,-9.8007,-9.9293,-9.9696,-10.0127,-10.0215,-10.0179,-10.0288,-10.0433,-10.0614,-10.1101,-10.1625,-10.3484,-10.5415,-10.6025,-10.717,-10.8678,-10.9461,-10.9999,-11.0259,-11.0742,-11.0843,-11.0843,-11.0892,-11.1037,-11.1132,-11.1224,-11.1314,-11.1401,-11.1214,-11.0983,-11.0333,-10.9684,-10.9109,2.3093,1.939,1.8302,1.7819,1.7312,1.5307,1.2807,1.0522,0.8085,0.5665,0.3698,0.239,0.0434,-0.2389,-0.4362,-0.8634,-1.3785,-1.6934,-1.9041,-2.0612,-2.2508,-2.5173,-2.7792,-2.926,-3.1797,-3.4124,-3.5999,-3.7264,-3.9074,-4.1615,-4.4021,-4.7041,-4.9199,-5.1192,-5.2201,-5.278,-5.5178,-5.8329,-5.959,-6.1422,-6.5397,-6.5767,-6.594,-6.6112,-6.6626,-6.6967,-6.7307,-6.784,-6.8371,-6.8513,-6.868,-6.8847,-6.8769,-6.897,-6.903,-6.9656,-6.9585,-6.9965,-7.0826,-7.1474,-7.1769,-7.2699,-7.4366,-7.6259,-7.8321,-8.023,-8.2005,-8.344,-8.4379,-8.5271,-8.6659,-8.706,-8.7623,-8.8162,-8.8469,-8.8556,-8.8941,-9.0099,-9.111,-9.2184,-9.4634,-9.6833,-9.8753,-9.9696,-9.9912,-10.0091,-10.0179,-10.0179,-10.0179,-10.0376,-10.0521,-10.0914,-10.1488,-10.2704,-10.444,-10.5275,-10.6065,-10.748,-10.864,-10.9205,-10.9809,-11.009,-11.0614,-11.0941,-11.1037,-11.1037,-11.1262,-11.1352,-11.1396,-11.1401,-11.106,-11.0637,-11.022,-10.9607,-10.9071,2.1546,1.7819,1.7819,1.7738,1.7173,1.4517,1.2491,1.0236,0.737,0.5199,0.3465,0.1516,-0.065,-0.3905,-0.7396,-1.1487,-1.6221,-1.7754,-1.9466,-2.1456,-2.2719,-2.5602,-2.8871,-3.0588,-3.2106,-3.5719,-3.637,-3.8067,-4.0284,-4.2857,-4.5858,-4.8349,-5.0881,-5.2587,-5.2992,-5.374,-5.6307,-5.8491,-6.0294,-6.2469,-6.5199,-6.6112,-6.6112,-6.6283,-6.6626,-6.7137,-6.7671,-6.8177,-6.8513,-6.868,-6.8847,-6.8847,-6.9014,-6.932,-6.9816,-7.0228,-6.991,-7.0503,-7.1123,-7.2014,-7.2469,-7.3201,-7.493,-7.6908,-7.9197,-8.1387,-8.3353,-8.4475,-8.5436,-8.645,-8.7685,-8.8151,-8.8659,-8.9111,-8.9519,-8.9893,-9.0113,-9.1007,-9.2306,-9.3759,-9.5626,-9.7252,-9.8966,-10.0237,-10.0525,-10.0127,-10.0179,-10.0179,-10.0215,-10.0355,-10.0601,-10.0882,-10.1429,-10.2082,-10.3235,-10.4218,-10.5019,-10.6136,-10.7268,-10.8021,-10.8767,-10.9326,-10.9865,-11.0396,-11.0864,-11.0913,-11.1178,-11.1396,-11.1478,-11.1329,-11.0829,-11.0448,-11.0182,-10.9802,-10.9263,2.0185,1.7677,1.7677,1.7589,1.6811,1.2881,1.0908,0.9802,0.5885,0.3934,0.3268,0.1528,-0.0875,-0.4616,-0.9466,-1.3846,-1.6785,-1.8308,-2.0458,-2.2889,-2.3644,-2.582,-2.9451,-3.0081,-3.2546,-3.5989,-3.6612,-3.7961,-4.0458,-4.2967,-4.5522,-4.8443,-5.0939,-5.278,-5.376,-5.4947,-5.759,-5.9931,-6.1935,-6.3754,-6.5742,-6.6112,-6.6283,-6.6626,-6.7137,-6.7646,-6.8009,-6.8345,-6.868,-6.8847,-6.8847,-6.8988,-6.932,-6.9816,-7.0308,-7.0608,-7.0718,-7.088,-7.1582,-7.2582,-7.3494,-7.4148,-7.5796,-7.8021,-8.0532,-8.3463,-8.5364,-8.5952,-8.7134,-8.8152,-8.8844,-8.9155,-8.9376,-8.963,-9.0106,-9.016,-9.038,-9.205,-9.3385,-9.4747,-9.6553,-9.7495,-9.8752,-10.0052,-10.1048,-10.0577,-10.0215,-10.0324,-10.0448,-10.0819,-10.1004,-10.1403,-10.1304,-10.1881,-10.233,-10.3359,-10.4039,-10.491,-10.5768,-10.6731,-10.7405,-10.8097,-10.8843,-10.9407,-11.0031,-11.0689,-11.0874,-11.1093,-11.1396,-11.1368,-11.1098,-11.0718,-11.0377,-10.988,-10.93,1.87,1.7772,1.7765,1.6801,1.5137,1.2064,0.9821,0.7806,0.4992,0.3467,0.2809,0.0433,-0.3057,-0.7715,-1.1933,-1.5213,-1.801,-1.8977,-2.0955,-2.3574,-2.4269,-2.6202,-2.9127,-3.0319,-3.2346,-3.5593,-3.6992,-3.8745,-4.0951,-4.302,-4.5381,-4.8856,-5.0914,-5.272,-5.423,-5.5885,-5.7946,-6.0383,-6.3025,-6.5199,-6.5914,-6.6283,-6.6626,-6.6797,-6.7502,-6.8009,-6.8203,-6.8513,-6.8847,-6.8847,-6.9014,-6.932,-6.9651,-7.0144,-7.0635,-7.0825,-7.1474,-7.1799,-7.2206,-7.3344,-7.4202,-7.5397,-7.7018,-7.9365,-8.2051,-8.4739,-8.6692,-8.6952,-8.7782,-8.8802,-8.9816,-9.0039,-9.0427,-9.0682,-9.0893,-9.1355,-9.1677,-9.3029,-9.4502,-9.5866,-9.7183,-9.8069,-9.9077,-10.0535,-10.1627,-10.1628,-10.15,-10.1572,-10.1691,-10.1842,-10.1951,-10.2138,-10.1808,-10.1596,-10.1927,-10.2566,-10.3051,-10.3776,-10.4292,-10.5204,-10.5952,-10.6712,-10.7473,-10.8388,-10.9217,-10.9824,-11.0296,-11.0874,-11.1185,-11.1396,-11.1522,-11.0829,-11.014,-10.9687,-10.8992,1.786,1.786,1.7826,1.6394,1.3851,1.1659,0.9179,0.671,0.4551,0.3457,0.2367,-0.0864,-0.5882,-1.0555,-1.3241,-1.59,-1.9206,-1.9379,-2.1383,-2.3326,-2.5022,-2.6937,-2.946,-3.0809,-3.296,-3.6612,-3.6612,-3.8353,-4.095,-4.3362,-4.5819,-4.9762,-5.1479,-5.2897,-5.4591,-5.6837,-5.9318,-6.2268,-6.4653,-6.5914,-6.6283,-6.6626,-6.6967,-6.7333,-6.784,-6.8203,-6.8371,-6.8513,-6.8847,-6.8847,-6.9154,-6.9485,-6.9816,-7.0308,-7.0933,-7.142,-7.2098,-7.2995,-7.3566,-7.4519,-7.5219,-7.6549,-7.859,-8.1091,-8.3233,-8.5547,-8.7372,-8.7954,-8.8977,-8.9808,-9.0478,-9.0767,-9.109,-9.1725,-9.2137,-9.2635,-9.3231,-9.4178,-9.4992,-9.6027,-9.7309,-9.8835,-9.9984,-10.1304,-10.2131,-10.246,-10.266,-10.2875,-10.2885,-10.2901,-10.2851,-10.2917,-10.2697,-10.2412,-10.2485,-10.2669,-10.2815,-10.2815,-10.3366,-10.3713,-10.4612,-10.5359,-10.6136,-10.718,-10.8075,-10.8273,-10.8383,-10.9695,-11.0931,-11.0481,-11.0126,-11.0187,-10.9786,-10.9262,-10.8799,1.786,1.7853,1.7724,1.6057,1.3538,1.1555,0.9164,0.6543,0.437,0.3276,0.1958,-0.2394,-0.7608,-1.1373,-1.3648,-1.615,-1.958,-1.9431,-2.1508,-2.4158,-2.6252,-2.7906,-3.001,-3.1908,-3.4,-3.6202,-3.6612,-3.7961,-4.0336,-4.3311,-4.6808,-5.1081,-5.2135,-5.3439,-5.5262,-5.7687,-6.1258,-6.4104,-6.5914,-6.6258,-6.6626,-6.6797,-6.7137,-6.784,-6.8203,-6.8371,-6.868,-6.8847,-6.8847,-6.8847,-6.932,-6.9816,-7.0144,-7.0635,-7.1149,-7.2071,-7.302,-7.3866,-7.4961,-7.5861,-7.661,-7.8048,-8.0133,-8.2723,-8.4023,-8.7295,-8.8959,-8.928,-9.0143,-9.0882,-9.1364,-9.1529,-9.1712,-9.2114,-9.2614,-9.299,-9.3755,-9.4872,-9.5653,-9.618,-9.7354,-9.8894,-9.9788,-10.0835,-10.223,-10.268,-10.3618,-10.3795,-10.3838,-10.3802,-10.3703,-10.3724,-10.3733,-10.3586,-10.3549,-10.3513,-10.3182,-10.2925,-10.3109,-10.3072,-10.3168,-10.4044,-10.5023,-10.5433,-10.6262,-10.628,-10.6622,-10.7933,-10.8802,-10.8764,-10.8719,-10.8869,-10.8676,-10.809,-10.7952,1.786,1.7853,1.6243,1.42,1.1731,0.9525,0.7074,0.4848,0.3747,0.1751,-0.0867,-0.4953,-0.8853,-1.1763,-1.3564,-1.61,-1.9133,-1.9558,-2.1649,-2.3709,-2.5659,-2.7521,-2.9606,-3.1654,-3.3145,-3.5848,-3.6809,-3.9049,-4.2521,-4.4045,-4.7739,-5.1051,-5.2592,-5.3337,-5.5323,-5.8329,-6.2113,-6.5025,-6.6112,-6.6283,-6.6797,-6.7137,-6.7502,-6.8035,-6.8513,-6.868,-6.8847,-6.8847,-6.9014,-6.932,-6.9651,-7.0171,-7.0552,-7.1042,-7.1718,-7.2614,-7.3756,-7.5041,-7.6168,-7.7202,-7.7919,-7.9598,-8.208,-8.4237,-8.4814,-8.8052,-8.9773,-9.0448,-9.0988,-9.1562,-9.1562,-9.1811,-9.2058,-9.2337,-9.2836,-9.3245,-9.4125,-9.5278,-9.6007,-9.6587,-9.7507,-9.8702,-9.9444,-10.0066,-10.1575,-10.2882,-10.3946,-10.4714,-10.4545,-10.4655,-10.4641,-10.4494,-10.4467,-10.4284,-10.421,-10.3843,-10.3476,-10.3256,-10.3072,-10.3044,-10.3007,-10.3217,-10.4091,-10.4317,-10.469,-10.5242,-10.5787,-10.6305,-10.679,-10.7182,-10.7435,-10.7583,-10.7279,-10.6905,-10.6933,1.786,1.7418,1.4514,1.2288,1.0508,0.8281,0.5809,0.3783,0.3558,0.0661,-0.4121,-0.6671,-0.9714,-1.222,-1.3803,-1.6082,-1.8679,-1.9815,-2.1942,-2.381,-2.5828,-2.7546,-2.9792,-3.1817,-3.3681,-3.6162,-3.7353,-3.9417,-4.2673,-4.4641,-4.779,-5.0869,-5.2755,-5.3711,-5.5052,-5.8329,-6.2315,-6.5199,-6.6112,-6.6455,-6.6967,-6.7307,-6.7815,-6.8371,-6.868,-6.868,-6.8847,-6.8847,-6.8988,-6.9485,-7.0007,-7.0415,-7.1013,-7.1528,-7.2261,-7.3241,-7.469,-7.6033,-7.7463,-7.8574,-7.9574,-8.0859,-8.3342,-8.4943,-8.629,-8.8578,-9.0356,-9.0933,-9.1312,-9.1596,-9.1596,-9.1844,-9.2448,-9.2827,-9.3326,-9.3803,-9.4785,-9.5838,-9.6311,-9.6873,-9.776,-9.8425,-9.8958,-9.9711,-10.1108,-10.2609,-10.3819,-10.4618,-10.4976,-10.5093,-10.5448,-10.5385,-10.5201,-10.4981,-10.4687,-10.4467,-10.4247,-10.4063,-10.3806,-10.3529,-10.3463,-10.3555,-10.3567,-10.3908,-10.4281,-10.4542,-10.4689,-10.4757,-10.5252,-10.5935,-10.6011,-10.6126,-10.6297,-10.5964,-10.5907,1.786,1.719,1.2733,1.0726,1.0269,0.8057,0.5824,0.3583,0.2909,-0.0,-0.5059,-0.7204,-1.0272,-1.3435,-1.4321,-1.6595,-1.9133,-1.983,-2.1571,-2.458,-2.5967,-2.8589,-3.0677,-3.248,-3.4071,-3.6479,-3.7635,-3.9012,-4.2094,-4.508,-4.8044,-5.082,-5.3182,-5.4358,-5.4883,-5.8329,-6.2291,-6.5397,-6.594,-6.6626,-6.7307,-6.7477,-6.8009,-6.8513,-6.868,-6.8847,-6.8847,-6.8847,-6.9154,-6.9651,-7.0278,-7.0847,-7.1769,-7.226,-7.3183,-7.4763,-7.6428,-7.7951,-7.935,-8.0431,-8.1324,-8.2008,-8.4184,-8.5703,-8.7074,-8.9033,-9.0871,-9.1252,-9.1562,-9.1629,-9.1753,-9.2068,-9.2838,-9.3451,-9.3985,-9.4597,-9.5582,-9.6176,-9.6616,-9.7123,-9.7597,-9.8092,-9.8667,-9.943,-10.0732,-10.2174,-10.3527,-10.4463,-10.5017,-10.5517,-10.5924,-10.5935,-10.5752,-10.5715,-10.5458,-10.5275,-10.5054,-10.4871,-10.4623,-10.4346,-10.4212,-10.4261,-10.4199,-10.3945,-10.4133,-10.4616,-10.3762,-10.2907,-10.3746,-10.4571,-10.4441,-10.4599,-10.4816,-10.5102,-10.5011,1.6917,1.529,1.2038,0.9775,0.8164,0.58,0.4261,0.3137,0.0446,-0.2659,-0.5513,-0.8975,-1.1832,-1.3883,-1.5456,-1.7046,-1.9368,-2.114,-2.29,-2.4636,-2.5841,-2.807,-3.0399,-3.1987,-3.4055,-3.6925,-3.8274,-4.0515,-4.5256,-4.6538,-4.9508,-5.2328,-5.3808,-5.522,-5.6681,-5.9225,-6.1756,-6.4104,-6.5545,-6.6797,-6.7477,-6.784,-6.8177,-6.868,-6.8847,-6.8847,-6.8847,-6.9014,-6.9591,-7.0028,-7.0709,-7.1766,-7.269,-7.3292,-7.4549,-7.6173,-7.7816,-7.9536,-8.1106,-8.2396,-8.2355,-8.3172,-8.4569,-8.6226,-8.7039,-8.9147,-9.0587,-9.1477,-9.1695,-9.1986,-9.2567,-9.2948,-9.3685,-9.459,-9.5136,-9.5717,-9.6345,-9.6582,-9.6954,-9.7495,-9.7969,-9.8249,-9.8701,-9.9111,-10.0283,-10.1325,-10.2614,-10.4391,-10.5324,-10.5838,-10.6266,-10.6266,-10.6192,-10.6266,-10.6192,-10.5642,-10.5495,-10.5422,-10.5331,-10.52,-10.5103,-10.5115,-10.4942,-10.4763,-10.469,-10.4579,-10.391,-10.3316,-10.3017,-10.3261,-10.3522,-10.3748,-10.4029,-10.4214,-10.4214,1.6369,1.4064,1.1713,0.9254,0.7008,0.466,0.335,0.2008,-0.1774,-0.4427,-0.6861,-1.0559,-1.2992,-1.4162,-1.548,-1.7485,-1.9595,-2.0631,-2.2796,-2.4344,-2.4769,-2.7589,-2.9897,-3.1145,-3.3824,-3.694,-3.8811,-4.0674,-4.375,-4.6252,-4.9874,-5.3255,-5.4544,-5.5073,-5.6703,-5.8697,-6.1398,-6.3554,-6.5347,-6.6967,-6.7477,-6.784,-6.8371,-6.868,-6.8847,-6.8847,-6.8899,-6.9504,-7.0047,-7.081,-7.1816,-7.282,-7.3857,-7.4958,-7.6059,-7.7674,-7.9381,-8.1169,-8.2763,-8.3487,-8.3226,-8.3511,-8.5383,-8.702,-8.803,-9.0139,-9.1239,-9.1874,-9.196,-9.2476,-9.3157,-9.3696,-9.4635,-9.5541,-9.6,-9.6582,-9.6988,-9.7258,-9.7326,-9.7867,-9.8249,-9.8493,-9.8735,-9.9145,-9.9895,-10.071,-10.168,-10.3436,-10.5215,-10.5655,-10.5949,-10.5998,-10.5972,-10.5825,-10.5789,-10.5715,-10.5678,-10.5899,-10.5882,-10.5871,-10.6149,-10.6159,-10.5874,-10.5581,-10.5545,-10.5285,-10.4542,-10.3984,-10.3575,-10.3347,-10.3368,-10.3469,-10.3394,-10.356,-10.3824,1.6014,1.3717,1.1325,0.894,0.6771,0.4183,0.2433,0.0664,-0.2434,-0.5326,-0.8252,-1.1277,-1.3277,-1.4017,-1.4387,-1.6582,-1.9279,-1.9837,-2.1974,-2.3915,-2.457,-2.76,-2.9735,-3.0939,-3.4002,-3.6882,-3.8997,-4.0153,-4.1096,-4.6144,-5.0881,-5.3528,-5.4544,-5.4714,-5.5974,-5.796,-6.0678,-6.2647,-6.552,-6.6942,-6.7477,-6.8009,-6.8513,-6.8706,-6.8952,-6.9004,-6.9328,-6.9925,-7.0956,-7.1991,-7.2942,-7.4392,-7.5633,-7.6749,-7.7915,-7.9516,-8.1435,-8.2812,-8.3758,-8.3952,-8.4281,-8.4641,-8.7034,-8.857,-8.9559,-9.0372,-9.1467,-9.2279,-9.2689,-9.304,-9.3582,-9.4523,-9.562,-9.6147,-9.6764,-9.7258,-9.7698,-9.7867,-9.7867,-9.8126,-9.8493,-9.8735,-9.9129,-9.9533,-9.9745,-10.0231,-10.0974,-10.1572,-10.3281,-10.4757,-10.5056,-10.5229,-10.5132,-10.5128,-10.5128,-10.5275,-10.5542,-10.5652,-10.6333,-10.6542,-10.6777,-10.6978,-10.6653,-10.6435,-10.6399,-10.5991,-10.5322,-10.4616,-10.4021,-10.3865,-10.363,-10.3438,-10.3462,-10.3626,-10.3786,1.3696,1.1232,0.8915,0.6721,0.4301,0.2384,0.0872,-0.0658,-0.3544,-0.6436,-0.9222,-1.2354,-1.3675,-1.4277,-1.6614,-1.8143,-1.9654,-2.1582,-2.3072,-2.414,-2.4381,-2.7568,-2.9747,-3.1376,-3.449,-3.7504,-3.9675,-4.068,-4.3721,-4.7974,-5.1348,-5.4142,-5.4544,-5.4544,-5.5451,-5.7054,-5.9225,-6.1733,-6.5149,-6.6771,-6.7646,-6.8177,-6.8539,-6.8952,-6.9239,-6.9512,-7.0083,-7.0841,-7.1929,-7.305,-7.3952,-7.5156,-7.6412,-7.782,-7.9341,-8.1464,-8.2984,-8.3903,-8.4097,-8.4427,-8.4755,-8.5376,-8.724,-8.7951,-8.8718,-8.9908,-9.1441,-9.2482,-9.3616,-9.4256,-9.4833,-9.5709,-9.6518,-9.7102,-9.7461,-9.7664,-9.8003,-9.8003,-9.8003,-9.8371,-9.8735,-9.9095,-9.9485,-9.9685,-9.9861,-10.0118,-10.0216,-10.0587,-10.1456,-10.3013,-10.4086,-10.4225,-10.4399,-10.4357,-10.4577,-10.4761,-10.5064,-10.5523,-10.6276,-10.6918,-10.7084,-10.7168,-10.7286,-10.7177,-10.6882,-10.6548,-10.6139,-10.5322,-10.4355,-10.4123,-10.3886,-10.3618,-10.353,-10.3693,-10.3786,1.2566,1.0124,0.8013,0.5172,0.2565,0.129,-0.0648,-0.3465,-0.5496,-0.7916,-1.0699,-1.2937,-1.4026,-1.44,-1.6492,-1.8202,-1.9333,-2.1406,-2.329,-2.4154,-2.423,-2.7375,-2.9596,-3.1557,-3.4395,-3.7677,-3.9892,-4.0864,-4.4152,-4.7901,-5.1348,-5.4333,-5.4544,-5.4544,-5.5073,-5.6516,-5.8675,-6.1172,-6.4056,-6.6379,-6.7646,-6.8371,-6.8784,-6.9239,-6.9605,-7.0126,-7.0778,-7.1761,-7.2792,-7.4079,-7.5265,-7.6476,-7.7976,-7.9646,-8.1011,-8.3013,-8.3571,-8.4097,-8.4427,-8.462,-8.5081,-8.5699,-8.6787,-8.7356,-8.8805,-9.0308,-9.1674,-9.2961,-9.4417,-9.5703,-9.6222,-9.6899,-9.7417,-9.7935,-9.7969,-9.7969,-9.8003,-9.8003,-9.8249,-9.8614,-9.8975,-9.9367,-9.9685,-9.9802,-9.9642,-9.9502,-9.8992,-9.877,-9.985,-10.1485,-10.2532,-10.3093,-10.334,-10.3549,-10.388,-10.432,-10.4853,-10.5458,-10.6357,-10.6888,-10.7279,-10.7434,-10.7437,-10.7402,-10.7217,-10.6808,-10.6362,-10.5433,-10.4578,-10.4309,-10.3961,-10.3618,-10.353,-10.3693,-10.3758,1.2149,0.9698,0.7542,0.4292,0.1066,0.0644,-0.2572,-0.7456,-0.8004,-0.979,-1.2177,-1.3485,-1.3901,-1.4248,-1.6305,-1.7833,-1.9372,-2.1483,-2.3208,-2.4003,-2.4192,-2.6745,-2.9769,-3.1371,-3.4571,-3.7672,-3.9844,-4.1296,-4.2841,-4.6592,-5.0745,-5.4142,-5.4544,-5.4544,-5.4714,-5.5974,-5.8004,-6.0682,-6.3169,-6.5669,-6.78,-6.8695,-6.9161,-6.9852,-7.0114,-7.0467,-7.1476,-7.2452,-7.3711,-7.502,-7.6375,-7.7602,-7.9785,-8.1406,-8.2845,-8.3542,-8.4097,-8.4262,-8.4591,-8.4755,-8.5273,-8.5759,-8.608,-8.6838,-8.8255,-9.0141,-9.1587,-9.2993,-9.4404,-9.5736,-9.655,-9.7178,-9.7744,-9.8003,-9.8003,-9.8003,-9.8003,-9.8126,-9.8493,-9.8855,-9.9332,-9.9568,-9.9802,-9.9883,-9.9814,-9.909,-9.8376,-9.7798,-9.8297,-9.996,-10.0566,-10.1462,-10.1946,-10.2317,-10.3154,-10.3714,-10.4595,-10.5347,-10.6401,-10.701,-10.7357,-10.7511,-10.7588,-10.7365,-10.7105,-10.6808,-10.6288,-10.5433,-10.469,-10.4275,-10.3858,-10.3581,-10.3493,-10.3693,-10.3758,0.9798,0.7611,0.5193,0.3006,0.0639,-0.1493,-0.4261,-0.7865,-1.0032,-1.1779,-1.3051,-1.3482,-1.3662,-1.4035,-1.6505,-1.823,-1.9166,-2.1635,-2.3419,-2.4135,-2.4249,-2.6859,-3.057,-3.1738,-3.487,-3.82,-4.0605,-4.2425,-4.5188,-4.7653,-5.016,-5.3951,-5.4544,-5.4544,-5.4606,-5.5892,-5.7458,-6.0089,-6.2657,-6.5569,-6.8339,-6.9267,-6.9905,-7.0625,-7.1163,-7.1767,-7.2729,-7.3496,-7.4653,-7.5725,-7.6321,-7.8259,-8.092,-8.2029,-8.307,-8.3932,-8.4097,-8.4427,-8.4755,-8.5081,-8.5568,-8.605,-8.64,-8.6619,-8.7658,-8.9758,-9.1479,-9.2728,-9.4195,-9.5661,-9.6794,-9.7522,-9.8003,-9.8003,-9.8003,-9.8003,-9.8003,-9.8371,-9.8735,-9.9095,-9.945,-9.9685,-9.9883,-9.9849,-9.978,-9.9193,-9.8262,-9.7651,-9.7536,-9.8376,-9.8124,-9.8958,-10.0164,-10.0863,-10.1975,-10.3436,-10.4467,-10.562,-10.6635,-10.7131,-10.7434,-10.7177,-10.6994,-10.7031,-10.6845,-10.6399,-10.5953,-10.547,-10.4801,-10.4129,-10.3821,-10.3506,-10.3493,-10.3693,-10.3758,0.8117,0.6579,0.3704,0.1077,-0.1278,-0.3615,-0.639,-0.9614,-1.133,-1.2641,-1.3732,-1.3656,-1.3591,-1.3968,-1.7065,-1.8507,-1.9276,-2.2388,-2.3555,-2.4107,-2.4972,-2.761,-3.0026,-3.2119,-3.5772,-3.8875,-4.0529,-4.2873,-4.6516,-4.8176,-4.9964,-5.2972,-5.376,-5.4668,-5.4772,-5.5619,-5.7096,-5.9889,-6.2291,-6.5299,-6.8514,-6.9601,-7.0586,-7.1426,-7.2084,-7.2718,-7.3603,-7.4321,-7.5175,-7.6503,-7.7866,-7.9679,-8.1775,-8.2902,-8.3571,-8.4097,-8.4262,-8.4591,-8.5081,-8.5406,-8.589,-8.6211,-8.653,-8.6748,-8.7257,-8.9202,-9.0558,-9.2074,-9.4993,-9.6555,-9.716,-9.7898,-9.7991,-9.8003,-9.8003,-9.8003,-9.8126,-9.8493,-9.8769,-9.9009,-9.945,-9.9767,-9.9883,-9.9883,-9.9814,-9.9676,-9.8676,-9.7883,-9.7668,-9.7196,-9.6758,-9.6904,-9.838,-10.0363,-10.2128,-10.3522,-10.4667,-10.5752,-10.6677,-10.7135,-10.7326,-10.6695,-10.6399,-10.6399,-10.6176,-10.5656,-10.521,-10.4876,-10.4244,-10.3426,-10.3377,-10.3326,-10.3493,-10.3626,-10.3758,0.6835,0.5947,0.2406,-0.0864,-0.362,-0.5536,-0.8552,-1.1616,-1.2287,-1.3002,-1.3923,-1.3727,-1.3705,-1.4745,-1.7026,-1.802,-1.9741,-2.2678,-2.3802,-2.4192,-2.4428,-2.726,-2.9932,-3.2489,-3.6103,-3.8951,-4.1138,-4.2902,-4.5386,-4.7274,-4.9527,-5.1445,-5.3346,-5.4917,-5.5358,-5.6081,-5.7569,-5.9772,-6.2365,-6.5149,-6.7587,-6.9927,-7.1293,-7.2019,-7.2428,-7.3181,-7.4069,-7.4734,-7.5391,-7.6928,-7.8892,-8.0813,-8.2255,-8.3404,-8.3766,-8.4262,-8.4456,-8.4918,-8.5406,-8.5729,-8.6211,-8.653,-8.6689,-8.6898,-8.7566,-8.8503,-8.9816,-9.1723,-9.4682,-9.6165,-9.6792,-9.7517,-9.7589,-9.7879,-9.7879,-9.8003,-9.8371,-9.8648,-9.8889,-9.9009,-9.945,-9.9883,-9.9883,-9.9883,-9.9814,-9.9711,-9.9262,-9.8538,-9.7858,-9.7106,-9.6531,-9.658,-9.7428,-9.9572,-10.1699,-10.2958,-10.3973,-10.5376,-10.6112,-10.676,-10.7029,-10.6325,-10.5842,-10.573,-10.5433,-10.5025,-10.4542,-10.4133,-10.3464,-10.2944,-10.312,-10.3288,-10.3425,-10.356,-10.3758,0.5889,0.3906,0.0865,-0.1717,-0.3834,-0.7278,-1.01,-1.2068,-1.3238,-1.3771,-1.4026,-1.3863,-1.3727,-1.3852,-1.7181,-1.8626,-1.9299,-2.2486,-2.4074,-2.4504,-2.4485,-2.7068,-3.0013,-3.3019,-3.6308,-3.9154,-4.15,-4.2945,-4.4564,-4.7218,-4.9648,-5.1601,-5.4423,-5.5773,-5.6437,-5.6971,-5.7849,-5.9879,-6.1956,-6.4549,-6.7126,-6.9511,-7.2189,-7.309,-7.37,-7.4267,-7.4689,-7.4859,-7.4994,-7.6136,-7.8456,-8.073,-8.2363,-8.3542,-8.3932,-8.4262,-8.462,-8.5081,-8.5568,-8.589,-8.637,-8.6689,-8.6689,-8.6718,-8.7267,-8.7885,-8.9134,-9.0248,-9.2419,-9.3509,-9.442,-9.6001,-9.665,-9.7094,-9.7312,-9.7969,-9.8371,-9.8769,-9.9129,-9.9367,-9.9568,-9.9802,-9.9883,-9.9883,-9.9883,-9.9711,-9.9366,-9.8642,-9.7986,-9.7124,-9.6296,-9.6456,-9.6824,-9.8059,-9.9835,-10.1429,-10.2666,-10.4237,-10.5442,-10.5834,-10.5915,-10.5656,-10.5285,-10.5062,-10.4876,-10.4542,-10.4059,-10.3501,-10.3316,-10.3017,-10.3154,-10.3288,-10.3357,-10.3493,-10.3721]},{"header":{"parameterUnit":"m.s-1","parameterCategory":1,"la1":31.0,"la2":29.5877,"lo1":-88.7671,"lo2":-86.6584,"dx":0.0162,"dy":0.0185,"nx":115,"ny":88,"refTime":"2022-11-11T18:00:00:Z","depth":0,"parameterNumber":3,"parameterNumberName":"V-component_of_WINDS"},"data":[0.0,0.0,0.0,0.0,0.0,0.0,0.0,0.0,0.0,0.0,0.0,0.0,0.0,0.0,0.0,0.0,0.0,0.0,0.0,0.0,0.0,0.0,0.0,0.0,0.0,0.0,0.0,0.0,0.0,0.0,0.0,0.0,0.0,0.0,0.0,0.0,0.0,0.0,0.0,0.0,0.0,0.0,0.0,0.0,0.0,0.0,0.0,0.0,0.0,0.0,0.0,0.0,0.0,0.0,0.0,0.0,0.0,0.0,0.0,0.0,0.0,0.0,0.0,0.0,0.0,0.0,0.0,0.0,0.0,0.0,0.0,0.0,0.0,0.0,0.0,0.0,0.0,0.0,0.0,0.0,0.0,0.0,0.0,0.0,0.0,0.0,0.0,0.0,0.0,0.0,0.0,0.0,0.0,0.0,0.0,0.0,0.0,0.0,0.0,0.0,0.0,0.0,0.0,0.0,0.0,0.0,0.0,0.0,0.0,0.0,0.0,0.0,0.0,0.0,0.0,0.0,0.0,0.0,0.0,0.0,0.0,0.0,0.0,0.0,0.0,0.0,0.0,0.0,0.0,0.0,0.0,0.0,0.0,0.0,0.0,0.0,0.0,0.0,0.0,0.0,0.0,0.0,0.0,0.0,0.0,0.0,0.0,0.0,0.0,0.0,0.0,0.0,0.0,0.0,0.0,0.0,0.0,0.0,0.0,0.0,0.0,0.0,0.0,0.0,0.0,0.0,0.0,0.0,0.0,0.0,0.0,0.0,0.0,0.0,0.0,0.0,0.0,0.0,0.0,0.0,0.0,0.0,0.0,0.0,0.0,0.0,0.0,0.0,0.0,0.0,0.0,0.0,0.0,0.0,0.0,0.0,0.0,0.0,0.0,0.0,0.0,0.0,0.0,0.0,0.0,0.0,0.0,0.0,0.0,0.0,0.0,0.0,0.0,0.0,0.0,0.0,0.0,0.0,0.0,0.0,0.0,0.0,0.0,0.0,0.0,0.0,0.0,0.0,0.0,0.0,0.0,0.0,0.0,0.0,0.0,0.0,0.0,0.0,0.0,0.0,0.0,0.0,0.0,0.0,0.0,0.0,0.0,0.0,0.0,0.0,0.0,0.0,0.0,0.0,0.0,0.0,0.0,0.0,0.0,0.0,0.0,0.0,0.0,0.0,0.0,0.0,0.0,0.0,0.0,0.0,0.0,0.0,0.0,0.0,0.0,0.0,0.0,0.0,0.0,0.0,0.0,0.0,0.0,0.0,0.0,0.0,0.0,0.0,0.0,0.0,0.0,0.0,0.0,0.0,0.0,0.0,0.0,0.0,0.0,0.0,0.0,0.0,0.0,0.0,0.0,0.0,0.0,0.0,0.0,0.0,0.0,0.0,0.0,0.0,0.0,0.0,0.0,0.0,0.0,0.0,0.0,0.0,0.0,0.0,0.0,0.0,0.0,0.0,0.0,0.0,0.0,0.0,0.0,0.0,0.0,0.0,0.0,0.0,0.0,0.0,0.0,0.0,0.0,0.0,0.0,0.0,0.0,0.0,0.0,0.0,0.0,0.0,0.0,0.0,0.0,0.0,0.0,0.0,0.0,0.0,0.0,0.0,0.0,0.0,0.0,0.0,0.0,0.0,0.0,0.0,0.0,0.0,0.0,0.0,0.0,0.0,0.0,0.0,0.0,0.0,0.0,0.0,0.0,0.0,0.0,0.0,0.0,0.0,0.0,0.0,0.0,0.0,0.0,0.0,0.0,0.0,0.0,0.0,0.0,0.0,0.0,0.0,0.0,0.0,0.0,0.0,0.0,0.0,0.0,0.0,0.0,0.0,0.0,0.0,0.0,0.0,0.0,0.0,0.0,0.0,0.0,0.0,0.0,0.0,0.0,0.0,0.0,0.0,0.0,0.0,0.0,0.0,0.0,0.0,0.0,0.0,0.0,0.0,0.0,0.0,0.0,0.0,0.0,0.0,0.0,0.0,0.0,0.0,0.0,0.0,0.0,0.0,0.0,0.0,0.0,0.0,0.0,0.0,0.0,0.0,0.0,0.0,0.0,0.0,0.0,0.0,0.0,0.0,0.0,0.0,0.0,0.0,0.0,0.0,0.0,0.0,0.0,0.0,0.0,0.0,0.0,0.0,0.0,0.0,0.0,0.0,0.0,0.0,0.0,0.0,0.0,0.0,0.0,0.0,0.0,0.0,0.0,0.0,0.0,0.0,0.0,0.0,0.0,0.0,0.0,0.0,0.0,0.0,0.0,0.0,0.0,0.0,0.0,0.0,0.0,0.0,0.0,0.0,0.0,0.0,0.0,0.0,0.0,0.0,0.0,0.0,0.0,0.0,0.0,0.0,0.0,0.0,0.0,0.0,0.0,0.0,0.0,0.0,0.0,0.0,0.0,0.0,0.0,0.0,0.0,0.0,0.0,0.0,0.0,0.0,0.0,0.0,0.0,0.0,0.0,0.0,0.0,0.0,0.0,0.0,0.0,0.0,0.0,0.0,0.0,0.0,0.0,0.0,0.0,0.0,0.0,0.0,0.0,0.0,0.0,0.0,0.0,0.0,0.0,0.0,0.0,0.0,0.0,0.0,0.0,0.0,0.0,0.0,0.0,0.0,0.0,0.0,0.0,0.0,0.0,0.0,0.0,0.0,0.0,0.0,0.0,0.0,0.0,0.0,0.0,0.0,0.0,0.0,0.0,0.0,0.0,0.0,0.0,0.0,0.0,0.0,0.0,0.0,0.0,0.0,0.0,0.0,0.0,0.0,0.0,0.0,0.0,0.0,0.0,0.0,0.0,0.0,0.0,0.0,0.0,0.0,0.0,0.0,0.0,0.0,0.0,0.0,0.0,0.0,0.0,0.0,0.0,0.0,0.0,0.0,0.0,0.0,0.0,0.0,0.0,0.0,0.0,0.0,0.0,0.0,0.0,0.0,0.0,0.0,0.0,0.0,0.0,0.0,0.0,0.0,0.0,0.0,0.0,0.0,0.0,0.0,0.0,0.0,0.0,0.0,0.0,0.0,0.0,0.0,0.0,0.0,0.0,0.0,0.0,0.0,0.0,0.0,0.0,0.0,0.0,0.0,0.0,0.0,0.0,0.0,0.0,0.0,0.0,0.0,0.0,0.0,0.0,0.0,0.0,0.0,0.0,0.0,0.0,0.0,0.0,0.0,0.0,0.0,0.0,0.0,0.0,0.0,0.0,0.0,0.0,0.0,0.0,0.0,0.0,0.0,0.0,0.0,0.0,0.0,0.0,0.0,0.0,0.0,0.0,0.0,0.0,0.0,0.0,0.0,0.0,0.0,0.0,0.0,0.0,0.0,0.0,0.0,0.0,0.0,0.0,0.0,0.0,0.0,0.0,0.0,0.0,0.0,0.0,0.0,0.0,0.0,0.0,0.0,0.0,0.0,0.0,0.0,0.0,0.0,0.0,0.0,0.0,0.0,0.0,0.0,0.0,0.0,0.0,0.0,0.0,0.0,0.0,0.0,0.0,0.0,0.0,0.0,0.0,0.0,0.0,0.0,0.0,0.0,0.0,0.0,0.0,0.0,0.0,0.0,0.0,0.0,0.0,0.0,0.0,0.0,0.0,0.0,0.0,0.0,0.0,0.0,0.0,0.0,0.0,0.0,0.0,0.0,0.0,0.0,0.0,0.0,0.0,0.0,0.0,0.0,0.0,0.0,0.0,0.0,0.0,0.0,0.0,0.0,0.0,0.0,0.0,0.0,0.0,0.0,0.0,0.0,0.0,0.0,0.0,0.0,0.0,0.0,0.0,0.0,0.0,0.0,0.0,0.0,0.0,0.0,0.0,0.0,0.0,0.0,0.0,0.0,0.0,0.0,0.0,0.0,0.0,0.0,0.0,0.0,0.0,0.0,0.0,0.0,0.0,0.0,0.0,0.0,0.0,0.0,0.0,0.0,0.0,0.0,0.0,0.0,0.0,0.0,0.0,0.0,0.0,0.0,0.0,0.0,0.0,0.0,0.0,0.0,0.0,0.0,0.0,0.0,0.0,0.0,0.0,0.0,0.0,0.0,0.0,0.0,0.0,0.0,0.0,0.0,0.0,0.0,0.0,0.0,0.0,0.0,0.0,0.0,0.0,0.0,0.0,0.0,0.0,0.0,0.0,0.0,0.0,0.0,0.0,0.0,0.0,0.0,0.0,0.0,0.0,0.0,0.0,0.0,0.0,0.0,0.0,0.0,0.0,0.0,0.0,0.0,0.0,0.0,0.0,0.0,0.0,0.0,0.0,0.0,-5.7432,0.0,0.0,0.0,-4.6671,0.0,0.0,0.0,0.0,0.0,0.0,0.0,0.0,0.0,0.0,0.0,0.0,0.0,0.0,0.0,0.0,0.0,0.0,0.0,0.0,0.0,0.0,0.0,0.0,0.0,0.0,0.0,0.0,0.0,0.0,0.0,0.0,0.0,0.0,0.0,0.0,0.0,0.0,0.0,0.0,0.0,0.0,0.0,0.0,0.0,0.0,0.0,0.0,0.0,0.0,0.0,0.0,0.0,0.0,0.0,0.0,0.0,0.0,0.0,0.0,0.0,0.0,0.0,0.0,0.0,0.0,0.0,0.0,0.0,0.0,0.0,0.0,0.0,0.0,0.0,0.0,0.0,0.0,0.0,0.0,0.0,0.0,0.0,0.0,0.0,0.0,0.0,0.0,0.0,0.0,0.0,0.0,0.0,0.0,0.0,0.0,0.0,0.0,0.0,0.0,0.0,0.0,0.0,0.0,0.0,0.0,0.0,0.0,0.0,0.0,-5.853,-5.6416,-5.5272,-5.2825,-4.8894,0.0,0.0,0.0,0.0,0.0,0.0,0.0,0.0,0.0,0.0,0.0,0.0,0.0,0.0,0.0,0.0,0.0,0.0,0.0,0.0,0.0,0.0,0.0,0.0,0.0,0.0,0.0,0.0,0.0,0.0,0.0,0.0,0.0,0.0,0.0,0.0,0.0,0.0,0.0,0.0,0.0,0.0,0.0,0.0,0.0,0.0,0.0,0.0,0.0,0.0,0.0,0.0,0.0,0.0,0.0,0.0,0.0,0.0,0.0,0.0,0.0,0.0,0.0,0.0,0.0,0.0,0.0,0.0,0.0,0.0,0.0,0.0,0.0,0.0,0.0,0.0,0.0,0.0,0.0,0.0,0.0,0.0,0.0,0.0,0.0,0.0,0.0,0.0,0.0,0.0,0.0,0.0,0.0,0.0,0.0,0.0,0.0,0.0,0.0,0.0,0.0,0.0,0.0,0.0,0.0,0.0,0.0,0.0,0.0,0.0,0.0,0.0,-5.622,-5.3653,-4.9995,0.0,0.0,0.0,0.0,0.0,0.0,0.0,0.0,0.0,0.0,0.0,0.0,0.0,0.0,0.0,0.0,0.0,0.0,0.0,0.0,0.0,0.0,0.0,0.0,0.0,0.0,0.0,0.0,0.0,0.0,0.0,0.0,0.0,0.0,0.0,0.0,0.0,0.0,0.0,0.0,0.0,0.0,0.0,0.0,0.0,0.0,0.0,0.0,0.0,0.0,0.0,0.0,0.0,0.0,0.0,0.0,0.0,0.0,0.0,0.0,0.0,0.0,0.0,0.0,0.0,0.0,0.0,0.0,0.0,0.0,0.0,0.0,0.0,0.0,0.0,0.0,0.0,0.0,0.0,0.0,0.0,0.0,0.0,0.0,0.0,0.0,0.0,0.0,0.0,0.0,0.0,0.0,0.0,0.0,0.0,0.0,0.0,0.0,0.0,0.0,0.0,0.0,0.0,0.0,0.0,0.0,0.0,0.0,0.0,0.0,-5.9799,-5.9414,-5.7216,0.0,-4.7829,0.0,0.0,0.0,0.0,0.0,0.0,0.0,0.0,0.0,0.0,0.0,0.0,0.0,0.0,0.0,0.0,0.0,0.0,0.0,0.0,0.0,0.0,0.0,0.0,0.0,0.0,0.0,0.0,0.0,0.0,0.0,0.0,0.0,0.0,0.0,0.0,0.0,0.0,0.0,0.0,0.0,0.0,0.0,0.0,0.0,0.0,0.0,0.0,0.0,0.0,0.0,0.0,0.0,0.0,0.0,0.0,0.0,0.0,0.0,0.0,0.0,0.0,0.0,0.0,0.0,0.0,0.0,0.0,0.0,0.0,0.0,0.0,0.0,0.0,0.0,0.0,0.0,0.0,0.0,0.0,0.0,0.0,0.0,0.0,0.0,0.0,0.0,0.0,0.0,0.0,0.0,0.0,0.0,0.0,0.0,0.0,0.0,0.0,0.0,0.0,0.0,0.0,0.0,0.0,0.0,0.0,0.0,0.0,0.0,0.0,-6.1013,-5.9065,-5.623,-5.2664,0.0,0.0,0.0,0.0,0.0,0.0,0.0,0.0,0.0,0.0,0.0,0.0,0.0,0.0,0.0,0.0,0.0,0.0,0.0,0.0,0.0,0.0,0.0,0.0,0.0,0.0,0.0,0.0,0.0,0.0,0.0,0.0,0.0,0.0,0.0,0.0,0.0,0.0,0.0,0.0,0.0,0.0,0.0,0.0,0.0,0.0,0.0,0.0,0.0,0.0,0.0,0.0,0.0,0.0,0.0,0.0,0.0,0.0,0.0,0.0,0.0,0.0,0.0,0.0,0.0,0.0,0.0,0.0,0.0,0.0,0.0,0.0,0.0,0.0,0.0,0.0,0.0,0.0,0.0,0.0,0.0,0.0,0.0,0.0,0.0,0.0,0.0,0.0,0.0,0.0,0.0,0.0,0.0,0.0,0.0,0.0,0.0,0.0,0.0,0.0,0.0,0.0,0.0,0.0,0.0,0.0,0.0,0.0,0.0,0.0,-6.2646,-6.1238,-5.8019,-5.569,-5.2776,-4.9024,0.0,0.0,0.0,0.0,0.0,0.0,0.0,0.0,0.0,0.0,0.0,0.0,0.0,0.0,0.0,0.0,0.0,0.0,0.0,0.0,0.0,0.0,0.0,0.0,0.0,0.0,0.0,0.0,0.0,0.0,0.0,0.0,0.0,0.0,0.0,0.0,0.0,0.0,0.0,0.0,0.0,0.0,0.0,0.0,0.0,0.0,0.0,0.0,0.0,0.0,0.0,0.0,0.0,0.0,0.0,0.0,0.0,0.0,0.0,0.0,0.0,0.0,0.0,0.0,0.0,0.0,0.0,0.0,0.0,0.0,0.0,0.0,0.0,0.0,0.0,0.0,0.0,0.0,0.0,0.0,0.0,0.0,0.0,0.0,0.0,0.0,0.0,0.0,0.0,0.0,0.0,0.0,0.0,0.0,0.0,0.0,0.0,0.0,0.0,0.0,0.0,0.0,0.0,0.0,0.0,0.0,0.0,0.0,-6.2529,-6.173,-5.9684,-5.6447,-5.631,-5.4082,0.0,0.0,0.0,0.0,0.0,0.0,0.0,0.0,0.0,0.0,0.0,0.0,0.0,0.0,0.0,0.0,0.0,0.0,0.0,0.0,0.0,0.0,0.0,0.0,0.0,0.0,0.0,0.0,0.0,0.0,0.0,0.0,0.0,0.0,0.0,0.0,0.0,0.0,0.0,0.0,0.0,0.0,0.0,0.0,0.0,0.0,0.0,0.0,0.0,0.0,0.0,0.0,0.0,0.0,0.0,0.0,0.0,0.0,0.0,0.0,0.0,0.0,0.0,0.0,0.0,0.0,0.0,0.0,0.0,0.0,0.0,0.0,0.0,0.0,0.0,0.0,0.0,0.0,0.0,0.0,0.0,0.0,0.0,0.0,0.0,0.0,0.0,0.0,0.0,0.0,0.0,0.0,0.0,0.0,0.0,0.0,0.0,0.0,0.0,0.0,0.0,0.0,0.0,0.0,0.0,0.0,0.0,0.0,0.0,-6.4171,-6.3165,-6.1883,-6.0533,-5.8642,-5.6066,0.0,0.0,0.0,0.0,0.0,0.0,0.0,0.0,0.0,0.0,0.0,0.0,0.0,0.0,0.0,0.0,0.0,0.0,0.0,0.0,0.0,0.0,0.0,0.0,0.0,0.0,0.0,0.0,0.0,0.0,0.0,0.0,0.0,0.0,0.0,0.0,0.0,0.0,0.0,0.0,0.0,0.0,0.0,0.0,0.0,0.0,0.0,0.0,0.0,0.0,0.0,0.0,0.0,0.0,0.0,0.0,0.0,0.0,0.0,0.0,0.0,0.0,0.0,0.0,0.0,0.0,0.0,0.0,0.0,0.0,0.0,0.0,0.0,0.0,0.0,0.0,0.0,0.0,0.0,0.0,0.0,0.0,0.0,0.0,0.0,0.0,0.0,0.0,0.0,0.0,0.0,0.0,0.0,0.0,0.0,0.0,0.0,0.0,0.0,0.0,0.0,0.0,0.0,0.0,0.0,0.0,0.0,0.0,0.0,-6.5357,-6.3734,-6.2649,-6.2113,-5.9621,-5.7187,0.0,0.0,0.0,0.0,0.0,0.0,0.0,0.0,0.0,0.0,0.0,0.0,0.0,0.0,0.0,0.0,0.0,0.0,0.0,0.0,0.0,0.0,0.0,0.0,0.0,0.0,0.0,0.0,0.0,0.0,0.0,0.0,0.0,0.0,0.0,0.0,0.0,0.0,0.0,0.0,0.0,0.0,0.0,0.0,0.0,0.0,0.0,0.0,0.0,0.0,0.0,0.0,0.0,0.0,0.0,0.0,0.0,0.0,0.0,0.0,0.0,0.0,0.0,0.0,0.0,0.0,0.0,0.0,0.0,0.0,0.0,0.0,0.0,0.0,0.0,0.0,0.0,0.0,0.0,0.0,0.0,0.0,0.0,0.0,0.0,0.0,0.0,0.0,0.0,0.0,0.0,0.0,0.0,0.0,0.0,0.0,0.0,0.0,0.0,0.0,0.0,0.0,0.0,0.0,0.0,0.0,0.0,0.0,-6.6776,-6.5934,-6.3498,-6.1844,-6.055,-5.9474,-5.716,0.0,0.0,0.0,0.0,0.0,0.0,0.0,0.0,0.0,0.0,0.0,0.0,0.0,0.0,0.0,0.0,0.0,0.0,0.0,0.0,0.0,0.0,0.0,0.0,0.0,0.0,0.0,0.0,0.0,0.0,0.0,0.0,0.0,0.0,0.0,0.0,0.0,0.0,0.0,0.0,0.0,0.0,0.0,0.0,0.0,0.0,0.0,0.0,0.0,0.0,0.0,0.0,0.0,0.0,0.0,0.0,0.0,0.0,0.0,0.0,0.0,0.0,0.0,0.0,0.0,0.0,0.0,0.0,0.0,0.0,0.0,0.0,0.0,0.0,0.0,0.0,0.0,0.0,0.0,0.0,0.0,0.0,0.0,0.0,0.0,0.0,0.0,0.0,0.0,0.0,0.0,0.0,0.0,0.0,0.0,0.0,0.0,0.0,0.0,0.0,0.0,0.0,0.0,0.0,0.0,0.0,0.0,0.0,0.0,-6.7446,-6.66,-6.5725,-6.4771,-6.2555,-6.0327,0.0,0.0,0.0,0.0,0.0,0.0,0.0,0.0,0.0,0.0,0.0,0.0,0.0,0.0,0.0,0.0,0.0,0.0,0.0,0.0,0.0,0.0,0.0,0.0,0.0,0.0,0.0,0.0,0.0,0.0,0.0,0.0,0.0,0.0,0.0,0.0,0.0,0.0,0.0,0.0,0.0,0.0,0.0,0.0,0.0,0.0,0.0,0.0,0.0,0.0,0.0,0.0,0.0,0.0,0.0,0.0,0.0,0.0,0.0,0.0,0.0,0.0,0.0,0.0,0.0,0.0,0.0,0.0,0.0,0.0,0.0,0.0,0.0,0.0,0.0,0.0,0.0,0.0,0.0,0.0,0.0,0.0,0.0,0.0,0.0,0.0,0.0,0.0,0.0,0.0,0.0,0.0,0.0,0.0,0.0,0.0,0.0,0.0,0.0,0.0,0.0,0.0,0.0,0.0,0.0,0.0,0.0,0.0,0.0,-6.928,-6.8733,-6.8024,-6.7039,-6.4387,-6.2009,-5.9941,0.0,0.0,0.0,0.0,0.0,0.0,0.0,0.0,0.0,0.0,0.0,0.0,0.0,0.0,0.0,0.0,0.0,0.0,0.0,0.0,0.0,0.0,0.0,0.0,0.0,0.0,0.0,0.0,0.0,0.0,0.0,0.0,0.0,0.0,0.0,0.0,0.0,0.0,0.0,0.0,0.0,0.0,0.0,0.0,0.0,0.0,0.0,0.0,0.0,0.0,0.0,0.0,0.0,0.0,0.0,0.0,0.0,0.0,0.0,0.0,0.0,0.0,0.0,0.0,0.0,0.0,0.0,0.0,0.0,0.0,0.0,0.0,0.0,0.0,0.0,0.0,0.0,0.0,0.0,0.0,0.0,0.0,0.0,0.0,0.0,0.0,0.0,0.0,0.0,0.0,0.0,0.0,0.0,0.0,0.0,0.0,0.0,0.0,0.0,0.0,0.0,0.0,0.0,0.0,0.0,0.0,0.0,0.0,-7.1304,-7.0096,-6.8868,-6.7713,-6.5039,-6.2586,0.0,0.0,0.0,0.0,0.0,0.0,0.0,0.0,0.0,0.0,0.0,0.0,0.0,0.0,0.0,0.0,0.0,0.0,0.0,0.0,0.0,0.0,0.0,0.0,0.0,0.0,0.0,0.0,0.0,0.0,0.0,0.0,0.0,0.0,0.0,0.0,0.0,0.0,0.0,0.0,0.0,0.0,0.0,0.0,0.0,0.0,0.0,0.0,0.0,0.0,0.0,0.0,0.0,0.0,0.0,0.0,0.0,0.0,0.0,0.0,0.0,0.0,0.0,0.0,0.0,0.0,0.0,0.0,0.0,0.0,0.0,0.0,0.0,0.0,0.0,0.0,0.0,0.0,0.0,0.0,0.0,0.0,0.0,0.0,0.0,0.0,0.0,0.0,0.0,0.0,0.0,0.0,0.0,0.0,0.0,0.0,0.0,0.0,0.0,0.0,0.0,0.0,0.0,0.0,0.0,0.0,0.0,0.0,0.0,-7.2605,-7.2479,-7.1268,-6.8833,-6.6704,-6.4509,0.0,0.0,0.0,0.0,0.0,0.0,0.0,0.0,0.0,0.0,0.0,0.0,0.0,0.0,0.0,0.0,0.0,0.0,0.0,0.0,0.0,0.0,0.0,0.0,0.0,0.0,0.0,0.0,0.0,0.0,0.0,0.0,0.0,0.0,0.0,0.0,0.0,0.0,0.0,0.0,0.0,0.0,0.0,0.0,0.0,0.0,0.0,0.0,0.0,0.0,0.0,0.0,0.0,0.0,0.0,0.0,0.0,0.0,0.0,0.0,0.0,0.0,0.0,0.0,0.0,0.0,0.0,0.0,0.0,0.0,0.0,0.0,0.0,0.0,0.0,0.0,0.0,0.0,0.0,0.0,0.0,0.0,0.0,0.0,0.0,0.0,0.0,0.0,0.0,0.0,0.0,0.0,0.0,0.0,0.0,0.0,0.0,0.0,0.0,0.0,0.0,0.0,0.0,0.0,0.0,0.0,0.0,0.0,-7.2971,-7.3155,-7.3088,-7.2279,-7.0557,-6.8774,-6.6471,0.0,0.0,0.0,0.0,0.0,0.0,0.0,0.0,0.0,0.0,0.0,0.0,0.0,0.0,0.0,0.0,0.0,0.0,0.0,0.0,0.0,0.0,0.0,0.0,0.0,0.0,0.0,0.0,0.0,0.0,0.0,0.0,0.0,0.0,0.0,0.0,0.0,0.0,0.0,0.0,0.0,0.0,0.0,0.0,0.0,0.0,0.0,0.0,0.0,0.0,0.0,0.0,0.0,0.0,0.0,0.0,0.0,0.0,0.0,0.0,0.0,0.0,0.0,0.0,0.0,0.0,0.0,0.0,0.0,0.0,0.0,0.0,0.0,0.0,0.0,0.0,0.0,0.0,0.0,0.0,0.0,0.0,0.0,0.0,0.0,0.0,0.0,0.0,0.0,0.0,0.0,0.0,0.0,0.0,0.0,0.0,0.0,0.0,0.0,0.0,0.0,0.0,0.0,0.0,0.0,0.0,0.0,0.0,-7.323,-7.3751,-7.3107,-7.2879,-7.285,-7.0807,-6.8284,0.0,0.0,0.0,0.0,0.0,0.0,0.0,0.0,0.0,0.0,0.0,0.0,0.0,0.0,0.0,0.0,0.0,0.0,0.0,0.0,0.0,0.0,0.0,0.0,0.0,0.0,0.0,0.0,0.0,0.0,0.0,0.0,0.0,0.0,0.0,0.0,0.0,0.0,0.0,0.0,0.0,0.0,0.0,0.0,0.0,0.0,0.0,0.0,0.0,0.0,0.0,0.0,0.0,0.0,0.0,0.0,0.0,0.0,0.0,0.0,0.0,0.0,0.0,0.0,0.0,0.0,0.0,0.0,0.0,0.0,0.0,0.0,0.0,0.0,0.0,0.0,0.0,0.0,0.0,0.0,0.0,0.0,0.0,0.0,0.0,0.0,0.0,0.0,0.0,0.0,0.0,0.0,0.0,0.0,0.0,0.0,0.0,0.0,0.0,0.0,0.0,0.0,0.0,0.0,0.0,0.0,0.0,0.0,-7.6162,-7.7463,-7.6166,-7.5776,-7.6362,-7.2207,-6.8828,0.0,0.0,0.0,0.0,0.0,0.0,0.0,0.0,0.0,0.0,0.0,0.0,0.0,0.0,0.0,0.0,0.0,0.0,0.0,0.0,0.0,0.0,0.0,0.0,0.0,0.0,0.0,0.0,0.0,0.0,0.0,0.0,0.0,0.0,0.0,0.0,0.0,0.0,0.0,0.0,0.0,0.0,0.0,0.0,0.0,0.0,0.0,0.0,-1.1205,0.0,0.0,0.0,0.0,0.0,0.0,0.0,0.0,0.0,0.0,0.0,0.0,0.0,0.0,0.0,0.0,0.0,0.0,0.0,0.0,0.0,0.0,0.0,0.0,0.0,0.0,0.0,0.0,0.0,0.0,0.0,0.0,0.0,0.0,0.0,0.0,0.0,0.0,0.0,0.0,0.0,0.0,0.0,0.0,0.0,0.0,0.0,0.0,0.0,0.0,0.0,0.0,0.0,0.0,0.0,0.0,0.0,0.0,0.0,-7.7378,-7.9167,-7.7631,-7.7192,-7.7952,-7.4706,-7.1197,0.0,0.0,0.0,0.0,0.0,0.0,0.0,0.0,0.0,0.0,0.0,0.0,0.0,0.0,0.0,0.0,0.0,0.0,0.0,0.0,0.0,0.0,0.0,0.0,0.0,0.0,0.0,0.0,0.0,0.0,0.0,0.0,0.0,0.0,0.0,0.0,0.0,0.0,0.0,0.0,0.0,0.0,0.0,0.0,0.0,0.0,0.0,0.0,0.0,0.0,0.0,0.0,0.0,0.0,0.0,0.0,0.0,0.0,0.0,0.0,0.0,0.0,0.0,0.0,0.0,0.0,0.0,0.0,0.0,0.0,0.0,0.0,0.0,0.0,0.0,0.0,0.0,0.0,0.0,0.0,0.0,0.0,0.0,0.0,0.0,0.0,0.0,0.0,0.0,0.0,0.0,0.0,0.0,0.0,0.0,0.0,0.0,0.0,0.0,0.0,0.0,0.0,0.0,0.0,0.0,0.0,0.0,-7.755,-7.8306,-8.0506,-7.8873,-7.8435,-7.9399,-7.7584,-7.4312,-6.9443,0.0,0.0,0.0,0.0,0.0,0.0,0.0,0.0,0.0,0.0,0.0,0.0,0.0,0.0,0.0,0.0,0.0,0.0,0.0,0.0,0.0,0.0,0.0,0.0,0.0,0.0,0.0,0.0,0.0,0.0,0.0,0.0,0.0,0.0,0.0,0.0,0.0,0.0,-2.0845,-1.9615,0.0,0.0,0.0,0.0,0.0,0.0,0.0,0.0,-1.4613,0.0,0.0,0.0,0.0,0.0,0.0,0.0,0.0,0.0,0.0,0.0,0.0,0.0,0.0,0.0,0.0,0.0,0.0,0.0,0.0,0.0,0.0,0.0,0.0,0.0,0.0,0.0,0.0,0.0,0.0,0.0,0.0,0.0,0.0,0.0,0.0,0.0,0.0,0.0,0.0,0.0,0.0,0.0,0.0,0.0,0.0,0.0,0.0,0.0,0.0,0.0,0.0,0.0,0.0,0.0,0.0,-7.8251,-7.8815,-8.0555,-8.3544,-8.2089,-8.1645,-8.2357,-8.0205,-7.67,-7.199,0.0,0.0,0.0,0.0,0.0,0.0,0.0,0.0,0.0,0.0,0.0,0.0,0.0,0.0,0.0,0.0,0.0,0.0,0.0,0.0,0.0,0.0,0.0,0.0,0.0,0.0,0.0,0.0,0.0,0.0,0.0,0.0,0.0,0.0,0.0,0.0,0.0,0.0,0.0,-2.3311,-2.2818,0.0,0.0,0.0,0.0,0.0,0.0,0.0,0.0,-1.3317,0.0,0.0,0.0,0.0,0.0,0.0,0.0,0.0,0.0,0.0,0.0,0.0,0.0,0.0,0.0,0.0,0.0,0.0,0.0,0.0,0.0,0.0,0.0,0.0,0.0,0.0,0.0,0.0,0.0,0.0,0.0,0.0,0.0,0.0,0.0,0.0,0.0,0.0,0.0,0.0,0.0,0.0,0.0,0.0,0.0,0.0,0.0,0.0,0.0,0.0,0.0,0.0,0.0,0.0,0.0,-7.9604,-8.0525,-8.2311,-8.4889,-8.3917,-8.367,-8.4286,-8.214,-7.8588,0.0,0.0,0.0,0.0,0.0,0.0,0.0,0.0,0.0,0.0,0.0,0.0,0.0,0.0,0.0,0.0,0.0,0.0,0.0,0.0,0.0,0.0,0.0,0.0,0.0,0.0,0.0,0.0,0.0,0.0,0.0,0.0,0.0,0.0,0.0,0.0,0.0,0.0,0.0,0.0,-2.516,-2.4929,-2.5215,0.0,0.0,0.0,0.0,0.0,0.0,-1.6685,-1.4515,0.0,0.0,0.0,0.0,0.0,0.0,0.0,0.0,0.0,0.0,0.0,0.0,0.0,0.0,0.0,0.0,0.0,0.0,0.0,0.0,0.0,0.0,0.0,0.0,0.0,0.0,0.0,0.0,0.0,0.0,0.0,0.0,0.0,0.0,0.0,0.0,0.0,0.0,0.0,0.0,0.0,0.0,0.0,0.0,0.0,0.0,0.0,0.0,0.0,0.0,0.0,0.0,0.0,0.0,0.0,-8.0858,-8.2181,-8.383,-8.5942,-8.5687,-8.5595,-8.5805,-8.4173,-8.0604,0.0,0.0,0.0,0.0,0.0,0.0,0.0,0.0,0.0,0.0,0.0,0.0,0.0,0.0,0.0,0.0,0.0,0.0,0.0,0.0,0.0,0.0,0.0,0.0,0.0,0.0,0.0,0.0,0.0,0.0,0.0,0.0,0.0,0.0,0.0,0.0,0.0,0.0,0.0,0.0,0.0,-2.6459,-2.732,-2.5963,0.0,0.0,0.0,0.0,-2.193,-1.9361,0.0,0.0,0.0,0.0,0.0,0.0,0.0,0.0,0.0,0.0,0.0,0.0,0.0,0.0,0.0,0.0,0.0,0.0,0.0,0.0,0.0,0.0,0.0,0.0,0.0,0.0,0.0,0.0,0.0,0.0,0.0,0.0,0.0,0.0,0.0,0.0,0.0,0.0,0.0,0.0,0.0,0.0,0.0,0.0,0.0,0.0,0.0,0.0,0.0,0.0,0.0,0.0,0.0,0.0,0.0,0.0,-8.0768,-8.2994,-8.525,-8.7423,-8.8329,-8.8238,-8.7276,-8.6608,-8.291,0.0,0.0,0.0,0.0,0.0,0.0,0.0,0.0,0.0,0.0,0.0,0.0,0.0,0.0,0.0,0.0,0.0,0.0,0.0,0.0,0.0,0.0,0.0,0.0,0.0,0.0,0.0,0.0,0.0,0.0,0.0,0.0,0.0,0.0,0.0,0.0,0.0,0.0,0.0,0.0,0.0,-2.8535,-2.8043,-2.6143,-2.5259,0.0,0.0,-2.4545,-2.5058,-2.3125,0.0,0.0,0.0,0.0,0.0,0.0,0.0,0.0,0.0,0.0,0.0,0.0,0.0,0.0,0.0,0.0,0.0,0.0,0.0,0.0,0.0,0.0,0.0,0.0,0.0,0.0,0.0,0.0,0.0,0.0,0.0,0.0,0.0,0.0,0.0,0.0,0.0,0.0,0.0,0.0,0.0,0.0,0.0,0.0,0.0,0.0,0.0,0.0,0.0,0.0,0.0,0.0,0.0,0.0,0.0,-8.1263,-8.1754,-8.4703,-8.672,-8.7665,-8.8856,-8.9048,-8.8102,-8.7291,-8.3882,0.0,0.0,0.0,0.0,0.0,0.0,0.0,0.0,0.0,0.0,0.0,0.0,0.0,0.0,0.0,0.0,0.0,0.0,0.0,0.0,0.0,0.0,0.0,0.0,0.0,0.0,0.0,0.0,0.0,0.0,0.0,0.0,0.0,0.0,0.0,0.0,0.0,0.0,0.0,0.0,0.0,0.0,-2.9947,-2.8373,0.0,0.0,0.0,-2.5562,-2.6707,0.0,0.0,0.0,0.0,0.0,0.0,0.0,0.0,0.0,0.0,0.0,0.0,0.0,0.0,0.0,0.0,0.0,0.0,0.0,0.0,0.0,0.0,0.0,0.0,0.0,0.0,0.0,0.0,0.0,0.0,0.0,0.0,0.0,0.0,0.0,0.0,0.0,0.0,0.0,0.0,0.0,0.0,0.0,0.0,0.0,0.0,0.0,0.0,0.0,0.0,0.0,0.0,0.0,0.0,0.0,0.0,0.0,-8.311,-8.6399,-8.8248,-8.8457,-8.9504,-8.9735,-8.904,-8.7978,0.0,0.0,0.0,0.0,0.0,0.0,0.0,0.0,0.0,0.0,0.0,0.0,0.0,0.0,0.0,0.0,0.0,0.0,0.0,0.0,0.0,0.0,0.0,0.0,0.0,0.0,0.0,-3.5647,0.0,0.0,0.0,0.0,0.0,0.0,0.0,0.0,0.0,0.0,0.0,0.0,0.0,0.0,-3.019,-3.142,-3.0608,-3.0514,0.0,0.0,-2.7776,-2.891,-2.662,-2.392,0.0,0.0,0.0,0.0,0.0,0.0,0.0,0.0,0.0,0.0,0.0,0.0,0.0,0.0,0.0,0.0,0.0,0.0,0.0,0.0,0.0,0.0,0.0,0.0,0.0,0.0,0.0,0.0,0.0,0.0,0.0,0.0,0.0,0.0,0.0,0.0,0.0,0.0,0.0,0.0,0.0,0.0,0.0,0.0,0.0,0.0,0.0,0.0,0.0,0.0,0.0,0.0,0.0,0.0,-8.4605,-8.4996,-8.7576,-8.9617,-9.0858,-9.1043,-9.0873,-9.0445,-8.9325,-8.6246,0.0,0.0,0.0,0.0,0.0,0.0,0.0,0.0,0.0,0.0,0.0,0.0,0.0,0.0,0.0,0.0,0.0,0.0,0.0,0.0,0.0,0.0,0.0,0.0,0.0,0.0,0.0,0.0,0.0,0.0,0.0,0.0,0.0,0.0,0.0,0.0,0.0,0.0,0.0,0.0,0.0,-3.0531,-3.1928,-3.2216,-3.2952,0.0,-3.3321,-3.2083,-3.2905,-3.1312,-2.8941,-2.5872,0.0,0.0,0.0,0.0,0.0,0.0,0.0,0.0,0.0,0.0,0.0,0.0,0.0,0.0,0.0,0.0,0.0,0.0,0.0,0.0,0.0,0.0,0.0,0.0,0.0,0.0,0.0,0.0,0.0,0.0,0.0,0.0,0.0,0.0,0.0,0.0,0.0,0.0,0.0,0.0,0.0,0.0,0.0,0.0,0.0,0.0,0.0,0.0,0.0,0.0,0.0,0.0,0.0,-8.5432,-8.6036,-8.9247,-9.1163,-9.179,-9.2165,-9.1801,-9.0629,-8.9605,-8.7233,0.0,0.0,0.0,0.0,0.0,0.0,0.0,0.0,0.0,0.0,0.0,0.0,0.0,0.0,0.0,0.0,0.0,0.0,0.0,0.0,0.0,0.0,0.0,0.0,0.0,0.0,0.0,0.0,-3.8651,-3.7848,-3.6598,0.0,0.0,0.0,0.0,0.0,0.0,0.0,0.0,0.0,0.0,-3.3677,-3.3806,-3.4032,0.0,0.0,-3.4296,-3.2835,-3.3723,-3.1364,-2.9099,-2.772,-2.4613,0.0,0.0,0.0,0.0,0.0,0.0,0.0,0.0,0.0,0.0,0.0,0.0,0.0,0.0,0.0,0.0,0.0,0.0,0.0,0.0,0.0,0.0,0.0,0.0,0.0,0.0,0.0,0.0,0.0,0.0,0.0,0.0,0.0,0.0,0.0,0.0,0.0,0.0,0.0,0.0,0.0,0.0,0.0,0.0,0.0,0.0,0.0,0.0,0.0,0.0,0.0,0.0,-8.6304,-8.7155,-9.0452,-9.2239,-9.246,-9.2831,-9.2427,-9.1033,-9.0151,-8.8338,0.0,0.0,0.0,0.0,0.0,0.0,0.0,0.0,0.0,0.0,0.0,0.0,0.0,0.0,0.0,0.0,0.0,0.0,0.0,0.0,0.0,0.0,0.0,0.0,0.0,0.0,0.0,0.0,-3.9234,-3.8746,-3.7856,0.0,0.0,0.0,0.0,0.0,0.0,0.0,0.0,0.0,0.0,-3.5941,-3.5808,-3.605,-3.6453,-3.6905,-3.4886,-3.3383,-3.3858,-3.1345,-2.9136,-2.7974,0.0,0.0,0.0,0.0,0.0,0.0,0.0,0.0,0.0,0.0,0.0,0.0,0.0,0.0,0.0,0.0,0.0,0.0,0.0,0.0,0.0,0.0,0.0,0.0,0.0,0.0,0.0,-6.1119,0.0,0.0,-6.152,0.0,0.0,0.0,0.0,0.0,0.0,0.0,0.0,0.0,0.0,0.0,0.0,0.0,0.0,0.0,0.0,0.0,0.0,0.0,0.0,0.0,0.0,-8.7366,-8.8479,-9.0987,-9.2533,-9.327,-9.3162,-9.2684,-9.1803,-9.096,-8.9688,-8.7705,0.0,0.0,0.0,0.0,0.0,0.0,0.0,0.0,0.0,0.0,0.0,0.0,0.0,0.0,0.0,0.0,0.0,0.0,0.0,0.0,0.0,0.0,0.0,0.0,0.0,0.0,-3.9599,-3.9511,-3.9821,0.0,0.0,0.0,0.0,0.0,0.0,0.0,0.0,0.0,0.0,-3.5759,-3.6459,-3.7538,-3.8409,-3.8382,-3.7491,-3.5607,-3.4108,-3.3314,-3.2101,-2.9947,0.0,0.0,0.0,0.0,0.0,0.0,0.0,0.0,0.0,0.0,0.0,0.0,0.0,0.0,0.0,0.0,0.0,0.0,0.0,0.0,0.0,0.0,0.0,0.0,0.0,0.0,0.0,-6.4487,-6.4794,0.0,0.0,0.0,0.0,0.0,0.0,0.0,0.0,0.0,0.0,0.0,-8.373,-8.5584,0.0,0.0,0.0,0.0,0.0,0.0,0.0,0.0,0.0,0.0,0.0,0.0,-8.9911,-9.1306,-9.2927,-9.3896,-9.4153,-9.3456,-9.2978,-9.2648,-9.1176,-8.9236,-8.6777,0.0,0.0,0.0,0.0,0.0,0.0,0.0,0.0,0.0,0.0,0.0,0.0,0.0,0.0,0.0,0.0,0.0,0.0,0.0,0.0,0.0,0.0,0.0,0.0,0.0,-4.1397,0.0,0.0,0.0,0.0,0.0,0.0,0.0,0.0,0.0,0.0,0.0,-3.7387,-3.7847,-3.8871,-3.9374,-3.8905,-3.9539,-3.9464,0.0,0.0,0.0,0.0,0.0,0.0,0.0,0.0,0.0,0.0,0.0,0.0,0.0,0.0,-1.3849,-1.104,-0.955,-0.8407,-0.7592,0.0,0.0,0.0,0.0,0.0,0.0,0.0,0.0,0.0,0.0,0.0,0.0,0.0,0.0,-6.939,0.0,-7.0994,0.0,0.0,0.0,0.0,0.0,0.0,0.0,0.0,-8.4681,-8.6335,-8.8016,-8.9449,-8.9972,0.0,-8.9768,-8.8821,0.0,0.0,0.0,0.0,0.0,0.0,0.0,0.0,-9.1994,-9.3379,-9.4351,-9.4921,-9.4964,-9.4007,-9.3233,-9.26,-9.0717,-8.878,-8.6814,-8.4729,-8.316,0.0,0.0,0.0,0.0,0.0,0.0,0.0,0.0,0.0,0.0,0.0,0.0,0.0,0.0,0.0,0.0,0.0,0.0,0.0,0.0,0.0,0.0,0.0,-4.3478,0.0,0.0,0.0,0.0,0.0,0.0,0.0,0.0,0.0,-3.9376,-3.9591,-3.9939,-3.9901,-4.0824,-4.1054,-4.0043,0.0,0.0,0.0,0.0,0.0,0.0,0.0,-3.0967,-2.9908,-2.8661,-2.671,-2.3615,-2.1572,-2.0049,-1.8768,0.0,0.0,-1.3387,-1.1668,-1.0533,-0.9078,-0.764,-0.5626,-0.2826,-0.0809,0.0608,0.0,0.0,0.0,0.0,0.0,0.0,0.0,0.0,-7.4364,-7.5287,0.0,-7.7145,0.0,0.0,0.0,0.0,0.0,-8.3363,0.0,0.0,-9.0649,-9.2593,-9.3374,-9.3522,-9.4042,-9.4861,-9.4909,-9.4552,-9.3633,-9.0546,0.0,0.0,0.0,0.0,0.0,0.0,-9.3441,-9.4796,-9.523,-9.552,-9.5663,-9.4705,-9.3444,-9.1813,-8.9911,-8.8615,-8.7784,-8.6059,-8.3968,-8.1364,-7.8134,0.0,0.0,0.0,0.0,0.0,0.0,0.0,0.0,0.0,0.0,0.0,0.0,0.0,0.0,0.0,0.0,0.0,0.0,0.0,0.0,-4.7775,0.0,0.0,0.0,0.0,0.0,0.0,0.0,0.0,0.0,0.0,-4.2348,-4.2312,-4.2168,-4.155,0.0,0.0,0.0,0.0,-3.8791,-3.7855,-3.56,-3.3842,-3.301,-3.2118,-3.0869,-2.9135,0.0,0.0,-2.493,-2.4089,-2.2907,-2.057,-1.9402,-1.8351,-1.611,-1.4186,-1.2711,-1.1718,-0.9151,-0.591,-0.3243,-0.2649,-0.2247,-7.238,0.0,0.0,0.0,0.0,-7.1745,-7.36,-7.6369,-7.8524,-7.9776,-8.0133,-8.1295,0.0,0.0,0.0,0.0,0.0,0.0,-8.7953,-9.0908,-9.1869,-9.3281,-9.5179,-9.5897,-9.6327,-9.6614,-9.7382,-9.7654,-9.7382,-9.6925,-9.469,-9.0905,0.0,0.0,0.0,0.0,-9.6337,-9.6306,-9.5854,-9.5291,-9.4779,-9.3859,-9.3097,-9.2366,-9.1139,-9.0115,-8.9183,-8.7537,-8.6096,-8.4679,-8.0949,0.0,0.0,0.0,0.0,0.0,0.0,0.0,0.0,0.0,0.0,0.0,0.0,0.0,0.0,0.0,0.0,0.0,0.0,0.0,-4.6284,-4.735,-4.7475,0.0,0.0,0.0,0.0,0.0,0.0,0.0,0.0,0.0,-4.3622,-4.3143,-4.2821,0.0,0.0,-4.2256,-4.1908,-4.0832,-3.9511,-3.8574,-3.7065,0.0,-3.5102,-3.3934,-3.317,-3.2839,-3.145,-2.9401,-2.685,-2.516,-2.329,-2.0787,-2.0139,-1.9303,-1.786,-1.6661,-1.5761,-1.499,-1.3086,-1.0157,-0.6388,-0.5153,-0.4342,-7.7965,-7.6281,-7.4179,-7.3942,-7.489,-7.5316,-7.7338,-8.0464,-8.2887,-8.381,-8.3671,-8.5477,-8.4801,-8.229,-8.3447,0.0,0.0,0.0,-9.1032,-9.3851,-9.4023,-9.5071,-9.6888,-9.7559,-9.8045,-9.8408,-9.9098,-9.9441,-9.9441,-10.0097,-9.8566,-9.5062,0.0,0.0,-9.6587,-9.7445,-9.7946,-9.7862,-9.6818,-9.5835,-9.4964,-9.3034,-9.2038,-9.2068,-9.0316,-8.9105,-8.8777,-8.7605,-8.6747,-8.6199,-8.346,-8.0975,0.0,0.0,0.0,0.0,0.0,0.0,0.0,0.0,0.0,0.0,0.0,-5.2938,-5.1066,0.0,0.0,0.0,-5.1378,-4.9897,-4.7949,-4.8929,0.0,0.0,0.0,0.0,0.0,0.0,0.0,-4.4607,-4.5184,-4.5412,-4.4405,-4.3917,-4.3595,-4.3341,-4.3046,-4.2768,-4.2255,0.0,-3.9444,-3.8703,-3.7547,-3.6415,-3.5838,-3.508,-3.4673,-3.4682,-3.2583,-3.0267,-2.8131,-2.6142,-2.3892,-2.1612,-2.0772,-2.0301,-1.9104,-1.8354,-1.7284,-1.5842,-1.468,-1.2299,-0.7799,-0.6752,-0.5508,-8.2441,-8.2137,-7.733,-7.6679,-7.8757,-7.893,-8.1202,-8.489,-8.7012,-8.7479,-8.6938,-8.9594,-8.9211,-8.6681,-8.8202,0.0,-9.214,-9.3449,-9.4895,-9.6608,-9.686,-9.7587,-9.8581,-9.8747,-9.9236,-10.0095,-10.0304,-10.0407,-10.0469,-10.0944,-10.0611,-9.9584,-9.8486,-9.8681,-9.9942,-9.8763,-9.8563,-9.9531,-9.7778,-9.6609,-9.5955,-9.2373,-9.0783,-9.1461,-8.8243,-8.6915,-8.7536,-8.6846,-8.6398,-8.6398,-8.5412,-8.3389,-8.0098,0.0,0.0,0.0,0.0,0.0,0.0,0.0,0.0,0.0,0.0,0.0,0.0,0.0,0.0,-5.553,-5.5446,0.0,-5.2354,-5.1532,0.0,0.0,0.0,-4.6675,-4.6106,-4.7555,-4.7601,-4.5097,0.0,0.0,-4.5021,-4.4728,-4.4379,-4.3474,-4.3271,-4.2882,-4.1969,-4.0125,-3.8783,-3.8815,-3.7065,-3.5734,-3.5866,-3.5572,-3.5294,-3.483,-3.3129,-3.0951,-2.863,-2.6654,-2.4594,-2.2403,-2.151,-2.0825,-2.038,-1.9672,-1.839,-1.5432,-1.465,-1.3068,-0.8661,-0.7599,-0.653,-8.3364,-8.3453,-8.2269,-8.1597,-8.1555,-8.2854,-8.4316,-8.599,-8.9236,-9.0072,-8.9485,-9.1499,-9.2384,-9.2468,-9.361,-9.5008,-9.6582,-9.7069,-9.7712,-9.8306,-9.864,-9.9022,-9.9513,-9.9644,-10.0134,-10.0968,-10.1124,-10.1466,-10.1905,-10.1234,-10.0633,-10.0151,-9.9111,-9.9093,-10.0058,-9.9912,-9.9744,-9.9366,-9.7877,-9.6415,-9.4963,-9.3085,-9.2139,-9.2318,-9.0094,-8.8984,-8.9157,-8.7846,-8.7156,-8.7122,-8.4689,-8.3195,-8.2986,-7.9308,0.0,0.0,0.0,0.0,0.0,0.0,0.0,0.0,0.0,-5.8704,-5.5771,0.0,-5.8387,0.0,-5.3709,-5.2658,-5.3397,-5.2396,0.0,0.0,-5.2703,-5.1724,-4.9547,-4.9609,-4.8838,-4.6152,-4.5886,-4.575,-4.528,-4.4779,-4.4515,-4.4051,-4.3838,-4.3562,-4.3088,-4.1024,-3.9466,-3.9273,-3.7718,-3.6466,-3.6714,-3.6421,-3.5445,-3.4006,-3.266,-3.0653,-2.6882,-2.5881,-2.4858,-2.2751,-2.2334,-2.1646,-2.0719,-2.026,-1.9756,-1.7987,-1.7491,-1.5652,-1.0874,-0.994,-0.8601,-8.5307,-8.5846,-8.5846,-8.5673,-8.5264,-8.5575,-8.6289,-8.7465,-8.9907,-9.0764,-9.0458,-9.2344,-9.3821,-9.4932,-9.5938,-9.6945,-9.7943,-9.8312,-9.8442,-9.8383,-9.9095,-9.9371,-9.9269,-9.9746,-10.0272,-10.0766,-10.0922,-10.1289,-10.186,-10.1155,-10.069,-10.038,-9.948,-9.9048,-9.9163,-9.9067,-9.8818,-9.8342,-9.6452,-9.4915,-9.381,-9.2315,-9.1798,-9.233,-9.0384,-8.9293,-8.9594,-8.8189,-8.7294,-8.7143,-8.527,-8.3888,-8.335,-8.0271,-7.7934,0.0,0.0,0.0,0.0,0.0,0.0,0.0,0.0,0.0,0.0,0.0,-5.9869,-5.722,-5.5908,-5.502,-5.4523,-5.3638,-5.2845,-5.2434,-5.278,-5.1975,-4.9501,-4.9637,-4.8989,-4.6743,-4.6743,-4.653,-4.5685,-4.5179,-4.4688,-4.437,-4.4145,-4.3747,-4.3209,-4.1288,-3.9768,-3.9715,-3.8189,-3.652,-3.6233,-3.5431,-3.415,-3.2336,-3.0391,-2.8417,-2.6082,-2.4939,-2.3958,-2.2908,-2.2708,-2.2443,-2.1433,-2.0946,-2.0466,-1.9437,-1.8795,-1.6517,-1.206,-1.0837,-0.944,-8.7633,-8.8568,-8.8736,-8.9012,-8.9258,-8.7917,-8.8002,-8.9108,-9.0214,-9.0932,-9.1391,-9.3088,-9.4592,-9.5854,-9.6837,-9.7551,-9.8201,-9.8661,-9.8671,-9.8295,-9.9338,-9.953,-9.9133,-9.9827,-10.0254,-10.0429,-10.0434,-10.0721,-10.1322,-10.0957,-10.0534,-10.0099,-9.924,-9.8418,-9.7591,-9.6906,-9.6724,-9.6879,-9.4656,-9.3338,-9.2972,-9.124,-9.09,-9.1853,-8.9671,-8.8703,-8.9245,-8.7735,-8.6856,-8.6774,-8.5763,-8.4405,-8.2477,-8.0547,-7.7828,0.0,-7.2818,0.0,0.0,0.0,0.0,0.0,0.0,0.0,0.0,-6.0478,-6.0257,-5.9451,-5.9016,-5.8003,-5.5983,-5.4951,-5.343,-5.1358,-5.1298,-5.0689,-4.8573,-4.9011,-4.8972,-4.7055,-4.7733,-4.7646,-4.6186,-4.5354,-4.4821,-4.4495,-4.422,-4.3921,-4.3084,-4.1275,-4.0006,-4.0276,-3.8414,-3.6418,-3.5418,-3.4032,-3.2449,-3.0616,-2.8302,-2.5874,-2.5406,-2.4139,-2.2984,-2.2984,-2.2968,-2.2684,-2.2055,-2.1315,-2.0562,-1.9718,-1.9198,-1.7048,-1.2539,-1.1061,-0.9393,-8.8669,-8.9722,-9.0574,-9.1531,-9.2363,-9.2156,-9.138,-9.0371,-9.2156,-9.3655,-9.4853,-9.5436,-9.636,-9.7649,-9.8685,-9.9656,-10.0467,-10.0788,-10.0998,-10.1099,-10.1656,-10.189,-10.1759,-10.1332,-10.1522,-10.2109,-10.1388,-10.1344,-10.1928,-10.0922,-9.9767,-9.8466,-9.7432,-9.6363,-9.5346,0.0,0.0,0.0,-9.4552,-9.4031,-9.3897,-9.2031,-9.109,-9.1256,-8.8846,0.0,-8.8463,-8.6478,-8.5516,-8.6015,-8.3691,0.0,0.0,0.0,0.0,0.0,0.0,0.0,0.0,0.0,0.0,0.0,-6.5451,-6.445,-6.2114,-6.0834,-6.0642,-6.1633,-5.7716,-5.5682,-5.7685,-5.4719,-5.328,-5.4272,-5.438,-5.3707,-5.1655,-5.0864,-4.9822,-4.7911,-4.7084,-4.6336,-4.5902,-4.5381,-4.4831,-4.4849,-4.4411,-4.4033,-4.3786,-4.1949,-4.0594,-4.0506,-3.806,-3.6149,-3.5814,-3.4328,-3.2085,-2.9568,-2.806,-2.632,-2.4018,-2.3306,-2.3,-2.3008,-2.3,-2.2716,-2.2063,-2.1323,-2.0825,-1.995,-1.9226,-1.7349,-1.2411,-1.1167,-0.9718,-9.1853,0.0,-9.2992,-9.3438,0.0,-9.3958,-9.3506,-9.2745,-9.334,-9.4738,-9.6614,-9.7498,-9.8508,-9.9514,-10.0113,-10.0627,-10.1131,-10.1543,-10.1593,-10.1375,-10.1701,-10.1464,-10.072,-10.0736,-10.0584,-10.0258,-10.0448,-10.063,-10.0812,-10.0528,-9.9891,-9.8921,-9.7429,-9.609,-9.5042,-9.3461,-9.2727,-9.2897,-9.2646,-9.2351,-9.2135,-9.1603,-9.1301,-9.1467,-8.9114,0.0,0.0,0.0,0.0,0.0,0.0,0.0,0.0,0.0,0.0,-7.5176,-7.3078,-7.0783,-6.8737,-6.8009,-6.7019,-6.5237,-6.516,-6.4492,-6.2661,-6.2456,-6.2288,-6.2041,-5.9327,-5.7884,-5.8037,-5.5909,-5.4453,-5.4123,-5.4166,-5.3556,-5.2433,-5.055,-4.9355,-4.8994,-4.7479,-4.6177,-4.6177,-4.5568,-4.5222,-4.5257,-4.4598,-4.4248,-4.4033,-4.2294,-4.068,-3.9826,-3.7789,-3.5842,-3.5151,-3.2976,-3.0639,-2.7754,-2.6404,-2.5296,-2.3281,-2.3008,-2.3154,-2.3236,-2.326,-2.2965,-2.256,-2.2039,-2.1285,-2.0665,-1.9918,-1.755,-1.2801,-1.1225,-0.9701,-9.495,-9.5265,-9.5392,-9.5179,-9.4804,-9.5057,-9.5267,-9.524,0.0,0.0,0.0,-9.9158,-10.0131,-10.095,-10.1023,-10.1171,-10.1251,-10.171,-10.1621,-10.1097,-10.1338,-10.0773,-9.9609,-9.996,-9.9438,-9.8197,-9.9279,-9.9678,-9.9473,-10.0209,-10.0203,-9.9431,-9.7718,-9.6158,-9.4699,-9.2788,-9.1397,-9.0629,-9.0557,-9.0516,-9.0481,-9.0692,-9.1099,-9.1709,-8.9267,-8.754,-8.6734,-8.4937,-8.3503,-8.2748,-8.2707,-8.2356,-8.1787,-7.925,-7.6919,-7.5058,-7.1942,-6.9576,-6.8109,-6.6752,-6.5606,-6.4821,-6.4466,-6.4052,-6.2998,-6.3902,-6.3782,-6.2202,-6.1898,-6.091,-5.8819,-5.7153,-5.5665,-5.3734,-5.3384,-5.3033,-5.2886,-5.0976,-4.9944,-5.0126,-4.8665,-4.6962,-4.6599,-4.6175,-4.5647,-4.5505,-4.5177,-4.4625,-4.4191,-4.2471,-4.0513,-3.85,-3.6799,-3.5415,-3.3864,-3.1797,-2.8999,-2.6524,-2.5397,-2.4276,-2.3398,-2.3171,-2.3349,-2.3471,-2.3528,-2.3439,-2.3293,-2.2751,-2.2003,-2.1138,-2.0627,-1.8464,-1.3172,-1.1286,-0.9736,-9.5971,-9.6086,-9.7011,-9.715,-9.6777,-9.6859,-9.7052,-9.7311,-9.7162,-9.7946,-9.9368,-9.9628,-10.0189,-10.1038,-10.1088,-10.1364,-10.1804,-10.1864,-10.2021,0.0,-10.2371,-10.2308,-10.2109,-10.0879,-10.0031,-9.963,-9.9561,-9.9435,-9.9319,-10.0508,-10.0169,-9.8181,-9.712,-9.518,-9.2483,-9.1287,-9.0374,-8.9584,-9.0012,-9.0852,-9.2121,-9.0143,-8.9604,-9.0812,-8.7939,-8.5829,-8.5114,-8.2839,-8.1189,-8.0523,-8.0448,-8.052,-8.0384,-7.8959,-7.7652,-7.6267,-7.3036,-7.0407,-6.8706,-6.7615,-6.6568,-6.578,-6.5529,-6.5046,-6.3791,-6.4128,-6.4454,-6.395,-6.2666,-6.143,-6.0333,-5.7153,-5.5452,-5.6003,-5.4752,-5.4359,-5.5733,-5.4768,-5.3219,-5.1973,-5.0495,-4.8672,-4.7232,-4.6767,-4.6431,-4.6091,-4.5743,-4.5203,-4.379,-4.2781,-4.067,-3.7476,-3.556,-3.4347,-3.2708,-3.1103,-2.8986,-2.6529,-2.6163,-2.5473,-2.3236,-2.3252,-2.3455,-2.352,-2.3528,-2.3463,-2.3301,-2.2774,-2.2011,-2.1413,-2.0671,-1.8252,-1.2749,-1.1187,-0.9475,-9.6814,-9.6543,-9.7101,-9.7003,-9.6404,-9.7048,-9.7863,-9.8741,-9.8802,-9.9364,-10.0305,-10.0441,-10.094,-10.1705,-10.1593,-10.1677,-10.1894,-10.2046,-10.2282,-10.2515,-10.2108,-10.1707,-10.1352,-10.0656,-9.9651,-9.8556,-9.9596,-9.9693,-9.9062,-9.9981,-9.9682,-9.8198,-9.6252,-9.4077,-9.1913,-9.1436,-9.0848,-8.9966,-9.0213,-9.0351,-9.0503,-9.0115,-9.0052,-9.0104,-8.7328,-8.5178,-8.3615,-8.1523,-7.9951,-7.8907,-7.9707,-8.0124,-8.0124,-7.8669,-7.7206,-7.5949,-7.2817,-7.029,-6.8674,-6.7585,-6.69,-6.6221,-6.6246,-6.5964,-6.5007,-6.4957,-6.4543,-6.3497,-6.2856,-6.1699,-5.9949,-5.8139,-5.702,-5.7055,-5.6336,-5.6043,-5.6382,-5.4795,-5.3197,-5.1886,-5.0029,-4.8357,-4.7618,-4.738,-4.7041,-4.6463,-4.6023,-4.4902,-4.3703,-4.3076,-4.1556,-3.8255,-3.6082,-3.4295,-3.2691,-3.1125,-2.9208,-2.6923,-2.6621,-2.5608,-2.3817,-2.3301,-2.3406,-2.3504,-2.3528,-2.3496,-2.3406,-2.3166,-2.2646,-2.1647,-2.1129,-1.8458,-1.3601,-0.9679,-0.6501,-9.7597,-9.7017,-9.7185,-9.6841,-9.6442,-9.7319,-9.8492,-9.9683,-9.9843,-10.029,-10.0862,-10.1067,-10.1477,-10.2058,-10.198,-10.1923,-10.2007,-10.2249,-10.2452,-10.2507,-10.1905,-10.1249,-10.061,-10.0399,-9.9266,-9.7751,-9.9196,-9.958,-9.8895,-9.9401,-9.9114,-9.7916,-9.5146,-9.306,-9.1803,-9.1803,-9.1285,-9.0231,-9.0295,-8.9922,-8.9142,-9.0185,-9.0295,-8.9185,-8.7284,-8.4902,-8.2367,-8.0767,-7.9351,-7.821,-7.9264,-7.994,-7.9988,-7.8483,-7.6975,-7.5443,-7.2551,-7.0071,-6.8704,-6.7841,-6.7255,-6.6964,-6.6847,-6.6738,-6.6535,-6.6112,-6.5171,-6.3592,-6.3662,-6.2824,-6.0836,-5.9772,-5.9247,-5.8697,-5.8329,-5.8174,-5.7841,-5.55,-5.332,-5.2303,-5.0069,-4.8396,-4.7882,-4.7707,-4.7292,-4.6493,-4.5778,-4.4819,-4.4106,-4.3672,-4.2019,-3.9214,-3.67,-3.447,-3.2685,-3.1253,-2.9511,-2.7455,-2.7025,-2.5943,-2.441,-2.3515,-2.3366,-2.3496,-2.3528,-2.352,-2.3528,-2.352,-2.3029,-2.2039,-2.1064,-1.8377,-1.1987,-0.7309,-0.4128,-9.8271,-9.8235,-9.8126,-9.8217,-9.817,-9.8469,-9.902,-9.9736,-10.0277,-10.0742,-10.1081,-10.1088,-10.125,-10.155,-10.1812,-10.2046,-10.2264,-10.242,-10.2517,-10.2593,-10.2569,-10.2139,-10.1319,-10.0568,-9.9444,-9.8139,-9.8208,-9.8431,-9.8516,-9.9198,-9.8583,-9.6536,-9.411,-9.2584,-9.1913,-9.184,-9.098,-8.9278,-8.9871,-9.0089,-8.9914,-8.9839,-8.936,-8.8538,-8.7408,-8.5168,-8.1747,-8.0544,-7.951,-7.8241,-7.88,-7.9478,-7.9789,-7.8483,-7.7033,-7.6051,-7.3164,-7.0501,-6.8996,-6.8357,-6.8061,-6.8092,-6.78,-6.7486,-6.7518,-6.7568,-6.7091,-6.5819,-6.5397,-6.4702,-6.4031,-6.2113,-6.1445,-6.2029,-6.0928,-6.0544,-6.1016,-5.9749,-5.748,-5.501,-5.2096,-5.0317,-4.8571,-4.7672,-4.7129,-4.618,-4.5801,-4.5567,-4.5277,-4.4029,-4.2296,-3.928,-3.6828,-3.4472,-3.1837,-3.0692,-2.9848,-2.8682,-2.762,-2.6554,-2.521,-2.4118,-2.352,-2.3504,-2.3528,-2.3528,-2.3528,-2.3528,-2.3287,-2.207,-1.9859,-1.6165,-0.9994,-0.6065,-0.4112,-9.7005,-9.7005,-9.7166,-9.7801,-9.8553,-9.8705,-9.9273,-10.0277,-10.0471,-10.0793,-10.1091,-10.1251,-10.1469,-10.1742,-10.2018,-10.2215,-10.2311,-10.2439,-10.2503,-10.2537,-10.2654,-10.2246,-10.1406,-10.0384,-9.9211,-9.8065,-9.7759,-9.7591,-9.7571,-9.7616,-9.6873,-9.5585,-9.4288,-9.3527,-9.3272,-9.271,-9.1551,-8.9907,-9.0404,-9.0125,-8.901,-8.8949,-8.8497,-8.7498,-8.6252,-8.4273,-8.1432,-8.0111,-7.9026,-7.8088,-7.8688,-7.9114,-7.9038,-7.7618,-7.6138,-7.4407,-7.1333,-6.9307,-6.8821,-6.8345,-6.8396,-6.8758,-6.8315,-6.8093,-6.7769,-6.7819,-6.7417,-6.6841,-6.6292,-6.5595,-6.4802,-6.3554,-6.2943,-6.3145,-6.2612,-6.1733,-6.0332,-5.9454,-5.748,-5.369,-5.1943,-5.055,-4.8663,-4.7509,-4.6818,-4.639,-4.5991,-4.5738,-4.5806,-4.3944,-4.1452,-3.8958,-3.6382,-3.3779,-3.1207,-3.0826,-3.041,-2.9252,-2.8129,-2.6749,-2.5573,-2.4425,-2.3528,-2.3528,-2.3528,-2.3528,-2.3528,-2.3528,-2.3287,-2.1578,-1.7417,-1.3237,-1.0472,-0.6777,-0.4346,-9.618,-9.6259,-9.6572,-9.7488,-9.8621,-9.8584,-9.9136,-9.9869,-9.9916,-10.0147,-10.048,-10.0668,-10.0975,-10.1398,-10.1982,-10.2288,-10.2311,-10.2452,-10.2382,-10.2197,-10.2303,-10.1788,-10.0709,-9.9769,-9.8714,-9.7644,-9.7187,-9.6903,-9.6591,-9.6138,-9.5465,-9.4647,-9.3957,-9.3602,-9.3527,-9.2648,-9.1475,-9.007,-9.0047,-8.917,-8.7745,-8.7642,-8.7462,-8.6724,-8.6014,-8.4118,-8.1125,-8.0103,-7.9219,-7.8616,-7.9109,-7.9086,-7.8235,-7.6946,-7.5049,-7.2534,-6.9854,-6.8403,-6.8654,-6.8307,-6.8314,-6.8892,-6.8623,-6.8373,-6.802,-6.802,-6.7693,-6.6813,-6.6339,-6.5594,-6.4703,-6.3934,-6.3409,-6.2889,-6.2865,-6.1641,-5.9692,-5.8865,-5.6653,-5.2714,-5.1316,-5.0087,-4.8084,-4.7039,-4.6434,-4.6177,-4.5959,-4.5738,-4.559,-4.3835,-4.1635,-3.8974,-3.627,-3.3865,-3.1448,-3.1041,-3.0707,-3.0004,-2.8782,-2.7578,-2.6159,-2.4966,-2.377,-2.377,-2.3528,-2.3528,-2.3528,-2.3528,-2.2304,-1.9374,-1.57,-1.1751,-0.8983,-0.6041,-0.4083,-9.6685,-9.6762,-9.7354,-9.7916,-9.8416,-9.8454,-9.8314,-9.8388,-9.8311,-9.8587,-9.9085,-9.9116,-9.9366,-10.0089,-10.1495,-10.2249,-10.2278,-10.2374,-10.2015,-10.1304,-10.1465,-10.0626,-9.8955,-9.8587,-9.7867,-9.6869,-9.6394,-9.6121,-9.592,-9.5386,-9.4697,-9.402,-9.286,-9.2024,-9.2097,-9.1339,-9.0213,-8.9376,-8.8381,-8.7193,-8.6267,-8.5891,-8.6298,-8.666,-8.7007,-8.5133,-8.1547,-8.0986,-8.0585,-7.9971,-7.994,-7.939,-7.8142,-7.6826,-7.4436,-7.088,-6.9433,-6.8654,-6.8307,-6.8355,-6.8406,-6.8471,-6.8651,-6.8572,-6.8497,-6.8447,-6.769,-6.6465,-6.5989,-6.5144,-6.4111,-6.3244,-6.2582,-6.1955,-6.1461,-6.1011,-6.0241,-5.8297,-5.5847,-5.3075,-5.0932,-4.8916,-4.6521,-4.6082,-4.5882,-4.5856,-4.5977,-4.5922,-4.5312,-4.4914,-4.2538,-3.8913,-3.6807,-3.5402,-3.2107,-3.1181,-3.1192,-3.0717,-2.9527,-2.8563,-2.7358,-2.6159,-2.4966,-2.4011,-2.3528,-2.3528,-2.3528,-2.2304,-2.0587,-1.8134,-1.5435,-1.1958,-0.8948,-0.5551,-0.3594,-9.6952,-9.7391,-9.7636,-9.7979,-9.8378,-9.8394,-9.8288,-9.8074,-9.8082,-9.8439,-9.8946,-9.9011,-9.9371,-9.9968,-10.0552,-10.0787,-10.0767,-10.0929,-10.0808,-10.0466,-10.0563,-10.0175,-9.9328,-9.8489,-9.777,-9.708,-9.6212,-9.5547,-9.5186,-9.499,-9.4659,-9.4102,-9.36,-9.3382,-9.3121,-9.1795,-9.0831,-9.0249,-8.9151,-8.8227,-8.7633,-8.8374,-8.8475,-8.7435,-8.5298,-8.2846,-7.976,-7.9289,-7.8904,-7.8501,-7.8794,-7.8595,-7.7581,-7.6234,-7.4155,-7.1338,-7.0202,-6.9749,-6.9331,-6.8732,-6.8747,-6.9435,-6.8851,-6.8597,-6.8547,-6.7965,-6.721,-6.6459,-6.5533,-6.469,-6.3729,-6.2968,-6.2287,-6.1514,-6.1144,-6.0577,-5.9669,-5.8886,-5.7134,-5.307,-4.9883,-4.7222,-4.6431,-4.6065,-4.5951,-4.6131,-4.6337,-4.6069,-4.5448,-4.4205,-4.1784,-3.8502,-3.6167,-3.4241,-3.1667,-3.1192,-3.1192,-3.0717,-2.9993,-2.8802,-2.7597,-2.6399,-2.5198,-2.377,-2.3528,-2.3528,-2.3528,-2.3037,-2.0836,-1.9118,-1.6408,-1.2422,-0.9635,-0.6009,-0.4047,-9.7391,-9.7972,-9.7974,-9.8057,-9.8262,-9.806,-9.7725,-9.7401,-9.7465,-9.7825,-9.8261,-9.8398,-9.8714,-9.9102,-9.9187,-9.9201,-9.924,-9.977,-9.9921,-9.9603,-9.967,-9.9358,-9.8675,-9.7817,-9.7285,-9.6865,-9.5877,-9.4969,-9.4454,-9.4286,-9.3871,-9.3356,-9.3418,-9.3452,-9.3024,-9.1641,-9.0747,-9.0235,-8.9258,-8.8379,-8.8225,-8.8931,-8.8506,-8.6501,-8.3835,-8.2052,-8.0585,-7.9849,-7.9066,-7.8672,-7.8719,-7.8165,-7.6881,-7.5693,-7.4154,-7.2387,-7.1905,-7.1309,-7.0245,-6.9377,-6.902,-6.908,-6.8675,-6.8296,-6.7943,-6.7214,-6.6586,-6.5631,-6.5007,-6.419,-6.3177,-6.2593,-6.1891,-6.1001,-6.0614,-5.9931,-5.8912,-5.8774,-5.6598,-5.2429,-4.8253,-4.6229,-4.5681,-4.5474,-4.5697,-4.6097,-4.6249,-4.5717,-4.4955,-4.3598,-4.113,-3.7796,-3.5961,-3.417,-3.2129,-3.1192,-3.1181,-3.0944,-3.048,-2.9279,-2.7817,-2.6621,-2.519,-2.4003,-2.3528,-2.3528,-2.3287,-2.3045,-2.2062,-2.0594,-1.6889,-1.2435,-0.9414,-0.6464,-0.4737,-9.8076,-9.8604,-9.8498,-9.83,-9.8066,-9.7516,-9.6648,-9.6124,-9.6286,-9.6668,-9.7042,-9.706,-9.744,-9.755,-9.7862,-9.7689,-9.7974,-9.9095,-9.9334,-9.8755,-9.8704,-9.8056,-9.7076,-9.6654,-9.6294,-9.6021,-9.5134,-9.4378,-9.3781,-9.3289,-9.2684,-9.2057,-9.2023,-9.1943,-9.1269,-9.0494,-8.9646,-8.9199,-8.8189,-8.7477,-8.7375,-8.7423,-8.6226,-8.3877,-8.3163,-8.3159,-8.3714,-8.2324,-8.0894,-8.0156,-7.9697,-7.8278,-7.6447,-7.5526,-7.4688,-7.4372,-7.4083,-7.3018,-7.0831,-7.0409,-6.9475,-6.8014,-6.7718,-6.7593,-6.674,-6.6341,-6.5542,-6.4397,-6.4051,-6.3657,-6.2744,-6.2178,-6.1375,-6.0472,-5.953,-5.8905,-5.8227,-5.7665,-5.5861,-5.1429,-4.7554,-4.5097,-4.4724,-4.4816,-4.5104,-4.5532,-4.5281,-4.4499,-4.405,-4.3425,-4.1115,-3.7649,-3.6179,-3.4897,-3.3063,-3.1192,-3.1181,-3.1171,-3.0707,-2.9993,-2.8027,-2.6575,-2.5386,-2.4202,-2.352,-2.352,-2.3528,-2.3037,-2.179,-2.006,-1.612,-1.3378,-1.0832,-0.8335,-0.5896,-9.8076,-9.8741,-9.9177,-9.8933,-9.8249,-9.8078,-9.7239,-9.5977,-9.6166,-9.6452,-9.6785,-9.7032,-9.7301,-9.7554,-9.761,-9.757,-9.7577,-9.7598,-9.761,-9.7776,-9.7304,-9.6623,-9.5843,-9.5177,-9.4844,-9.4895,-9.4801,-9.4325,-9.3723,-9.3088,-9.2436,-9.1912,-9.1803,-9.1611,-9.115,-9.03,-8.9694,-8.9495,-8.8525,-8.8218,-8.8439,-8.7505,-8.6545,-8.5801,-8.4083,-8.3059,-8.2905,-8.0842,-7.9223,-7.8486,-7.8668,-7.8407,-7.7967,-7.7623,-7.6962,-7.5963,-7.5555,-7.468,-7.2968,-7.2308,-7.1088,-6.9274,-6.8655,-6.7613,-6.6066,-6.5194,-6.445,-6.3589,-6.3167,-6.272,-6.2202,-6.1494,-6.0892,-5.986,-5.928,-5.8529,-5.7584,-5.5137,-5.2692,-5.1128,-4.7252,-4.501,-4.5021,-4.4876,-4.5039,-4.5013,-4.4964,-4.4483,-4.3237,-4.2971,-4.1829,-3.8515,-3.7588,-3.6004,-3.3618,-3.1996,-3.1546,-3.1085,-3.0395,-2.9611,-2.7911,-2.6529,-2.5333,-2.4177,-2.3737,-2.352,-2.3528,-2.3029,-2.2024,-2.0466,-1.7958,-1.5423,-1.3372,-1.0667,-0.801,-9.8327,-9.8787,-9.9478,-9.922,-9.8385,-9.8162,-9.7324,-9.6136,-9.6404,-9.6682,-9.6904,-9.7216,-9.7483,-9.7636,-9.7641,-9.7422,-9.7094,-9.6542,-9.6412,-9.6497,-9.6057,-9.5399,-9.4839,-9.4415,-9.4214,-9.4294,-9.4351,-9.4122,-9.3664,-9.2765,-9.2089,-9.173,-9.1577,-9.1269,-9.0831,-9.0206,-8.9745,-8.9463,-8.8988,-8.8855,-8.8712,-8.7829,-8.6819,-8.594,-8.4059,-8.2419,-8.1411,-7.9636,-7.8547,-7.8187,-7.8407,-7.8566,-7.846,-7.8704,-7.842,-7.752,-7.6876,-7.591,-7.4347,-7.3292,-7.2287,-7.0383,-6.8942,-6.7742,-6.6192,-6.4849,-6.3808,-6.3022,-6.2576,-6.2226,-6.178,-6.1215,-6.0487,-6.0054,-5.9471,-5.889,-5.7695,-5.4732,-5.2267,-5.1041,-4.795,-4.5859,-4.4997,-4.5082,-4.4989,-4.4632,-4.445,-4.4156,-4.262,-4.2221,-4.0674,-3.9335,-3.8331,-3.641,-3.4107,-3.2766,-3.1907,-3.0988,-3.0054,-2.8493,-2.697,-2.6162,-2.5042,-2.4177,-2.3504,-2.352,-2.3528,-2.3528,-2.2764,-2.1151,-1.9359,-1.6924,-1.4455,-1.2426,-1.0191,-9.881,-9.8874,-9.9517,-9.9351,-9.8472,-9.7863,-9.7058,-9.6286,-9.6732,-9.7005,-9.711,-9.746,-9.7667,-9.7689,-9.7648,-9.7186,-9.643,-9.6137,-9.5639,-9.5069,-9.4661,-9.425,-9.3707,-9.3755,-9.3965,-9.4128,-9.3758,-9.361,-9.3507,-9.2225,-9.1508,-9.1616,-9.1269,-9.0728,-9.0445,-8.9966,-8.9604,-8.9245,-8.9116,-8.9038,-8.8813,-8.7595,-8.6062,-8.4505,-8.3019,-8.1473,-8.0011,-7.9354,-7.9242,-7.9332,-7.8813,-7.8489,-7.8107,-7.8622,-7.8716,-7.8179,-7.8088,-7.6761,-7.5101,-7.4222,-7.281,-7.1042,-6.9014,-6.7205,-6.6429,-6.4901,-6.3457,-6.2648,-6.2226,-6.1851,-6.1475,-6.0921,-6.0365,-6.021,-5.9523,-5.9047,-5.8762,-5.5963,-5.3177,-5.1189,-4.8805,-4.6304,-4.4807,-4.5001,-4.4665,-4.4184,-4.3607,-4.2893,-4.2171,-4.1412,-4.025,-3.942,-3.8878,-3.7162,-3.4901,-3.3046,-3.1907,-2.9621,-2.873,-2.7519,-2.6207,-2.5386,-2.4803,-2.3928,-2.3504,-2.352,-2.3528,-2.3287,-2.3013,-2.1451,-1.9722,-1.7568,-1.6003,-1.4388,-1.331,-9.8772,-9.8949,-10.0222,-9.9936,-9.8669,-9.8442,-9.7704,-9.6583,-9.6837,-9.7051,-9.7255,-9.7544,-9.7675,-9.7689,-9.7617,-9.714,-9.63,-9.5593,-9.4849,-9.3974,-9.3025,-9.2392,-9.1997,-9.2253,-9.2754,-9.3106,-9.2823,-9.2765,-9.3165,-9.1981,-9.1574,-9.2081,-9.1269,-9.0962,-9.0963,-9.0179,-8.9601,-8.916,-8.9106,-8.8586,-8.7562,-8.6338,-8.4822,-8.315,-8.1777,-8.0601,-7.9505,-7.9076,-7.8933,-7.8933,-7.8499,-7.8295,-7.8086,-7.8122,-7.7888,-7.7621,-7.7324,-7.7024,-7.6183,-7.5459,-7.424,-7.2271,-6.9985,-6.7996,-6.6208,-6.4503,-6.3057,-6.2146,-6.1851,-6.1499,-6.0968,-6.0458,-6.006,-5.9363,-5.8616,-5.8141,-5.72,-5.3998,-5.12,-5.0781,-4.7821,-4.5942,-4.5156,-4.4649,-4.4061,-4.3463,-4.2776,-4.2035,-4.1303,-4.1178,-4.0515,-4.0243,-3.9616,-3.7916,-3.5773,-3.3724,-3.1393,-2.8783,-2.7413,-2.6144,-2.5369,-2.4682,-2.4093,-2.3479,-2.3512,-2.3528,-2.3287,-2.3045,-2.2258,-2.1729,-2.048,-1.8764,-1.8594,-1.7451,-1.6633,-9.8928,-9.916,-10.0589,-10.048,-9.925,-9.8904,-9.816,-9.7277,-9.7004,-9.7091,-9.7316,-9.7593,-9.7689,-9.7672,-9.7616,-9.6891,-9.5775,-9.5159,-9.4139,-9.2793,-9.1876,-9.1315,-9.1141,-9.1438,-9.1728,-9.186,-9.1978,-9.2107,-9.2179,-9.1767,-9.1703,-9.1496,-9.1189,-9.0856,-9.0478,-8.9985,-8.9409,-8.9004,-8.8586,-8.7712,-8.6786,-8.4916,-8.3412,-8.1985,-8.071,-7.9789,-7.922,-7.8933,-7.8789,-7.8789,-7.8499,-7.809,-7.7852,-7.721,-7.6946,-7.668,-7.6532,-7.6322,-7.6254,-7.583,-7.4885,-7.3275,-7.0799,-6.8664,-6.701,-6.4827,-6.2575,-6.1922,-6.1499,-6.0968,-6.0481,-6.006,-5.959,-5.9019,-5.7747,-5.705,-5.7393,-5.4985,-5.259,-5.1212,-4.9028,-4.6539,-4.5652,-4.4756,-4.3688,-4.2666,-4.2142,-4.1526,-4.0912,-4.0988,-4.1002,-4.0689,-4.0277,-3.8665,-3.6462,-3.413,-3.0805,-2.7972,-2.6062,-2.4768,-2.4495,-2.4018,-2.3853,-2.3471,-2.3504,-2.3287,-2.3045,-2.2803,-2.2296,-2.1526,-2.0984,-2.0211,-1.9612,-1.8999,-1.8622,-9.916,-9.9422,-10.0722,-10.0827,-9.9981,-9.925,-9.858,-9.7886,-9.7416,-9.7266,-9.7383,-9.7602,-9.7662,-9.7613,-9.7574,-9.6685,-9.5056,-9.4966,-9.3512,-9.2134,-9.1104,-9.0724,-9.0684,-9.079,-9.0901,-9.0782,-9.1425,-9.1428,-9.1528,-9.1833,-9.1614,-9.124,-9.1232,-9.0583,-9.002,-8.9437,-8.9004,-8.8552,-8.7829,-8.6699,-8.5662,-8.3769,-8.2356,-8.1063,-8.0011,-7.922,-7.8933,-7.8789,-7.8644,-7.8789,-7.8354,-7.7826,-7.7351,-7.6505,-7.6212,-7.6094,-7.5885,-7.5554,-7.5686,-7.5374,-7.5067,-7.3929,-7.0826,-6.869,-6.7686,-6.4976,-6.2445,-6.1711,-6.1062,-6.0574,-6.0083,-5.9454,-5.8881,-5.8211,-5.689,-5.6559,-5.6832,-5.6589,-5.5145,-5.2228,-5.121,-4.8777,-4.632,-4.4644,-4.3995,-4.217,-4.162,-4.1213,-4.0708,-4.0651,-4.0855,-4.1002,-4.0444,-3.9711,-3.724,-3.4535,-3.0495,-2.6997,-2.5085,-2.3928,-2.3853,-2.3605,-2.3646,-2.3463,-2.3504,-2.3287,-2.2803,-2.2319,-2.1827,-2.1343,-2.0566,-2.0109,-1.9853,-1.9227,-1.884,-9.916,-9.9422,-10.0722,-10.0827,-10.0135,-9.9865,-9.9178,-9.8193,-9.8008,-9.7788,-9.7661,-9.7706,-9.7667,-9.7615,-9.7533,-9.6595,-9.4964,-9.459,-9.3525,-9.1392,-9.0797,-9.0402,-9.0136,-8.9957,-8.9861,-9.0118,-8.9887,-9.0434,-9.129,-9.1703,-9.198,-9.2068,-9.1246,-9.0832,-9.0293,-8.9423,-8.8472,-8.7712,-8.7209,-8.5694,-8.3769,-8.2887,-8.1473,-8.0011,-7.9332,-7.8933,-7.8789,-7.8499,-7.8354,-7.8209,-7.7887,-7.7534,-7.7005,-7.6152,-7.5827,-7.5882,-7.553,-7.5289,-7.5506,-7.5221,-7.476,-7.4268,-7.115,-6.8524,-6.7996,-6.4802,-6.2363,-6.1577,-6.1039,-6.0429,-5.9522,-5.9247,-5.8234,-5.7141,-5.6393,-5.5661,-5.5156,-5.432,-5.3326,-5.1409,-5.0012,-4.814,-4.5339,-4.3963,-4.3225,-4.1943,-4.1265,-4.0867,-4.0752,-4.0607,-4.0768,-4.0973,-4.0819,-3.9854,-3.705,-3.4107,-3.0043,-2.6842,-2.4949,-2.352,-2.3447,-2.3431,-2.3463,-2.3496,-2.352,-2.3045,-2.2561,-2.2077,-2.135,-2.0872,-2.038,-2.0116,-1.9596,-1.93,-1.8712,-9.9422,-9.9936,-10.0928,-10.1058,-10.0635,-10.025,-9.9829,-9.9304,-9.852,-9.8251,-9.8197,-9.7909,-9.7676,-9.7577,-9.7442,-9.6518,-9.4762,-9.3442,-9.2267,-9.1133,-9.0832,-9.0523,-9.0056,-8.9705,-8.9697,-8.9803,-8.9854,-9.0374,-9.1093,-9.1831,-9.2031,-9.187,-9.1264,-9.0469,-9.0001,-8.9373,-8.829,-8.6938,-8.6184,-8.4537,-8.2356,-8.1337,-8.054,-7.9332,-7.8933,-7.8789,-7.8499,-7.8354,-7.8063,-7.7799,-7.7505,-7.721,-7.6563,-7.5742,-7.5446,-7.5467,-7.4942,-7.4666,-7.4906,-7.4914,-7.4451,-7.4296,-7.1204,-6.9353,-6.766,-6.4777,-6.2588,-6.1538,-6.0998,-6.0273,-5.9154,-5.7863,-5.6954,-5.6393,-5.5472,-5.5094,-5.4627,-5.4311,-5.2975,-5.1056,-4.9957,-4.734,-4.5233,-4.3565,-4.2342,-4.1123,-4.0922,-4.0708,-4.0782,-4.0651,-4.0812,-4.1002,-4.1042,-3.9728,-3.7011,-3.3455,-2.9147,-2.6612,-2.4958,-2.4003,-2.3496,-2.3496,-2.352,-2.3528,-2.3287,-2.2803,-2.2077,-2.16,-2.1108,-2.0373,-1.9873,-1.9583,-1.9274,-1.8953,-1.8342,-9.9782,-10.0536,-10.1091,-10.1289,-10.1212,-10.0634,-10.0511,-10.0454,-9.9302,-9.9024,-9.9016,-9.8377,-9.8305,-9.8077,-9.8013,-9.6859,-9.4892,-9.275,-9.1636,-9.1452,-9.14,-9.0966,-9.0437,-9.0214,-8.9942,-8.9313,-8.9745,-9.0331,-9.1088,-9.1757,-9.192,-9.1319,-9.0916,-9.0182,-8.9373,-8.8959,-8.7945,-8.6184,-8.5041,-8.338,-8.1306,-8.0151,-7.9332,-7.8933,-7.8644,-7.8499,-7.8209,-7.8063,-7.7799,-7.709,-7.709,-7.6768,-7.6123,-7.5422,-7.4835,-7.4995,-7.4442,-7.4372,-7.4686,-7.4606,-7.4296,-7.3857,-7.1553,-6.9353,-6.7492,-6.4951,-6.2742,-6.1359,-6.0454,-5.9726,-5.8603,-5.7306,-5.6205,-5.5661,-5.4904,-5.4544,-5.471,-5.531,-5.3528,-5.1075,-4.9936,-4.8088,-4.5039,-4.2959,-4.1738,-4.0926,-4.0708,-4.0504,-4.0577,-4.0665,-4.0782,-4.0707,-4.0703,-3.9221,-3.6513,-3.4791,-3.028,-2.755,-2.5652,-2.4717,-2.3761,-2.3287,-2.3287,-2.3045,-2.2803,-2.2319,-2.1835,-2.1108,-2.0622,-1.988,-1.961,-1.9576,-1.9227,-1.8614,-1.8001,-9.9782,-10.0536,-10.105,-10.1289,-10.1289,-10.135,-10.1119,-10.0851,-10.0533,-10.0437,-9.997,-9.9907,-9.9598,-9.9603,-9.9707,-9.8474,-9.6023,-9.3851,-9.264,-9.2351,-9.2147,-9.1718,-9.0996,-9.0777,-9.0321,-9.0076,-8.9966,-9.0341,-9.1207,-9.1649,-9.1693,-9.1747,-9.0988,-8.9962,-8.9038,-8.8472,-8.736,-8.5073,-8.4187,-8.2755,-8.0401,-7.9475,-7.922,-7.8789,-7.8499,-7.8354,-7.8063,-7.7652,-7.7238,-7.709,-7.6762,-7.6525,-7.6293,-7.565,-7.5381,-7.5312,-7.4666,-7.4212,-7.4464,-7.4324,-7.3673,-7.2699,-7.1204,-6.8857,-6.6644,-6.4454,-6.2564,-6.0817,-5.9726,-5.8625,-5.6767,-5.629,-5.5682,-5.5114,-5.4818,-5.4648,-5.4601,-5.475,-5.4558,-5.229,-5.0791,-4.8491,-4.4923,-4.2403,-4.155,-4.0708,-4.049,-4.0475,-4.0519,-4.0577,-4.0651,-4.0591,-4.0544,-3.8434,-3.604,-3.4962,-3.251,-2.9374,-2.7292,-2.5901,-2.4949,-2.3287,-2.2803,-2.2803,-2.2561,-2.1835,-2.135,-2.0865,-2.038,-1.9894,-1.961,-1.9569,-1.9207,-1.8601,-1.777,-10.0025,-10.0928,-10.121,-10.1058,-10.075,-10.0916,-10.0673,-10.0112,-9.9947,-9.9761,-9.9658,-9.958,-9.953,-9.9541,-9.9905,-9.8685,-9.656,-9.4828,-9.359,-9.2977,-9.2858,-9.2333,-9.1619,-9.1407,-9.1053,-9.0666,-9.0232,-9.052,-9.1498,-9.1316,-9.1266,-9.0848,-9.0143,-8.9116,-8.862,-8.8276,-8.6612,-8.4474,-8.3542,-8.2254,-7.9332,-7.9076,-7.8933,-7.8789,-7.8354,-7.8063,-7.777,-7.7357,-7.6941,-7.6762,-7.6612,-7.6462,-7.6375,-7.593,-7.5664,-7.5354,-7.4621,-7.405,-7.431,-7.4013,-7.3673,-7.2699,-7.088,-6.8664,-6.6303,-6.4104,-6.2077,-6.0068,-5.8809,-5.7787,-5.6546,-5.5999,-5.5554,-5.5358,-5.5014,-5.48,-5.4771,-5.4674,-5.4205,-5.3223,-5.0583,-4.749,-4.3452,-4.155,-4.113,-4.0693,-4.0475,-4.0475,-4.0475,-4.03,-4.0358,-4.0006,-3.9721,-3.84,-3.6472,-3.548,-3.4207,-3.1328,-2.9364,-2.7988,-2.6363,-2.5163,-2.3512,-2.2319,-2.1835,-2.1835,-2.0872,-2.0387,-2.0144,-1.9894,-1.9583,-1.9508,-1.8939,-1.8588,-1.7763,-10.029,-10.1058,-10.1058,-10.0596,-9.9941,-10.0125,-9.9925,-9.9475,-9.9179,-9.92,-9.9236,-9.9246,-9.9295,-9.9376,-9.953,-9.8905,-9.6933,-9.579,-9.462,-9.3868,-9.3731,-9.3106,-9.2268,-9.2084,-9.1938,-9.0679,-9.0588,-9.0779,-9.1014,-9.0869,-9.0488,-8.9981,-8.9024,-8.8391,-8.8194,-8.7695,-8.5882,-8.4315,-8.2987,-8.1411,-7.9445,-7.8789,-7.8789,-7.8644,-7.8354,-7.7917,-7.7505,-7.706,-7.6762,-7.6612,-7.6462,-7.6462,-7.6312,-7.5981,-7.5526,-7.4982,-7.4316,-7.397,-7.3972,-7.3924,-7.3424,-7.2249,-7.0796,-6.8643,-6.5867,-6.3586,-6.1117,-5.915,-5.8171,-5.722,-5.6401,-5.5888,-5.5669,-5.5683,-5.5396,-5.5087,-5.4951,-5.4682,-5.4101,-5.2508,-5.0045,-4.7433,-4.4321,-4.1264,-4.087,-4.0708,-4.0475,-4.0475,-4.049,-4.0037,-3.9628,-3.9231,-3.8681,-3.8167,-3.7065,-3.6395,-3.5139,-3.321,-3.1774,-3.072,-2.889,-2.7511,-2.5617,-2.3969,-2.2304,-2.2062,-2.1108,-2.0144,-1.9908,-1.963,-1.9542,-1.9227,-1.8933,-1.8128,-1.7306,-10.0333,-10.025,-10.025,-9.975,-9.9131,-9.9521,-9.96,-9.9518,-9.9787,-10.0118,-9.9829,-10.0027,-10.023,-10.0675,-10.061,-10.0101,-9.8977,-9.7594,-9.6248,-9.5338,-9.4831,-9.3897,-9.27,-9.2579,-9.1907,-9.0783,-9.0618,-9.0527,-9.0338,-9.0082,-8.9826,-8.922,-8.8676,-8.8276,-8.7728,-8.6666,-8.498,-8.325,-8.1819,-8.0509,-7.9046,-7.8789,-7.8644,-7.8354,-7.7917,-7.7475,-7.7209,-7.6911,-7.6612,-7.6462,-7.6462,-7.6283,-7.5981,-7.5526,-7.5067,-7.4732,-7.4521,-7.4366,-7.4126,-7.386,-7.3174,-7.2232,-7.1302,-6.9331,-6.6091,-6.2609,-6.033,-5.8523,-5.7673,-5.6974,-5.6328,-5.5981,-5.5848,-5.5736,-5.5488,-5.525,-5.5114,-5.4764,-5.4188,-5.3061,-5.0799,-4.9141,-4.6838,-4.3504,-4.0826,-4.0636,-4.049,-4.0534,-4.0329,-3.9714,-3.9025,-3.8418,-3.8128,-3.7586,-3.7498,-3.6601,-3.6078,-3.4848,-3.4111,-3.3141,-3.1306,-2.9724,-2.891,-2.7025,-2.4897,-2.2772,-2.2054,-2.1343,-2.0144,-1.9637,-1.959,-1.9274,-1.8718,-1.7895,-1.7067,-10.0899,-10.0789,-10.075,-10.0401,-9.9796,-10.0056,-9.9713,-9.9185,-9.9406,-9.9275,-9.9022,-9.9296,-10.007,-10.0838,-10.0819,-10.0298,-9.9595,-9.8779,-9.754,-9.6337,-9.556,-9.4481,-9.3088,-9.2625,-9.1978,-9.0939,-9.0421,-8.9641,-8.9343,-8.919,-8.9066,-8.8594,-8.7743,-8.7309,-8.7209,-8.5645,-8.4312,-8.2729,-8.1032,-7.9445,-7.8903,-7.8644,-7.8354,-7.8209,-7.7652,-7.7209,-7.709,-7.6762,-7.6462,-7.6462,-7.6312,-7.5981,-7.5678,-7.5221,-7.476,-7.4634,-7.4663,-7.4676,-7.4446,-7.3987,-7.3237,-7.2177,-7.1194,-6.8687,-6.5267,-6.2134,-5.9861,-5.865,-5.7827,-5.7119,-5.6396,-5.6262,-5.6231,-5.6116,-5.5699,-5.5164,-5.5085,-5.4798,-5.4286,-5.314,-5.1946,-5.0509,-4.8591,-4.5024,-4.2095,-4.106,-4.0751,-4.078,-4.0057,-3.9349,-3.8626,-3.7681,-3.7559,-3.7229,-3.735,-3.7078,-3.6999,-3.624,-3.642,-3.5201,-3.3406,-3.1863,-3.1071,-2.955,-2.6978,-2.5103,-2.3696,-2.2054,-2.0858,-2.0144,-1.9664,-1.9542,-1.9173,-1.7864,-1.7019,-10.1289,-10.1289,-10.1096,-10.0666,-10.014,-10.038,-9.9891,-9.907,-9.927,-9.9002,-9.8604,-9.898,-9.9748,-10.0423,-10.0577,-10.0389,-9.9968,-9.9696,-9.8486,-9.7161,-9.589,-9.4721,-9.3434,-9.2751,-9.1801,-9.0618,-9.0618,-8.9809,-8.8828,-8.8416,-8.8489,-8.7953,-8.6959,-8.6745,-8.6522,-8.5063,-8.316,-8.1517,-7.9839,-7.8903,-7.8644,-7.8354,-7.8063,-7.7799,-7.7357,-7.709,-7.6941,-7.6762,-7.6462,-7.6462,-7.6132,-7.583,-7.5526,-7.5067,-7.4747,-7.4606,-7.4659,-7.4605,-7.4536,-7.4194,-7.3596,-7.2325,-7.0453,-6.7743,-6.5029,-6.2154,-5.9769,-5.8769,-5.7783,-5.7214,-5.6812,-5.6718,-5.6643,-5.6209,-5.591,-5.5386,-5.4917,-5.4923,-5.4844,-5.4053,-5.311,-5.2,-4.9578,-4.6167,-4.3615,-4.1917,-4.1217,-4.0783,-4.001,-3.8986,-3.8454,-3.7713,-3.7633,-3.7275,-3.7301,-3.7368,-3.7422,-3.7422,-3.7622,-3.7237,-3.5003,-3.3979,-3.321,-3.124,-2.9211,-2.8001,-2.6772,-2.4068,-2.1563,-2.2227,-2.2405,-2.0671,-1.9605,-1.8284,-1.6989,-10.1289,-10.125,-10.0519,-9.9968,-9.9473,-9.9487,-9.9736,-9.9825,-10.01,-10.0063,-9.9707,-9.9737,-9.9436,-9.9823,-10.0286,-10.0547,-10.0732,-9.9965,-9.9059,-9.7802,-9.629,-9.4969,-9.3751,-9.2668,-9.1546,-9.074,-9.0618,-8.9976,-8.9023,-8.831,-8.7572,-8.6287,-8.634,-8.6779,-8.6327,-8.4725,-8.2034,-8.023,-7.8903,-7.8614,-7.8354,-7.8209,-7.7917,-7.7357,-7.709,-7.6941,-7.6612,-7.6462,-7.6462,-7.6462,-7.5981,-7.5526,-7.5221,-7.476,-7.4649,-7.4631,-7.4306,-7.4514,-7.4635,-7.4224,-7.3338,-7.1517,-6.9352,-6.6988,-6.5351,-6.2267,-6.0004,-5.8534,-5.7705,-5.7343,-5.709,-5.7194,-5.6753,-5.6172,-5.5648,-5.5323,-5.4951,-5.5051,-5.4948,-5.4971,-5.4242,-5.3137,-5.1947,-4.8908,-4.5249,-4.3321,-4.0816,-4.0364,-3.96,-3.881,-3.8515,-3.8009,-3.7756,-3.7702,-3.7689,-3.7676,-3.7555,-3.7462,-3.7529,-3.7515,-3.6787,-3.5825,-3.4631,-3.3749,-3.1729,-3.0978,-3.007,-2.7913,-2.6372,-2.5861,-2.485,-2.2893,-2.0879,-1.9546,-1.8065,-10.1289,-10.125,-10.1125,-10.1038,-10.1,-10.1232,-10.1159,-10.0938,-10.0985,-10.0336,-9.9332,-9.8625,-9.8705,-9.9384,-9.9667,-10.0238,-10.0778,-10.0617,-9.9708,-9.8756,-9.746,-9.5976,-9.4617,-9.325,-9.2316,-9.1006,-9.0537,-8.9807,-8.865,-8.834,-8.7469,-8.6668,-8.6245,-8.6613,-8.6009,-8.4474,-8.1683,-7.9587,-7.8789,-7.8644,-7.8209,-7.7917,-7.7652,-7.7238,-7.6762,-7.6612,-7.6462,-7.6462,-7.6312,-7.5981,-7.5678,-7.5249,-7.4999,-7.4536,-7.4591,-7.4866,-7.4403,-7.4389,-7.4524,-7.3905,-7.2979,-7.167,-6.8874,-6.6407,-6.567,-6.1941,-5.9702,-5.8458,-5.7687,-5.7215,-5.7215,-5.6815,-5.6413,-5.6031,-5.5506,-5.52,-5.5168,-5.5286,-5.543,-5.5204,-5.5167,-5.4711,-5.3433,-5.2091,-4.8177,-4.4735,-4.1997,-3.9934,-3.9609,-3.8869,-3.8345,-3.8291,-3.8023,-3.7956,-3.7929,-3.7796,-3.7662,-3.7582,-3.7515,-3.725,-3.7237,-3.6298,-3.5081,-3.4651,-3.4269,-3.293,-3.209,-3.1994,-3.0622,-2.8469,-2.6538,-2.5085,-2.3047,-2.078,-1.9578,-10.1289,-10.1366,-10.1664,-10.1918,-10.2117,-10.2361,-10.2296,-10.1961,-10.1891,-10.0974,-9.9367,-9.8485,-9.8624,-9.9526,-9.9792,-10.0123,-10.0783,-10.0765,-10.0004,-9.9174,-9.8102,-9.6862,-9.5213,-9.3731,-9.2537,-9.1218,-9.0737,-9.0115,-8.8967,-8.8565,-8.8019,-8.7227,-8.6512,-8.6796,-8.6414,-8.4474,-8.1579,-7.9445,-7.8789,-7.8499,-7.8063,-7.777,-7.7328,-7.6941,-7.6612,-7.6612,-7.6462,-7.6462,-7.6283,-7.583,-7.5402,-7.5182,-7.4832,-7.4719,-7.4828,-7.5184,-7.5017,-7.4718,-7.448,-7.3593,-7.2916,-7.2487,-6.9007,-6.6964,-6.5024,-6.1735,-5.8959,-5.821,-5.7614,-5.7235,-5.7235,-5.6835,-5.6375,-5.6052,-5.5523,-5.5254,-5.5277,-5.5332,-5.5605,-5.5648,-5.5592,-5.5686,-5.4571,-5.3017,-4.9861,-4.6222,-4.3535,-4.1474,-4.0559,-3.9816,-3.8641,-3.8357,-3.829,-3.821,-3.8103,-3.8023,-3.7943,-3.7876,-3.7782,-3.7171,-3.6892,-3.6163,-3.5409,-3.4767,-3.4387,-3.422,-3.3511,-3.2779,-3.1427,-2.9627,-2.8158,-2.646,-2.4053,-2.2282,-2.1788,-10.1289,-10.1365,-10.1863,-10.2055,-10.1984,-10.2379,-10.2569,-10.2593,-10.2537,-10.1875,-10.0732,-9.9897,-9.9824,-10.0354,-10.0311,-10.0514,-10.0778,-10.0842,-10.0404,-9.9509,-9.8631,-9.7293,-9.5835,-9.433,-9.2977,-9.2017,-9.1423,-9.0802,-8.976,-8.9437,-8.8948,-8.8023,-8.7212,-8.6991,-8.6984,-8.4474,-8.1548,-7.9332,-7.8933,-7.8354,-7.777,-7.7623,-7.7209,-7.6762,-7.6612,-7.6462,-7.6462,-7.6462,-7.6132,-7.5678,-7.5364,-7.5312,-7.5299,-7.5154,-7.5783,-7.7082,-7.5764,-7.5606,-7.6294,-7.435,-7.3547,-7.3195,-6.9705,-6.726,-6.5021,-6.1764,-5.845,-5.7854,-5.7215,-5.7256,-5.7056,-5.6696,-5.6335,-5.6151,-5.5638,-5.5444,-5.5462,-5.5527,-5.5781,-5.6074,-5.6348,-5.6348,-5.5256,-5.3706,-5.1049,-4.7916,-4.5015,-4.3003,-4.1632,-4.024,-3.8815,-3.8557,-3.8491,-3.8477,-3.8384,-3.8317,-3.8237,-3.817,-3.7821,-3.7207,-3.6648,-3.6154,-3.5371,-3.4779,-3.4338,-3.3992,-3.3714,-3.3437,-3.2214,-3.0975,-2.9455,-2.7539,-2.5406,-2.4023,-2.4244,-10.1094,-10.08,-10.1712,-10.1522,-10.092,-10.214,-10.2724,-10.2686,-10.2108,-10.1527,-10.0982,-10.0067,-9.9966,-10.0372,-10.0419,-10.0518,-10.0812,-10.0536,-10.0189,-9.9736,-9.9027,-9.7891,-9.6415,-9.4911,-9.3565,-9.2554,-9.1835,-9.0997,-8.9786,-8.9877,-8.8857,-8.7955,-8.7378,-8.6678,-8.5636,-8.3801,-8.1954,-8.023,-7.916,-7.8209,-7.7623,-7.7357,-7.706,-7.6612,-7.6462,-7.6462,-7.6462,-7.6312,-7.5945,-7.5756,-7.5495,-7.5626,-7.5933,-7.5896,-7.6527,-7.7177,-7.6136,-7.5477,-7.5632,-7.4516,-7.4153,-7.294,-7.0648,-6.767,-6.5588,-6.2421,-5.9675,-5.7718,-5.7297,-5.72,-5.7003,-5.668,-5.6292,-5.5996,-5.576,-5.5541,-5.5625,-5.5762,-5.5976,-5.6289,-5.6562,-5.6154,-5.5275,-5.4374,-5.1926,-4.9419,-4.6494,-4.2974,-4.0958,-3.9834,-3.8678,-3.8678,-3.8651,-3.8678,-3.8651,-3.845,-3.8397,-3.837,-3.7818,-3.7253,-3.6704,-3.6194,-3.5368,-3.4546,-3.4269,-3.398,-3.3762,-3.3569,-3.3224,-3.2063,-3.0665,-2.9749,-2.8606,-2.7924,-2.7924,-10.0511,-10.0071,-10.0845,-10.0708,-10.0224,-10.1651,-10.2328,-10.2246,-10.1625,-10.1388,-10.1291,-10.0462,-10.0373,-10.0767,-10.0573,-10.0442,-10.0808,-10.0282,-9.9732,-9.9486,-9.9341,-9.7824,-9.6285,-9.5149,-9.3566,-9.259,-9.1991,-9.1354,-9.0703,-9.0288,-8.9056,-8.7762,-8.7289,-8.6864,-8.5669,-8.4219,-8.2222,-8.0618,-7.9272,-7.8063,-7.7623,-7.7357,-7.6941,-7.6612,-7.6462,-7.6462,-7.6521,-7.6183,-7.6109,-7.5935,-7.6009,-7.6402,-7.6816,-7.6946,-7.7399,-7.7336,-7.6993,-7.6023,-7.5507,-7.5172,-7.4937,-7.4209,-7.1013,-6.7987,-6.5437,-6.1951,-5.9535,-5.7968,-5.7463,-5.7226,-5.7087,-5.6577,-5.6302,-5.5997,-5.5986,-5.5762,-5.5996,-5.6152,-5.6191,-5.6504,-5.6154,-5.5725,-5.5294,-5.4393,-5.2836,-5.0487,-4.7956,-4.4439,-4.0916,-3.9766,-3.9087,-3.8842,-3.8571,-3.8517,-3.8504,-3.8477,-3.8464,-3.8544,-3.8016,-3.7231,-3.655,-3.6036,-3.5168,-3.456,-3.4294,-3.4209,-3.3968,-3.3787,-3.3404,-3.2833,-3.185,-3.1387,-3.1364,-3.0676,-2.9771,-9.9698,-9.9173,-9.9396,-9.9678,-9.9966,-10.0851,-10.1377,-10.1443,-10.1416,-10.1618,-10.201,-10.0934,-10.0848,-10.134,-10.0775,-10.0437,-10.0352,-9.9726,-9.9117,-9.8666,-9.8545,-9.705,-9.5763,-9.4518,-9.3418,-9.2445,-9.187,-9.1798,-9.1764,-9.0562,-8.9024,-8.7779,-8.7289,-8.7137,-8.6193,-8.4728,-8.2755,-8.1275,-7.9129,-7.8033,-7.7623,-7.7209,-7.6762,-7.6642,-7.6579,-7.6637,-7.666,-7.6645,-7.6759,-7.6864,-7.7202,-7.771,-7.7979,-7.7761,-7.8256,-7.814,-7.7618,-7.6551,-7.5747,-7.5591,-7.5224,-7.4228,-7.0479,-6.7962,-6.5668,-6.2986,-6.054,-5.8788,-5.7918,-5.7575,-5.7067,-5.6795,-5.6325,-5.6353,-5.6149,-5.6152,-5.6406,-5.6504,-5.6504,-5.6368,-5.5725,-5.5294,-5.4666,-5.3761,-5.3035,-5.1346,-4.9248,-4.7634,-4.4106,-4.0475,-3.9802,-3.9344,-3.9046,-3.8263,-3.8263,-3.8317,-3.8153,-3.8193,-3.7916,-3.7206,-3.6766,-3.6054,-3.5427,-3.484,-3.4571,-3.4438,-3.4221,-3.3992,-3.3548,-3.2749,-3.193,-3.1624,-3.1139,-3.045,-2.976,-9.9018,-9.8581,-9.9405,-9.9226,-9.85,-9.9307,-9.9918,-10.0505,-10.15,-10.1593,-10.0358,-10.0611,-10.048,-10.0001,-9.9283,-9.9095,-9.8806,-9.8363,-9.7984,-9.7727,-9.7787,-9.6937,-9.58,-9.4456,-9.3489,-9.2827,-9.2345,-9.1907,-9.115,-9.0226,-8.8937,-8.7493,-8.7289,-8.7289,-8.6623,-8.5388,-8.3801,-8.1922,-7.9384,-7.8179,-7.7475,-7.706,-7.6791,-7.6579,-7.6898,-7.6863,-7.6818,-7.6972,-7.7135,-7.7315,-7.759,-7.8167,-7.9127,-7.8845,-7.8651,-7.7645,-7.671,-7.5878,-7.5721,-7.5354,-7.4985,-7.4217,-7.1278,-6.9646,-6.7769,-6.5322,-6.226,-6.0346,-5.8498,-5.776,-5.7263,-5.6941,-5.657,-5.6345,-5.6269,-5.6387,-5.6582,-5.6582,-5.6582,-5.5939,-5.5294,-5.4647,-5.4016,-5.3563,-5.2818,-5.1564,-5.0513,-4.906,-4.6772,-4.2933,-4.0477,-4.0008,-3.8774,-3.7983,-3.8063,-3.813,-3.7981,-3.7627,-3.7374,-3.7076,-3.635,-3.5858,-3.5378,-3.5083,-3.4728,-3.4619,-3.4487,-3.4221,-3.3656,-3.258,-3.1761,-3.1432,-3.0913,-3.0224,-2.976,-9.8774,-9.8387,-9.9051,-9.8692,-9.7935,-9.8546,-9.8982,-9.9236,-10.067,-10.0587,-9.9701,-9.9947,-9.98,-9.9313,-9.8551,-9.821,-9.8312,-9.7562,-9.7009,-9.6878,-9.7181,-9.6261,-9.5315,-9.4314,-9.3233,-9.2672,-9.2295,-9.1783,-9.1029,-9.0088,-8.8937,-8.7375,-8.7289,-8.7289,-8.6864,-8.5792,-8.4187,-8.2293,-8.0169,-7.841,-7.7475,-7.6941,-7.6729,-7.6898,-7.7304,-7.7202,-7.7241,-7.7292,-7.7719,-7.8063,-7.828,-7.8848,-7.9349,-7.8954,-7.7891,-7.6736,-7.6244,-7.5721,-7.5354,-7.5195,-7.4614,-7.3843,-7.2501,-7.1691,-6.9382,-6.6824,-6.4191,-6.1821,-5.9573,-5.7788,-5.7531,-5.7078,-5.6812,-5.6543,-5.6562,-5.6562,-5.6582,-5.6582,-5.6154,-5.551,-5.4863,-5.4233,-5.3563,-5.3345,-5.298,-5.2074,-5.1532,-5.0598,-4.7894,-4.4127,-4.1947,-4.0869,-3.9152,-3.7689,-3.7809,-3.7969,-3.7646,-3.7345,-3.7142,-3.6804,-3.5895,-3.5427,-3.5168,-3.4897,-3.4837,-3.4704,-3.4559,-3.4257,-3.3728,-3.2639,-3.1784,-3.1432,-3.0913,-3.0224,-2.9997,-9.8944,-9.8469,-9.8579,-9.8305,-9.7728,-9.8396,-9.8208,-9.7449,-9.8934,-9.9402,-9.9177,-9.9086,-9.8911,-9.8269,-9.7434,-9.7404,-9.7389,-9.6905,-9.6667,-9.6271,-9.7029,-9.6438,-9.5139,-9.3758,-9.3084,-9.2084,-9.1634,-9.1675,-9.1352,-9.0464,-8.9237,-8.7493,-8.7289,-8.7289,-8.7137,-8.6193,-8.4793,-8.3139,-8.1217,-7.931,-7.7652,-7.6966,-7.6811,-7.7239,-7.7529,-7.7578,-7.7661,-7.8036,-7.8357,-7.9054,-7.9435,-7.966,-7.9091,-7.827,-7.6917,-7.6217,-7.5721,-7.5538,-7.5169,-7.4985,-7.4454,-7.3894,-7.3519,-7.2866,-7.0832,-6.8545,-6.5933,-6.4211,-6.2189,-5.9823,-5.8877,-5.7528,-5.6717,-5.6582,-5.6582,-5.6582,-5.6582,-5.6368,-5.5725,-5.5079,-5.4214,-5.378,-5.3345,-5.3109,-5.3072,-5.2687,-5.2032,-5.1454,-4.9546,-4.5818,-4.3988,-4.2287,-4.0158,-3.8764,-3.8311,-3.8262,-3.7554,-3.7305,-3.6897,-3.6325,-3.5661,-3.5192,-3.4957,-3.4885,-3.4801,-3.4704,-3.4535,-3.4257,-3.3763,-3.2878,-3.2249,-3.1421,-3.0902,-3.0224,-2.9997,-9.9479,-9.9475,-9.9083,-9.8391,-9.7654,-9.7723,-9.7602,-9.7221,-9.7493,-9.7691,-9.7489,-9.747,-9.7209,-9.68,-9.6053,-9.6019,-9.6354,-9.6591,-9.6616,-9.6802,-9.7257,-9.6852,-9.55,-9.417,-9.3265,-9.2796,-9.2282,-9.1502,-9.113,-9.0573,-8.9567,-8.7611,-8.7289,-8.7289,-8.7389,-8.6479,-8.5587,-8.4242,-8.2398,-8.0252,-7.827,-7.7607,-7.7297,-7.7752,-7.8001,-7.7978,-7.7992,-7.8129,-7.8325,-7.8759,-7.9378,-7.929,-7.8828,-7.7843,-7.6789,-7.5905,-7.5721,-7.5354,-7.4985,-7.4614,-7.4056,-7.3494,-7.3143,-7.3005,-7.1939,-6.9812,-6.8,-6.6755,-6.4738,-6.2123,-5.9898,-5.802,-5.6582,-5.6582,-5.6582,-5.6582,-5.6582,-5.5939,-5.5294,-5.4647,-5.3997,-5.3563,-5.3109,-5.3091,-5.3054,-5.2742,-5.2247,-5.1649,-5.0774,-4.8247,-4.7066,-4.5098,-4.1746,-4.024,-3.9656,-3.8673,-3.8023,-3.6884,-3.6457,-3.5845,-3.5427,-3.5083,-3.4764,-3.4776,-3.4716,-3.4571,-3.4426,-3.4269,-3.3799,-3.3082,-3.2237,-3.1398,-3.0902,-3.0224,-2.9997,-10.0336,-10.037,-9.9814,-9.8744,-9.7648,-9.7433,-9.7486,-9.7613,-9.7547,-9.7662,-9.7711,-9.717,-9.6706,-9.6336,-9.5558,-9.521,-9.5814,-9.6018,-9.6261,-9.6688,-9.7437,-9.7088,-9.5959,-9.4619,-9.3801,-9.3278,-9.2656,-9.194,-9.1293,-9.0605,-8.9676,-8.8161,-8.7728,-8.7488,-8.7654,-8.7304,-8.6673,-8.5531,-8.3798,-8.1726,-7.9515,-7.8669,-7.805,-7.829,-7.8322,-7.8322,-7.8243,-7.8318,-7.8529,-7.8876,-7.9237,-7.8643,-7.7941,-7.697,-7.6244,-7.5721,-7.5538,-7.5169,-7.4614,-7.4242,-7.3682,-7.3306,-7.2929,-7.2791,-7.3217,-7.1273,-7.0118,-6.8443,-6.4678,-6.2106,-6.0418,-5.8533,-5.7147,-5.6582,-5.6582,-5.6582,-5.6368,-5.5725,-5.5313,-5.4882,-5.3997,-5.3327,-5.3109,-5.3109,-5.3072,-5.2999,-5.2467,-5.2045,-5.1114,-5.0328,-4.93,-4.7788,-4.4575,-4.1572,-4.0229,-3.9221,-3.8614,-3.7449,-3.6212,-3.5587,-3.5131,-3.4925,-3.4571,-3.4571,-3.4499,-3.433,-3.4185,-3.4076,-3.3871,-3.3356,-3.2347,-3.159,-3.0902,-3.045,-2.9997,-10.0901,-10.084,-10.0244,-9.9019,-9.755,-9.7499,-9.7751,-9.8143,-9.8297,-9.8757,-9.9065,-9.7673,-9.7518,-9.7208,-9.6557,-9.6058,-9.5959,-9.6311,-9.6361,-9.7029,-9.7977,-9.747,-9.6397,-9.5029,-9.4051,-9.3458,-9.2943,-9.253,-9.2034,-9.1299,-9.0275,-8.9106,-8.8346,-8.7885,-8.8162,-8.8029,-8.739,-8.6564,-8.5055,-8.3387,-8.1627,-7.9736,-7.8833,-7.8595,-7.8696,-7.8477,-7.8394,-7.841,-7.8754,-7.8625,-7.8549,-7.804,-7.7377,-7.6426,-7.6088,-7.5538,-7.538,-7.48,-7.4242,-7.3869,-7.3306,-7.2929,-7.274,-7.2916,-7.3152,-7.2633,-7.1443,-6.9432,-6.5683,-6.3349,-6.1663,-5.9466,-5.806,-5.6796,-5.6796,-5.6582,-5.5939,-5.5529,-5.5098,-5.4882,-5.3997,-5.3109,-5.3109,-5.3109,-5.3072,-5.3017,-5.2779,-5.2394,-5.1758,-5.109,-5.0251,-4.9476,-4.7519,-4.4593,-4.2125,-4.0038,-3.9133,-3.7575,-3.6537,-3.5721,-3.5034,-3.4547,-3.439,-3.4354,-3.4257,-3.4125,-3.3968,-3.3835,-3.3618,-3.3449,-3.2514,-3.1578,-3.1127,-3.0676,-2.9997,-9.9865,-9.9415,-9.9098,-9.8383,-9.7581,-9.7933,-9.8153,-9.8285,-9.8883,-9.956,-9.98,-9.864,-9.7673,-9.7024,-9.6212,-9.5823,-9.5929,-9.6436,-9.7461,-9.828,-9.8204,-9.7605,-9.6658,-9.5219,-9.3972,-9.3373,-9.321,-9.3155,-9.2392,-9.168,-9.0966,-8.9827,-8.9246,-8.8824,-8.8589,-8.8572,-8.8235,-8.7533,-8.646,-8.4886,-8.3265,-8.1387,-7.9127,-7.8723,-7.8688,-7.8261,-7.8021,-7.7858,-7.7998,-7.7816,-7.7435,-7.7282,-7.6805,-7.6217,-7.5905,-7.5538,-7.5195,-7.4614,-7.4056,-7.3682,-7.3118,-7.274,-7.274,-7.2765,-7.2902,-7.2769,-7.1858,-7.1465,-6.8699,-6.7008,-6.4893,-6.116,-5.8938,-5.8052,-5.7608,-5.6562,-5.5939,-5.5313,-5.4666,-5.4233,-5.378,-5.3345,-5.3109,-5.3109,-5.3109,-5.3017,-5.2834,-5.2449,-5.21,-5.1642,-5.1202,-5.048,-4.96,-4.8624,-4.6554,-4.1754,-3.9925,-3.8197,-3.6564,-3.5412,-3.467,-3.433,-3.4209,-3.4137,-3.4076,-3.3968,-3.3811,-3.363,-3.3569,-3.3224,-3.2277,-3.1578,-3.1353,-3.0902,-2.9987]}]]